[[{"header":{"parameterUnit":"m.s-1","parameterCategory":1,"la1":30.6,"la2":29.2853,"lo1":-89.7004,"lo2":-87.6739,"dy":0.0162,"dx":0.0183,"nx":112,"ny":82,"refTime":"2024-06-06T18:00:00:Z","depth":0,"parameterNumber":2,"parameterNumberName":"U-component_of_WINDS"},"data":[0.0,0.0,0.0,0.0,0.0,0.0,0.0,0.0,0.0,0.0,0.0,0.0,0.0,0.0,0.0,0.0,0.0,0.0,0.0,0.0,0.0,0.0,0.0,0.0,0.0,0.0,0.0,0.0,0.0,0.0,0.0,0.0,0.0,0.0,0.0,0.0,0.0,0.0,0.0,0.0,0.0,0.0,0.0,0.0,0.0,0.0,0.0,0.0,0.0,0.0,0.0,0.0,0.0,0.0,0.0,0.0,0.0,0.0,0.0,0.0,0.0,0.0,0.0,0.0,0.0,0.0,0.0,0.0,0.0,0.0,0.0,0.0,0.0,0.0,0.0,0.0,0.0,0.0,0.0,0.0,0.0,0.0,0.0,0.0,0.0,0.0,0.0,0.0,0.0,0.0,-0.3494,-0.3774,-0.5083,-0.5676,-0.4968,-0.4687,-0.4192,-0.3366,0.0,0.0,0.0,0.0,0.0,0.0,0.0,0.0,0.0,0.0,0.0,0.0,0.0,0.0,0.0,0.0,0.0,0.0,0.0,0.0,0.0,0.0,0.0,0.0,0.0,0.0,0.0,0.0,0.0,0.0,0.0,0.0,0.0,0.0,0.0,0.0,0.0,0.0,0.0,0.0,0.0,0.0,0.0,0.0,0.0,0.0,0.0,0.0,0.0,0.0,0.0,0.0,0.0,0.0,0.0,0.0,0.0,0.0,0.0,0.0,0.0,0.0,0.0,0.0,0.0,0.0,0.0,0.0,0.0,0.0,0.0,0.0,0.0,0.0,0.0,0.0,0.0,0.0,0.0,0.0,0.0,0.0,0.0,0.0,0.0,0.0,0.0,0.0,0.0,0.0,0.0,0.0,0.0,0.0,0.0,0.0,0.0,0.0,0.0,0.0,0.0,0.0,0.0,0.0,-0.5269,-0.643,-0.6721,-0.6933,-0.6989,-0.6541,-0.582,-0.4673,0.0,0.0,0.0,0.0,0.0,0.0,0.0,0.0,0.0,0.0,0.0,0.0,0.0,0.0,0.0,0.0,0.0,0.0,0.0,0.0,0.0,0.0,0.0,0.0,0.0,0.0,0.0,0.0,0.0,0.0,0.0,0.0,0.0,0.0,0.0,0.0,0.0,0.0,0.0,0.0,0.0,0.0,0.0,0.0,0.0,0.0,0.0,0.0,0.0,0.0,0.0,0.0,0.0,0.0,0.0,0.0,0.0,0.0,0.0,0.0,0.0,0.0,0.0,0.0,0.0,0.0,0.0,0.0,0.0,0.0,0.0,0.0,0.0,0.0,0.0,0.0,0.0,0.0,0.0,0.0,0.0,0.0,0.0,0.0,0.0,0.0,0.0,0.0,0.0,0.0,0.0,0.0,0.0,0.0,0.0,0.0,0.0,0.0,0.0,0.0,0.0,0.0,0.0,-0.4902,-0.5629,-0.695,-0.7139,-0.69,-0.652,-0.6221,-0.5636,-0.4675,-0.3029,0.0,0.0,0.0,0.0,0.0,0.0,0.0,0.0,0.0,0.0,0.0,0.0,0.0,0.0,0.0,0.0,0.0,0.0,0.0,0.0,0.0,0.0,0.0,0.0,0.0,0.0,0.0,0.0,0.0,0.0,0.0,0.0,0.0,0.0,0.0,0.0,0.0,0.0,0.0,0.0,0.0,0.0,0.0,0.0,0.0,0.0,0.0,0.0,0.0,0.0,0.0,0.0,0.0,0.0,0.0,0.0,0.0,0.0,0.0,0.0,0.0,0.0,0.0,0.0,0.0,0.0,0.0,0.0,0.0,0.0,0.0,0.0,0.0,0.0,0.0,0.0,0.0,0.0,0.0,0.0,0.0,0.0,0.0,0.0,0.0,0.0,0.0,0.0,0.0,0.0,0.0,0.0,0.0,0.0,0.0,0.0,0.0,0.0,0.0,0.0,0.0,0.0,-0.5819,-0.6297,-0.7414,-0.7316,-0.6874,-0.6074,-0.5785,-0.5413,-0.4745,-0.3885,0.0,0.0,0.0,0.0,0.0,0.0,0.0,0.0,0.0,0.0,0.0,0.0,0.0,0.0,0.0,0.0,0.0,0.0,0.0,0.0,0.0,0.0,0.0,0.0,0.0,0.0,0.0,0.0,0.0,0.0,0.0,0.0,0.0,0.0,0.0,0.0,0.0,0.0,0.0,0.0,0.0,0.0,0.0,0.0,0.0,0.0,0.0,0.0,0.0,0.0,0.0,0.0,0.0,0.0,0.0,0.0,0.0,0.0,0.0,0.0,0.0,0.0,0.0,0.0,0.0,0.0,0.0,0.0,0.0,0.0,0.0,0.0,0.0,0.0,0.0,0.0,0.0,0.0,0.0,0.0,0.0,0.0,0.0,0.0,0.0,0.0,0.0,0.0,0.0,0.0,0.0,0.0,0.0,0.0,0.0,0.0,0.0,0.0,0.0,0.0,0.0,0.0,-0.8143,-0.8465,-0.874,-0.8025,-0.7323,-0.7051,-0.6535,-0.6073,-0.5748,-0.4856,0.0,0.0,0.0,0.0,0.0,0.0,0.0,0.0,0.0,0.0,0.0,0.0,0.0,0.0,0.0,0.0,0.0,0.0,0.0,0.0,0.0,0.0,0.0,0.0,0.0,0.0,0.0,0.0,0.0,0.0,0.0,0.0,0.0,0.0,0.0,0.0,0.0,0.0,0.0,0.0,0.0,0.0,0.0,0.0,0.0,0.0,0.0,0.0,0.0,0.0,0.0,0.0,0.0,0.0,0.0,0.0,0.0,0.0,0.0,0.0,0.0,0.0,0.0,0.0,0.0,0.0,0.0,0.0,0.0,0.0,0.0,0.0,0.0,0.0,0.0,0.0,0.0,0.0,0.0,0.0,0.0,0.0,0.0,0.0,0.0,0.0,0.0,0.0,0.0,0.0,0.0,0.0,0.0,0.0,0.0,0.0,0.0,0.0,0.0,0.0,0.0,0.0,-0.8631,-0.9034,0.0,-0.8479,-0.8237,-0.7274,-0.6876,-0.6419,-0.5835,0.0,0.0,0.0,0.0,0.0,0.0,0.0,0.0,0.0,0.0,0.0,0.0,0.0,0.0,0.0,0.0,0.0,0.0,0.0,0.0,0.0,0.0,0.0,0.0,0.0,0.0,0.0,0.0,0.0,0.0,0.0,0.0,0.0,0.0,0.0,0.0,0.0,0.0,0.0,0.0,0.0,0.0,0.0,0.0,0.0,0.0,0.0,0.0,0.0,0.0,0.0,0.0,0.0,0.0,0.0,0.0,0.0,0.0,0.0,0.0,0.0,0.0,0.0,0.0,0.0,0.0,0.0,0.0,0.0,0.0,0.0,0.0,0.0,0.0,0.0,0.0,0.0,0.0,0.0,0.0,0.0,0.0,0.0,0.0,0.0,0.0,0.0,0.0,0.0,0.0,0.0,0.0,0.0,0.0,0.0,0.0,0.0,0.0,0.0,0.0,0.0,0.0,-0.8628,-0.9868,-1.0404,0.0,-0.9316,-0.9,-0.8033,-0.7159,-0.6521,-0.5956,0.0,0.0,0.0,0.0,0.0,0.0,0.0,0.0,0.0,0.0,0.0,0.0,0.0,0.0,0.0,0.0,0.0,0.0,0.0,0.0,0.0,0.0,0.0,0.0,0.0,0.0,0.0,0.0,0.0,0.0,0.0,0.0,0.0,0.0,0.0,0.0,0.0,0.0,0.0,0.0,0.0,0.0,0.0,0.0,0.0,0.0,0.0,0.0,0.0,0.0,0.0,0.0,0.0,0.0,0.0,0.0,0.0,0.0,0.0,0.0,0.0,0.0,0.0,0.0,0.0,0.0,0.0,0.0,0.0,0.0,0.0,0.0,0.0,0.0,0.0,0.0,0.0,0.0,0.0,0.0,0.0,0.0,0.0,0.0,0.0,0.0,0.0,0.0,0.0,0.0,0.0,0.0,0.0,0.0,0.0,0.0,0.0,0.0,0.0,0.0,0.0,0.0,-1.105,-1.2024,-1.2622,-1.248,-1.0851,-0.9601,-0.9344,-0.7685,-0.6459,0.0,0.0,0.0,0.0,0.0,0.0,0.0,0.0,0.0,0.0,0.0,0.0,0.0,0.0,0.0,0.0,0.0,0.0,0.0,0.0,0.0,0.0,0.0,0.0,0.0,0.0,0.0,0.0,0.0,0.0,0.0,0.0,0.0,0.0,0.0,0.0,0.0,0.0,0.0,0.0,0.0,0.0,0.0,0.0,0.0,0.0,0.0,0.0,0.0,0.0,0.0,0.0,0.0,0.0,0.0,0.0,0.0,0.0,0.0,0.0,0.0,0.0,0.0,0.0,0.0,0.0,0.0,0.0,0.0,0.0,0.0,0.0,0.0,0.0,0.0,0.0,0.0,0.0,0.0,0.0,0.0,0.0,0.0,0.0,0.0,0.0,0.0,0.0,0.0,0.0,0.0,0.0,0.0,0.0,0.0,0.0,0.0,0.0,0.0,0.0,0.0,0.0,0.0,-1.117,-1.2593,-1.3047,-1.1872,-1.1891,-1.1461,-1.0141,-0.8849,-0.7792,-0.7171,0.0,0.0,0.0,0.0,0.0,0.0,0.0,0.0,0.0,0.0,0.0,0.0,0.0,0.0,0.0,0.0,0.0,0.0,0.0,0.0,0.0,0.0,0.0,0.0,0.0,0.0,0.0,0.0,0.0,0.0,0.0,0.0,0.0,0.0,0.0,0.0,0.0,0.0,0.0,0.0,0.0,0.0,0.0,0.0,0.0,0.0,0.0,0.0,0.0,0.0,0.0,0.0,0.0,0.0,0.0,0.0,0.0,0.0,0.0,0.0,0.0,0.0,0.0,0.0,0.0,0.0,0.0,0.0,0.0,0.0,0.0,0.0,0.0,0.0,0.0,0.0,0.0,0.0,0.0,0.0,0.0,0.0,0.0,0.0,0.0,0.0,0.0,0.0,0.0,0.0,0.0,0.0,0.0,0.0,0.0,0.0,0.0,0.0,0.0,0.0,0.0,0.0,-1.1775,-1.3056,-1.3597,-1.2788,-1.2798,-1.2463,-1.1414,-0.9791,-0.8578,-0.8002,0.0,0.0,0.0,0.0,0.0,0.0,0.0,0.0,0.0,0.0,0.0,0.0,0.0,0.0,0.0,0.0,0.0,0.0,0.0,0.0,0.0,0.0,0.0,0.0,0.0,0.0,0.0,0.0,0.0,0.0,0.0,0.0,0.0,0.0,0.0,0.0,0.0,0.0,0.0,0.0,0.0,0.0,0.0,0.0,0.0,0.0,0.0,0.0,0.0,0.0,0.0,0.0,0.0,0.0,0.0,0.0,0.0,0.0,0.0,0.0,0.0,0.0,0.0,0.0,0.0,0.0,0.0,0.0,0.0,0.0,0.0,0.0,0.0,0.0,0.0,0.0,0.0,0.0,0.0,0.0,0.0,0.0,0.0,0.0,0.0,0.0,0.0,0.0,0.0,0.0,0.0,0.0,0.0,0.0,0.0,0.0,0.0,0.0,0.0,0.0,0.0,0.0,-1.2712,-1.3572,-1.426,-1.4559,-1.3697,-1.2934,-1.2831,-1.0617,-0.9091,-0.8755,0.0,0.0,0.0,0.0,0.0,0.0,0.0,0.0,0.0,0.0,0.0,0.0,0.0,0.0,0.0,0.0,0.0,0.0,0.0,0.0,0.0,0.0,0.0,0.0,0.0,0.0,0.0,0.0,0.0,0.0,0.0,0.0,0.0,0.0,0.0,0.0,0.0,0.0,0.0,0.0,0.0,0.0,0.0,0.0,0.0,0.0,0.0,0.0,0.0,0.0,0.0,0.0,0.0,0.0,0.0,0.0,0.0,0.0,0.0,0.0,-2.2215,0.0,0.0,0.0,0.0,0.0,0.0,0.0,0.0,0.0,0.0,0.0,0.0,0.0,0.0,0.0,0.0,0.0,0.0,0.0,0.0,0.0,0.0,0.0,0.0,0.0,0.0,0.0,0.0,0.0,0.0,0.0,0.0,0.0,0.0,0.0,0.0,0.0,0.0,0.0,0.0,0.0,-1.3663,-1.4563,-1.5015,-1.4864,-1.4688,-1.4223,-1.3233,-1.1925,-1.0666,-0.9663,-0.8426,0.0,0.0,0.0,0.0,0.0,0.0,0.0,0.0,0.0,0.0,0.0,0.0,0.0,0.0,0.0,0.0,0.0,0.0,0.0,0.0,0.0,0.0,0.0,0.0,0.0,0.0,0.0,0.0,0.0,0.0,0.0,0.0,0.0,0.0,0.0,0.0,0.0,0.0,0.0,0.0,0.0,0.0,0.0,0.0,0.0,0.0,0.0,0.0,0.0,0.0,0.0,0.0,0.0,0.0,0.0,0.0,0.0,0.0,0.0,0.0,-2.386,0.0,0.0,0.0,0.0,0.0,0.0,0.0,0.0,0.0,0.0,0.0,0.0,0.0,0.0,0.0,0.0,0.0,0.0,0.0,0.0,0.0,0.0,0.0,0.0,0.0,0.0,0.0,0.0,0.0,0.0,0.0,0.0,0.0,0.0,0.0,0.0,0.0,0.0,0.0,0.0,-1.3987,-1.4806,-1.5365,-1.5313,-1.5306,-1.4985,-1.4369,-1.3297,-1.2199,-1.1068,-0.9835,0.0,0.0,0.0,0.0,0.0,0.0,0.0,0.0,0.0,0.0,0.0,0.0,0.0,0.0,0.0,0.0,0.0,0.0,0.0,0.0,0.0,0.0,0.0,0.0,0.0,0.0,0.0,0.0,0.0,0.0,0.0,0.0,0.0,0.0,0.0,0.0,0.0,0.0,0.0,0.0,0.0,0.0,0.0,0.0,0.0,0.0,0.0,0.0,0.0,0.0,0.0,0.0,0.0,-2.7923,-2.8181,-2.7811,-2.8545,-2.892,-2.8928,-2.7454,-2.6768,-2.6567,0.0,0.0,0.0,0.0,0.0,0.0,0.0,0.0,0.0,0.0,0.0,0.0,0.0,0.0,0.0,0.0,0.0,0.0,0.0,0.0,0.0,0.0,0.0,0.0,0.0,-1.7615,-1.741,0.0,0.0,0.0,0.0,0.0,0.0,0.0,0.0,0.0,0.0,0.0,0.0,-1.435,-1.5136,-1.5713,-1.5939,-1.5771,-1.5568,-1.5426,-1.4471,-1.3477,-1.2358,-1.1254,-0.9962,0.0,0.0,0.0,0.0,0.0,0.0,0.0,0.0,0.0,0.0,0.0,0.0,0.0,0.0,0.0,0.0,0.0,0.0,0.0,0.0,0.0,0.0,0.0,0.0,0.0,0.0,0.0,0.0,0.0,0.0,0.0,0.0,-1.6903,-1.6829,0.0,0.0,0.0,0.0,0.0,0.0,0.0,0.0,0.0,0.0,0.0,0.0,0.0,-2.646,-2.7445,-2.911,-3.0009,-3.0111,-3.1835,-3.2349,-3.1782,-3.2461,-3.2594,-3.2254,-3.2127,0.0,-2.8121,-2.724,0.0,0.0,0.0,0.0,0.0,0.0,0.0,0.0,0.0,0.0,0.0,0.0,0.0,0.0,0.0,0.0,0.0,0.0,0.0,0.0,0.0,0.0,-1.9878,-1.9935,-1.9977,-1.9956,0.0,-1.7332,-1.507,-1.4447,-1.4195,0.0,0.0,0.0,0.0,0.0,0.0,0.0,-1.5638,-1.6459,-1.6826,-1.6524,-1.6333,-1.5842,-1.5046,-1.4854,-1.4159,-1.2808,-1.2174,-1.1439,-1.0465,-1.0192,0.0,0.0,0.0,0.0,0.0,0.0,0.0,0.0,0.0,0.0,0.0,0.0,0.0,0.0,0.0,0.0,0.0,0.0,0.0,0.0,0.0,0.0,0.0,0.0,0.0,0.0,0.0,0.0,0.0,-1.6622,-1.8142,-1.8262,-1.916,-1.9573,0.0,0.0,0.0,0.0,0.0,0.0,0.0,0.0,0.0,-2.7285,-2.7982,-2.8813,-2.9813,-3.12,-3.2047,-3.2272,-3.3562,-3.397,-3.3671,-3.445,-3.4618,-3.4203,-3.4353,-3.3646,-3.2199,-2.9972,-2.8515,-2.7544,0.0,0.0,0.0,0.0,-2.4775,-2.4629,-2.522,-2.5401,0.0,0.0,0.0,0.0,0.0,0.0,0.0,0.0,0.0,0.0,0.0,0.0,0.0,-2.0747,-2.0871,-2.0942,-2.0942,-1.9579,-1.7996,0.0,-1.642,-1.5839,-1.4234,0.0,0.0,0.0,0.0,-1.5861,-1.6481,-1.7081,-1.7432,-1.7226,-1.7097,-1.683,-1.6394,-1.5965,-1.5072,-1.3703,-1.3048,-1.2049,-1.0759,-1.0559,-1.0208,0.0,0.0,0.0,0.0,0.0,0.0,0.0,0.0,0.0,0.0,0.0,0.0,0.0,0.0,0.0,0.0,0.0,0.0,0.0,0.0,0.0,0.0,0.0,0.0,0.0,0.0,0.0,0.0,-1.799,-1.9377,-1.9584,-2.1222,-2.192,0.0,0.0,0.0,0.0,0.0,0.0,-2.7612,-2.736,-2.7954,-2.9674,-3.0368,-3.1074,-3.1752,-3.2786,-3.349,-3.3978,-3.466,-3.5003,-3.5118,-3.5851,-3.5982,-3.5744,-3.5859,-3.5821,-3.5426,-3.2455,-3.0653,-2.9595,-2.7953,-2.6948,-2.6516,-2.6708,-2.671,-2.6718,-2.7345,-2.7567,-2.7173,-2.4946,0.0,-2.2832,-2.0754,0.0,0.0,0.0,0.0,-1.9798,-2.0379,-2.0956,-2.14,-2.1555,-2.1734,-2.1808,-2.1808,-2.1386,-2.0568,0.0,-1.8533,-1.793,-1.6081,0.0,0.0,0.0,0.0,-1.6818,-1.7206,-1.7595,-1.7842,-1.7842,-1.7725,-1.7529,-1.7332,-1.6821,-1.5825,-1.4438,-1.3699,-1.2611,-1.1171,-1.115,-1.1027,-1.0559,0.0,0.0,0.0,0.0,0.0,0.0,0.0,0.0,0.0,0.0,0.0,0.0,0.0,0.0,0.0,0.0,0.0,0.0,0.0,0.0,0.0,0.0,0.0,0.0,0.0,0.0,0.0,0.0,0.0,-2.0601,-2.3259,0.0,0.0,0.0,0.0,-2.723,-2.7495,-2.855,-3.0815,-3.1054,-3.1264,-3.167,-3.255,-3.3019,-3.2892,-3.3643,-3.4485,-3.531,-3.5548,-3.6009,-3.6615,-3.686,-3.6966,-3.7084,-3.7294,-3.699,-3.6206,-3.4229,-3.2757,-3.1607,-3.0076,-2.8651,-2.7565,-2.7891,-2.7837,-2.7614,-2.7697,-2.7678,-2.7429,-2.573,-2.3891,-2.2187,-2.1658,-2.1108,0.0,0.0,-2.0828,-2.1375,-2.2024,-2.2248,-2.2328,-2.2785,-2.2894,-2.2883,-2.2883,-2.2586,-2.18,0.0,-2.0038,-1.9415,-1.807,0.0,-1.7896,-1.7005,-1.7286,-1.776,-1.8032,-1.8181,-1.8269,-1.8269,-1.8076,-1.7666,-1.6978,-1.6908,-1.6165,-1.453,-1.4053,-1.3418,-1.2451,-1.2369,-1.211,-1.1703,-1.1809,0.0,0.0,0.0,0.0,0.0,0.0,0.0,0.0,0.0,0.0,0.0,0.0,0.0,0.0,0.0,0.0,0.0,0.0,0.0,0.0,0.0,0.0,0.0,0.0,0.0,0.0,0.0,0.0,-2.4202,-2.6337,0.0,-2.7261,-2.7827,-2.8833,-3.0262,-3.0477,-3.1332,-3.3021,-3.2939,-3.3054,-3.3456,-3.3523,-3.3782,-3.408,-3.4365,-3.4868,-3.5608,-3.5688,-3.607,-3.6723,-3.6785,-3.6968,-3.7194,-3.7254,-3.7247,-3.6995,-3.6004,-3.5049,-3.4014,-3.2415,-3.1531,-3.0966,-3.007,-2.9667,-2.9537,-2.9354,-2.9245,-2.8993,-2.7274,-2.5434,-2.3813,-2.3622,-2.2846,-2.2039,-2.2287,-2.2146,-2.2013,-2.244,-2.254,-2.2572,-2.2585,-2.2703,-2.2777,-2.2777,-2.2796,-2.2725,-2.2518,-2.1533,-2.0425,-1.9264,-1.9105,-1.8956,-1.8364,-1.8354,-1.8564,-1.884,-1.8839,-1.8741,-1.8607,-1.8414,-1.8212,-1.793,-1.7254,-1.6437,-1.5638,-1.4405,-1.3404,-1.2851,-1.2198,-1.167,-1.1382,-1.1858,-1.1396,0.0,0.0,0.0,0.0,0.0,0.0,0.0,0.0,0.0,0.0,0.0,0.0,0.0,0.0,0.0,0.0,0.0,0.0,0.0,0.0,0.0,0.0,0.0,0.0,0.0,0.0,-2.625,-2.6886,-2.9215,-3.0604,-3.0197,-3.0743,-3.1691,-3.2938,-3.3126,-3.3712,-3.4979,-3.4883,-3.4837,-3.4957,-3.4706,-3.4654,-3.475,-3.4898,-3.5213,-3.5688,-3.5816,-3.6148,-3.6662,-3.6723,-3.6907,-3.715,-3.727,-3.7405,-3.748,-3.7105,-3.6617,-3.5896,-3.4117,-3.3186,-3.2706,-3.1611,-3.1029,-3.0614,-2.9984,-2.954,-2.9079,-2.7766,-2.6414,-2.5203,-2.4816,-2.4086,-2.341,-2.3461,-2.3122,-2.2765,-2.2776,-2.2777,-2.2777,-2.2628,-2.2777,-2.3001,-2.3001,-2.3224,-2.3446,-2.3751,-2.2789,-2.1588,-2.0845,-2.059,-2.0304,-1.9756,-1.9681,-1.9669,-1.9628,-1.9572,-1.9385,-1.9096,-1.8875,-1.8684,-1.8405,-1.7502,-1.6599,-1.5936,-1.4519,-1.3459,-1.3033,-1.2314,-1.1903,-1.1776,-1.2386,-1.2128,-1.0854,0.0,0.0,0.0,0.0,0.0,0.0,0.0,0.0,0.0,0.0,0.0,0.0,0.0,0.0,0.0,0.0,0.0,0.0,0.0,0.0,0.0,0.0,0.0,-2.4246,-2.6606,-2.8396,-2.8456,-3.1685,-3.3276,-3.1792,-3.3138,-3.4425,-3.5187,-3.5233,-3.5707,-3.6677,-3.6862,-3.6677,-3.6037,-3.6148,-3.5816,-3.4935,-3.5294,-3.5604,-3.5688,-3.6006,-3.6274,-3.6492,-3.6816,-3.7015,-3.7015,-3.7361,-3.748,-3.748,-3.748,-3.748,-3.7282,-3.5074,-3.3579,-3.2542,-3.2527,-3.1838,-3.0813,-2.9603,-2.8627,-2.7775,-2.7294,-2.6752,-2.6074,-2.5183,-2.4897,-2.4669,-2.3847,-2.3604,-2.3519,-2.3075,-2.3001,-2.3001,-2.3001,-2.3298,-2.3593,-2.3593,-2.3897,-2.42,-2.42,-2.3593,-2.2922,-2.2667,-2.2457,-2.2078,-2.1225,-2.1231,0.0,-2.0471,-2.0339,-2.0158,-1.9679,-1.9438,-1.9019,-1.8317,-1.7691,-1.673,-1.5366,-1.4519,-1.3709,-1.3058,-1.2856,-1.2871,-1.3095,-1.3391,-1.3387,-1.2923,0.0,0.0,0.0,0.0,0.0,0.0,0.0,0.0,0.0,0.0,0.0,0.0,0.0,0.0,0.0,0.0,0.0,0.0,0.0,0.0,0.0,0.0,-2.7962,-2.7793,-2.9255,-3.0824,-3.2276,-3.3818,-3.4927,-3.511,-3.5523,-3.6014,-3.6445,-3.6537,-3.6614,-3.6923,-3.6952,-3.6631,-3.6037,-3.6399,-3.615,-3.5148,-3.5718,-3.5973,-3.5894,-3.6037,-3.6289,-3.6662,-3.6723,-3.6862,-3.6999,-3.721,-3.7254,-3.727,-3.7464,-3.7285,-3.6768,-3.5323,-3.4572,-3.4113,-3.2629,-3.1565,-3.0884,-3.0533,-3.0078,-2.9631,-2.9482,-2.8765,-2.7906,-2.762,-2.6481,-2.5183,-2.474,-2.4095,-2.3519,-2.3075,-2.3001,-2.3001,-2.3001,-2.3075,-2.3224,-2.3519,-2.3677,-2.397,-2.4502,-2.42,-2.3852,-2.3788,-2.3458,-2.3103,-2.2886,-2.2546,0.0,-2.1501,-2.149,-2.1109,-2.0169,-2.0058,-1.9775,-1.9229,-1.8458,-1.7636,-1.6898,-1.5632,-1.4529,-1.3769,-1.2983,-1.2545,-1.2546,-1.3083,-1.3349,0.0,0.0,0.0,0.0,0.0,0.0,0.0,0.0,0.0,0.0,0.0,0.0,0.0,0.0,0.0,0.0,0.0,0.0,0.0,0.0,0.0,0.0,-3.0468,-3.1469,-3.2523,-3.2703,-3.3213,-3.4691,-3.5476,-3.6168,-3.6646,-3.6785,-3.6968,-3.715,-3.727,-3.7389,-3.7449,-3.7401,-3.7207,-3.6815,-3.7071,-3.6814,-3.5831,-3.6243,-3.6383,-3.6226,-3.6289,-3.6414,-3.6708,-3.6846,-3.6907,0.0,-3.7225,-3.7329,-3.7329,-3.7464,-3.7165,0.0,0.0,0.0,0.0,0.0,-3.1741,-3.124,-3.0801,-3.0597,-3.0336,-3.0033,-2.9447,-2.8866,-2.852,-2.7336,-2.5997,-2.5611,-2.4728,-2.3832,-2.3382,-2.3154,-2.3001,-2.3001,-2.3224,-2.3593,-2.3824,-2.4105,-2.4455,-2.4909,0.0,0.0,-2.4683,-2.4163,-2.3824,-2.3824,-2.3559,-2.3132,-2.2659,-2.2556,-2.2168,-2.121,-2.0845,-2.0471,-2.0058,-1.9094,0.0,0.0,0.0,-1.5362,-1.4478,-1.4123,0.0,0.0,0.0,0.0,0.0,0.0,0.0,0.0,-1.3912,-1.3949,0.0,0.0,0.0,0.0,0.0,0.0,0.0,0.0,0.0,0.0,0.0,0.0,0.0,0.0,0.0,0.0,-3.4074,-3.4919,-3.7281,-3.6318,-3.5593,-3.6193,-3.6805,-3.7121,-3.7121,-3.7314,-3.7476,-3.7519,-3.7828,-3.8091,-3.8286,0.0,0.0,0.0,0.0,-3.7695,-3.6845,-3.7011,-3.6906,-3.6538,-3.6708,-3.6769,-3.6723,-3.7074,-3.715,-3.706,-3.7361,-3.748,-3.748,-3.748,-3.7165,-3.6646,-3.5991,-3.5464,-3.4765,-3.3061,-3.218,0.0,0.0,0.0,0.0,-2.987,-2.9574,-2.936,-2.8711,-2.7743,-2.6812,-2.6411,-2.5332,-2.4113,-2.3722,-2.3329,-2.3075,-2.3075,-2.3677,-2.42,-2.4273,-2.4754,-2.5241,-2.5312,-2.5312,-2.5312,-2.5312,-2.4754,-2.4334,-2.4334,-2.4334,-2.4172,-2.3722,-2.3664,-2.3328,-2.2351,0.0,0.0,-2.0668,-1.9629,-1.8828,-1.8466,-1.7125,-1.6028,-1.5203,-1.5596,-1.6073,-1.6545,-1.666,-1.7019,-1.7606,-1.7668,-1.7688,-1.7502,-1.5689,-1.5389,0.0,0.0,0.0,0.0,0.0,0.0,0.0,0.0,0.0,0.0,0.0,0.0,0.0,0.0,0.0,-3.5332,-3.6225,-3.7035,-3.817,-3.8249,-3.8121,-3.789,-3.7978,-3.8001,-3.7886,-3.7943,-3.8059,-3.8343,-3.8399,-3.8715,-3.9357,-3.9005,0.0,-3.8921,-3.91,-3.8662,-3.7589,-3.8076,-3.7905,-3.6966,0.0,0.0,-3.6938,-3.715,-3.7194,-3.7194,-3.7405,-3.7405,-3.7254,-3.7405,-3.7165,-3.6585,-3.5335,-3.4341,-3.3589,-3.2919,-3.2396,-3.2123,-3.1942,-3.1829,-3.1829,-3.1685,-3.1236,-3.0647,-3.0498,-2.88,0.0,-2.651,-2.509,-2.3664,-2.3218,-2.3301,-2.3446,-2.3446,-2.3824,-2.4273,-2.4646,-2.479,-2.4992,-2.5241,-2.5312,-2.5312,-2.5312,-2.517,-2.5099,-2.5099,-2.5099,-2.4933,-2.4577,-2.4565,-2.407,-2.2905,-2.2629,-2.211,-2.0926,-2.027,-1.9307,-1.808,-1.6419,-1.5551,-1.582,-1.5675,-1.5845,-1.6334,-1.691,-1.7134,-1.7129,-1.7657,-1.7968,-1.7981,-1.7216,-1.691,0.0,0.0,0.0,0.0,0.0,0.0,0.0,0.0,0.0,0.0,0.0,-3.3063,0.0,0.0,-3.6514,-3.8347,-3.8751,-3.8995,-3.9525,-3.9849,-3.9698,-3.8756,-3.8606,-3.8511,-3.8455,-3.8551,-3.8717,-3.8898,-3.9061,-3.9445,-4.0188,-4.0055,-3.9934,-4.01,-4.0184,-3.9694,-3.8518,-3.887,-3.8541,-3.7504,-3.7695,-3.7535,-3.7105,-3.727,-3.7329,-3.7194,-3.7405,-3.7464,-3.7329,-3.715,-3.6907,-3.6585,-3.5124,-3.4192,-3.3575,-3.3185,-3.2646,-3.2182,-3.2182,-3.2182,-3.2182,-3.2109,-3.1817,-3.1434,-3.1299,-3.0033,-2.8536,-2.8014,-2.6745,-2.5351,-2.4579,-2.4338,-2.4238,-2.3959,-2.42,-2.4574,-2.479,-2.4921,-2.5123,-2.5241,-2.5382,-2.5382,-2.5312,-2.5382,-2.5382,-2.5312,-2.5312,-2.5241,-2.5052,-2.5052,-2.4743,-2.3916,-2.3639,-2.2971,-2.1891,-2.0886,-1.9825,-1.8658,-1.7976,-1.7561,-1.7278,-1.7376,-1.7567,-1.7767,-1.8103,-1.828,-1.8307,-1.852,-1.877,-1.9075,-1.8781,-1.8481,0.0,0.0,0.0,0.0,0.0,0.0,0.0,-3.0751,-3.2065,-3.3609,-3.5094,-3.6667,-3.839,-3.8762,-3.9327,-4.0957,-4.089,-4.0666,-4.0814,-4.1036,-4.0733,-3.956,-3.9189,-3.9061,-3.9023,-3.9169,-3.9329,-3.9312,-3.9609,-4.01,-4.0855,-4.0889,-4.1009,-4.1285,-4.115,-4.0622,-3.9687,-3.9625,-3.9119,-3.8042,-3.8214,-3.787,-3.7194,-3.7405,-3.7405,-3.7254,-3.7405,-3.748,-3.748,-3.7029,-3.6846,-3.6708,-3.5385,-3.4647,-3.4163,-3.3451,-3.2789,-3.2314,-3.2241,-3.2182,-3.2182,-3.2036,-3.1963,-3.189,-3.1683,-3.0957,-3.0061,-2.9587,-2.8373,-2.703,-2.6007,-2.5457,-2.5016,-2.4406,-2.4634,-2.4921,-2.4921,-2.5123,-2.5382,-2.5382,-2.5535,-2.5618,-2.5453,-2.5535,-2.5606,-2.5312,-2.5312,-2.5312,-2.5312,-2.5312,-2.5182,-2.4861,-2.4402,-2.3746,-2.2799,-2.1339,-2.0172,-1.9431,-1.966,-1.95,-1.8795,-1.9158,-1.9371,-1.9392,-1.9392,-1.949,-1.9809,-1.961,-1.9786,-2.018,-2.0101,-1.9823,-2.7187,-2.7623,-2.8097,-2.9649,-3.0222,-3.1406,0.0,-3.5465,-3.5599,-3.7846,-3.8918,-3.9667,-4.039,-4.1181,-4.1653,-4.1322,-4.1719,-4.1932,-4.1455,-4.1321,-4.1213,-4.1059,-4.04,-3.9918,-3.9781,-3.9677,-3.9661,-3.9781,-3.9986,-4.0358,-4.1118,-4.1239,-4.1647,-4.2326,-4.1698,-4.1342,-4.1341,-4.0694,-3.9765,-3.8629,-3.881,-3.8311,-3.7194,-3.7405,-3.748,-3.748,-3.748,-3.748,-3.748,-3.7421,-3.7405,-3.7285,-3.618,-3.5529,-3.5059,-3.3381,-3.2704,-3.2561,-3.2314,-3.2182,-3.2182,-3.2182,-3.2036,-3.189,-3.189,-3.0829,-2.9635,-2.9571,-2.8243,-2.6625,-2.5996,-2.5673,-2.5429,-2.4849,-2.4981,-2.5241,-2.5241,-2.5382,-2.5535,-2.5535,-2.5758,-2.584,-2.5828,-2.5828,-2.5758,-2.5382,-2.5312,-2.5312,-2.5312,-2.5312,-2.5182,-2.4861,-2.4743,-2.4155,-2.2833,-2.0997,-1.9846,-1.977,-1.9044,-1.8824,-1.9236,-1.9291,-1.9509,-1.9998,-2.0009,-2.0172,-2.0514,-2.0436,-2.0604,-2.0913,-2.0832,-2.0571,-2.838,-2.9588,-3.0754,-3.1932,-3.3002,-3.4336,-3.6468,-3.7047,-3.7461,-3.8697,-4.027,-4.151,-4.1593,-4.2414,-4.299,0.0,-4.2796,-4.2678,-4.2162,-4.2266,-4.2126,-4.1499,-4.1348,-4.0984,-4.032,-4.0188,-4.0188,-4.0238,-4.0288,-4.0661,-4.1376,-4.1512,-4.1886,-4.2689,-4.2039,-4.1646,-4.1696,-4.1057,-4.0237,-3.9332,-3.9489,-3.8995,-3.7854,-3.7927,-3.7786,-3.748,-3.748,-3.748,-3.748,-3.748,-3.748,-3.7405,-3.6646,-3.6258,-3.5928,-3.407,-3.3058,-3.2704,-3.2574,-3.2372,-3.2182,-3.2182,-3.2109,-3.2036,-3.2036,-3.1616,-3.1043,-3.0698,-2.9781,-2.8625,-2.7787,-2.722,-2.6744,-2.622,-2.622,-2.6277,-2.6277,-2.6483,-2.6676,-2.6676,-2.6688,-2.6769,-2.7082,-2.6892,-2.6564,-2.6252,-2.5873,-2.5618,-2.5453,-2.5453,-2.5394,-2.5123,-2.4849,-2.4153,-2.3071,-2.1786,-2.0796,-2.0324,-1.9726,-1.9528,-1.9726,-1.9802,-1.9868,-2.0085,-2.0424,-2.0664,-2.0793,-2.0939,-2.1237,-2.1618,-2.132,-2.1261,-2.9063,-3.08,-3.2634,-3.3485,-3.5201,-3.6854,-3.7517,-3.8362,-3.9111,-3.9553,-4.1016,-4.2202,-4.2165,-4.2922,-4.3489,-4.3291,-4.3379,-4.332,-4.2754,-4.2941,-4.2811,-4.2021,-4.2103,-4.1877,-4.1065,-4.0819,-4.0597,-4.0534,-4.0534,-4.0774,-4.1338,-4.1593,-4.2003,-4.2635,-4.212,-4.1845,-4.1845,-4.1202,-4.0566,-3.9868,-3.9952,-3.9473,-3.8518,-3.8407,-3.7985,-3.748,-3.748,-3.748,-3.748,-3.748,-3.748,-3.748,-3.6907,-3.6723,-3.6523,-3.489,-3.3811,-3.303,-3.2704,-3.2372,-3.2182,-3.2182,-3.2182,-3.2182,-3.2182,-3.2182,-3.2087,-3.1653,-3.111,-3.0375,-2.9249,-2.8516,-2.784,-2.7146,-2.6973,-2.6973,-2.6973,-2.7284,-2.7537,-2.7537,-2.7537,-2.767,-2.8051,-2.7802,-2.7537,-2.7391,-2.6744,-2.6164,-2.5758,-2.5606,-2.5535,-2.5312,-2.4831,-2.4226,-2.3585,-2.2666,-2.1884,-2.1203,-2.0732,-2.0477,-2.0477,-2.0477,-2.0477,-2.0477,-2.0893,-2.1123,-2.1265,-2.1474,-2.1815,-2.2247,-2.1965,-2.1999,-2.9531,-3.1237,-3.3457,-3.4267,-3.6463,-3.8622,-3.9431,-4.0193,-4.0881,-4.1405,-4.1473,-4.1565,-4.2027,-4.2704,-4.2965,-4.2276,-4.319,-4.3777,-4.3159,-4.3087,-4.3087,-4.3051,-4.2716,-4.2444,0.0,-4.1552,-4.0926,-4.0517,-4.0648,-4.0714,-4.0731,-4.1547,-4.1992,-4.2026,-4.2009,-4.1992,-4.1992,-4.125,-4.0614,-4.0003,-4.0003,-3.9697,-3.9152,-3.8574,-3.7985,-3.748,-3.748,-3.748,-3.748,-3.748,-3.748,-3.748,-3.6907,-3.6723,-3.6585,-3.5879,-3.4927,-3.3822,-3.2646,-3.2182,-3.2182,-3.2182,-3.2182,-3.2182,-3.2182,-3.2182,-3.2182,-3.2155,-3.1721,-3.0983,-2.9887,-2.9138,-2.8407,-2.7237,-2.6973,-2.6973,-2.6973,-2.7351,-2.767,-2.767,-2.8117,-2.8492,-2.8492,-2.8492,-2.8427,-2.8427,-2.7855,-2.7082,-2.6037,-2.5688,-2.5535,-2.5312,-2.4831,-2.4518,-2.4426,-2.3349,-2.265,-2.2639,-2.1954,-2.1549,-2.1549,-2.1549,-2.1549,-2.1549,-2.1559,-2.18,-2.2269,-2.2291,-2.2531,-2.2979,-2.2979,-2.2841,-3.1583,-3.3485,-3.5428,-3.6858,-3.8338,-3.9621,-4.0391,-4.0752,-4.0768,-4.0191,-4.0396,-4.069,-4.0775,-4.1216,-4.1882,-4.2686,-4.3114,-4.3416,-4.3652,-4.3777,-4.366,-4.323,-4.3336,0.0,0.0,0.0,0.0,-4.1311,-4.1105,-4.0953,-4.0953,-4.1224,-4.1652,-4.2137,-4.167,-4.17,-4.2233,-4.1457,-4.0965,-4.0802,-4.0351,-3.9834,-3.9279,-3.8613,-3.7985,-3.748,-3.748,-3.748,-3.748,-3.748,-3.748,-3.748,-3.7285,-3.7225,-3.715,-3.6275,-3.5548,-3.478,-3.3659,-3.2789,-3.2182,-3.2182,-3.2182,-3.2182,-3.2182,-3.2182,-3.2182,-3.2182,-3.1762,-3.1081,-3.0346,-2.9658,-2.904,-2.8265,-2.8235,-2.8365,-2.8365,-2.8881,-2.9324,-2.9324,-2.9233,-2.9345,-2.9794,-2.9532,-2.9093,-2.8556,-2.7802,-2.7027,-2.6188,-2.5828,-2.5535,-2.5535,-2.5226,-2.4903,-2.4554,-2.3745,-2.3098,-2.2696,-2.1998,-2.1592,-2.1592,-2.1592,-2.1592,-2.1592,-2.1909,-2.2149,-2.2313,-2.2619,-2.2848,-2.3001,-2.2852,-2.295,-3.3653,-3.5558,-3.7231,-3.8708,-3.9707,-4.0446,-4.0929,-4.0788,-4.0344,-3.9557,-3.9226,-3.9084,-3.9259,-3.9421,-4.0174,-4.2096,-4.25,-4.2959,-4.4039,-4.4226,-4.4085,-4.3642,-4.3828,-4.3763,0.0,0.0,0.0,-4.1796,-4.1363,-4.1123,-4.1123,-4.1383,-4.1764,-4.225,-4.1799,-4.1811,-4.2392,-4.1551,-4.1152,-4.1192,-4.0737,-4.0186,-3.9525,-3.9032,-3.8407,-3.7626,-3.7626,-3.7583,-3.748,-3.748,-3.748,-3.748,-3.748,-3.748,-3.7405,-3.6707,-3.6009,-3.5255,-3.4245,-3.3255,-3.2372,-3.2372,-3.2314,-3.2182,-3.2182,-3.2182,-3.2182,-3.2182,-3.1897,-3.1477,-3.088,-3.0418,-2.9984,-2.9299,-2.9288,-2.9425,-2.9267,-2.9741,-3.0183,-3.0397,-3.0349,-3.0397,-3.0855,-3.0409,-2.9747,-2.9016,-2.8454,-2.7617,-2.6339,-2.598,-2.5758,-2.5606,-2.5465,-2.525,-2.4831,-2.412,-2.3569,-2.3247,-2.251,-2.2095,-2.2095,-2.2095,-2.2095,-2.2095,-2.24,-2.2564,-2.2564,-2.2859,-2.3001,-2.3001,-2.3026,-2.3275,-3.5611,-3.7326,-3.8804,-3.9726,-4.0545,-4.1086,-4.1041,-4.0398,-3.9721,-3.9455,-3.7976,-3.6907,-3.7487,-3.7394,-3.8052,-4.0518,-4.1468,-4.2519,-4.4243,-4.4401,-4.4333,0.0,-4.43,-4.4209,0.0,0.0,0.0,-4.2199,0.0,-4.1272,-4.1307,-4.2039,-4.2392,-4.2392,-4.2392,-4.2375,-4.234,-4.1574,-4.1209,-4.1209,-4.1209,-4.0707,-3.9834,-3.9783,-3.9086,-3.7886,-3.7886,-3.7727,-3.748,-3.748,-3.748,-3.748,-3.748,-3.748,-3.748,-3.727,-3.6477,-3.5335,-3.4432,-3.3492,-3.2704,-3.2704,-3.2503,-3.2241,-3.2182,-3.2182,-3.2182,-3.2182,-3.2182,-3.2046,-3.145,-3.1287,-3.1128,-3.0262,-3.0024,-2.9975,-2.9764,-2.9936,-3.034,-3.094,-3.1305,-3.1555,-3.1526,-3.1032,-3.0416,-2.9685,-2.9623,-2.8776,-2.6521,-2.627,-2.6119,-2.5688,-2.5606,-2.5535,-2.5312,-2.4611,-2.42,-2.42,-2.3446,-2.3001,-2.3001,-2.3001,-2.3001,-2.3001,-2.3001,-2.3001,-2.3001,-2.3001,-2.3086,-2.3119,-2.359,-2.4061,-3.7223,-3.8698,-3.9743,-4.0586,-4.0955,-4.0931,-4.034,-3.9998,-3.9213,-3.7196,-3.6315,-3.5706,-3.5076,-3.5757,-3.7196,-3.9576,-4.1092,-4.2546,-4.4186,-4.4401,-4.4597,-4.5196,-4.5212,-4.5394,-4.5973,-4.5638,0.0,0.0,-4.3086,-4.2172,-4.267,-4.2577,-4.2533,-4.2533,-4.2533,-4.23,-4.1813,-4.1603,-4.1498,-4.1498,-4.1408,-4.0866,-3.9952,-3.9834,-3.9086,-3.7886,-3.7886,-3.7727,-3.748,-3.748,-3.748,-3.748,-3.748,-3.748,-3.748,-3.7464,-3.6968,-3.6258,-3.5642,-3.4447,-3.3129,-3.2775,-3.2632,-3.2503,-3.2241,-3.2182,-3.2182,-3.2182,-3.2182,-3.2046,-3.145,-3.1484,-3.1488,-3.0853,-3.0709,-3.0843,-3.1297,-3.1252,-3.1358,-3.1994,-3.2202,-3.2106,-3.1613,-3.138,-3.0859,-2.9755,-2.9623,-2.903,-2.7351,-2.704,-2.6714,-2.6119,-2.5758,-2.5606,-2.5535,-2.4981,-2.4646,-2.4646,-2.3897,-2.3446,-2.3446,-2.315,-2.3001,-2.3001,-2.3001,-2.315,-2.3446,-2.3446,-2.3794,-2.4528,-2.4578,-2.4955,-3.8606,-3.9763,-4.0547,-4.0994,-4.0835,-4.034,-3.9471,-3.8681,-3.7476,-3.5171,-3.434,-3.3699,-3.2651,-3.3922,-3.5799,-3.7821,-4.0037,-4.2074,-4.378,-4.4243,-4.474,-4.5565,-4.557,-4.5877,-4.67,-4.6536,-4.6387,0.0,-4.4427,-4.3489,-4.396,-4.3872,-4.3698,-4.3364,-4.3364,-4.2773,-4.1604,-4.1604,-4.1604,-4.1604,-4.1515,-4.1117,-4.0417,-4.0203,-3.9508,-3.8518,0.0,-3.8132,-3.7876,-3.7876,-3.7817,-3.7685,-3.7685,-3.7583,-3.748,-3.748,-3.7165,-3.6662,-3.6383,-3.5335,-3.4016,-3.3409,-3.3058,-3.2917,-3.2717,-3.266,-3.266,-3.266,-3.266,-3.2577,-3.2246,-3.2347,-3.2319,-3.1923,-3.1834,-3.1933,-3.2163,-3.2095,-3.215,-3.2803,-3.2933,-3.273,-3.2063,-3.1714,-3.117,-3.0168,-3.0068,-2.9685,-2.8583,-2.7802,-2.7162,-2.6714,-2.6094,-2.5688,-2.5606,-2.5135,-2.479,-2.479,-2.42,-2.3897,-2.3897,-2.3677,-2.353,-2.353,-2.353,-2.3666,-2.3897,-2.3897,-2.4232,-2.5033,-2.5176,-2.5693,-3.9804,-4.0564,-4.111,-4.1101,-4.0494,-3.9613,-3.8573,-3.7024,-3.5284,-3.3346,-3.2244,-3.1372,-3.049,-3.2102,-3.4197,-3.6121,-3.881,-4.1337,-4.3347,-4.4127,-4.4815,-4.5604,-4.5752,-4.6135,-4.6997,-4.7154,-4.7161,-4.7043,-4.5732,-4.5018,-4.5093,-4.5168,-4.4875,-4.4192,-4.4068,-4.3226,-4.1666,-4.1604,-4.1604,-4.1604,-4.1604,-4.1408,-4.0977,-4.0611,-4.0036,-3.9385,0.0,0.0,-3.8391,-3.8391,-3.8205,-3.7943,-3.7943,-3.7786,-3.7524,-3.7524,-3.7225,-3.6785,-3.6723,-3.6148,-3.5219,-3.4235,-3.3687,-3.3339,-3.3339,-3.3269,-3.3269,-3.3269,-3.3269,-3.3269,-3.3269,-3.3339,-3.3282,-3.3086,-3.2968,-3.293,-3.2796,-3.2774,-3.2933,-3.3485,-3.3594,-3.3318,-3.2614,-3.1961,-3.1308,-3.0729,-3.0628,-3.0387,-2.9808,-2.8583,-2.767,-2.7417,-2.6633,-2.6025,-2.5804,-2.5265,-2.4933,-2.4861,-2.449,-2.4273,-2.4273,-2.42,-2.42,-2.42,-2.42,-2.42,-2.4273,-2.4273,-2.4634,-2.535,-2.5803,-2.6469,-4.0679,-4.0991,-4.1107,-4.1101,-4.0494,-3.9476,-3.7792,-3.613,-3.4207,-3.1665,-3.0412,-2.9703,-2.9467,-3.0758,-3.3004,-3.6558,-3.8682,-4.0935,-4.3904,-4.4421,-4.4815,-4.5604,-4.6307,-4.7076,-4.7883,-4.8515,0.0,0.0,0.0,-4.647,-4.5623,-4.4614,-4.3924,-4.3558,-4.2746,-4.2157,-4.1849,-4.1675,-4.1604,-4.1604,-4.1604,-4.1408,-4.0977,-4.0611,-4.0036,-3.9385,-3.899,0.0,-3.8391,-3.8391,-3.8391,-3.8335,-3.8335,-3.8148,-3.7828,-3.7828,-3.7626,-3.7285,-3.6846,-3.66,-3.6196,-3.4861,-3.4153,-3.3632,-3.3409,-3.3269,-3.3269,-3.3269,-3.3269,-3.3269,-3.3269,-3.3479,-3.3673,-3.3628,-3.3499,-3.3506,-3.3993,-3.408,-3.4109,-3.4225,-3.3937,-3.3433,-3.2791,-3.2149,-3.1506,-3.0864,-3.0702,-3.0568,-3.0447,-2.9747,-2.8967,-2.8363,-2.7723,-2.7204,-2.6731,-2.6208,-2.5734,-2.5241,-2.4921,-2.4718,-2.4718,-2.4345,-2.42,-2.42,-2.42,-2.4345,-2.4718,-2.4718,-2.5624,-2.7361,-2.7373,-2.7797,-4.0865,-4.1099,-4.1099,-4.1094,-4.0157,-3.8746,-3.6941,-3.4885,-3.2591,-2.9899,-2.8987,-2.8383,-2.7453,-2.9589,-3.2114,-3.399,-3.6293,-3.8965,-4.2259,-4.2641,-4.3351,-4.5453,-4.6073,-4.6824,-4.8082,-4.8521,-4.8715,-4.8715,0.0,-4.6947,-4.6544,-4.479,-4.3742,-4.3614,-4.2638,-4.2103,-4.2103,-4.1892,-4.1762,-4.1762,-4.1648,-4.1515,-4.1318,-4.0659,-4.0203,-3.9902,-3.9329,0.0,-3.8892,-3.8892,-3.8782,-3.86,-3.86,-3.8303,-3.7886,-3.7886,-3.7743,-3.748,-3.7225,-3.6907,-3.6585,-3.5913,-3.5139,-3.4505,-3.4356,-3.4099,-3.3839,-3.3839,-3.3839,-3.3839,-3.3839,-3.3991,-3.4128,-3.4128,-3.4047,-3.4051,-3.4356,-3.4481,-3.4549,-3.4414,-3.401,-3.3484,-3.2727,-3.2086,-3.1431,-3.0789,-3.0642,-3.0568,-3.0568,-3.0312,-2.9808,-2.8931,-2.813,-2.7537,-2.7069,-2.6552,-2.6094,-2.5804,-2.5324,-2.5052,-2.5052,-2.5182,-2.5099,-2.4754,-2.5111,-2.5324,-2.5548,-2.5814,-2.6697,-2.8217,-2.8508,-2.9013,-4.0639,-4.0952,-4.1108,-4.1108,-3.9702,-3.79,-3.6265,-3.3639,-3.0896,-2.8586,-2.7809,-2.7259,-2.6241,-2.8665,-3.1094,-3.1917,-3.4219,-3.7109,-4.0593,-4.1089,-4.2201,-4.5097,-4.5604,-4.6223,-4.7537,-4.7819,0.0,-4.7932,0.0,0.0,-4.6611,-4.4744,-4.3686,-4.3686,-4.2853,-4.2369,-4.2369,-4.2103,-4.1977,-4.1959,-4.1823,-4.1736,-4.1631,-4.0943,-4.0563,-4.0351,-3.9713,0.0,0.0,-3.9272,-3.9148,-3.8914,-3.8914,-3.8567,-3.8116,-3.8116,-3.7902,-3.77,-3.77,-3.7389,-3.6952,-3.6952,-3.6243,-3.5365,-3.5365,-3.5052,-3.4721,-3.4601,-3.4534,-3.4534,-3.4414,-3.4414,-3.4414,-3.4414,-3.4414,-3.4414,-3.4414,-3.4563,-3.4631,-3.4481,-3.3974,-3.3337,-3.2727,-3.1907,-3.1209,-3.0715,-3.0642,-3.0568,-3.0568,-3.0568,-3.0266,-2.9415,-2.861,-2.7934,-2.7497,-2.6905,-2.6427,-2.6233,-2.5734,-2.5453,-2.5312,-2.5873,-2.5943,-2.5523,-2.6082,-2.6358,-2.6358,-2.6884,-2.7721,-2.8808,-2.9447,-3.0002,-3.9897,-4.0503,-4.1108,-4.1108,-3.9234,-3.7159,-3.6129,-3.2708,-2.9435,-2.8333,-2.6903,-2.6255,-2.7608,-2.8125,-2.9545,-3.3262,-3.4659,-3.6629,-4.0454,-4.1657,-4.2775,-4.443,-4.5266,-4.5754,-4.5904,-4.6655,-4.7124,-4.7124,0.0,0.0,-4.4451,-4.3729,-4.3341,-4.3341,-4.2842,-4.257,-4.257,-4.2369,-4.2287,-4.2287,-4.2246,-4.2103,-4.1831,-4.1463,-4.099,-4.04,-4.002,0.0,0.0,-3.9272,-3.9272,-3.9272,-3.9272,-3.904,-3.875,-3.875,-3.8544,-3.8351,-3.8351,-3.8091,-3.777,-3.777,-3.689,-3.5849,-3.5849,-3.5785,-3.5657,-3.5234,-3.5103,-3.5037,-3.4534,-3.4414,-3.4414,-3.4414,-3.4414,-3.4414,-3.4414,-3.4563,-3.4698,-3.4698,-3.3818,-3.3015,-3.2956,-3.1789,-3.0835,-3.0776,-3.0702,-3.0568,-3.0568,-3.0568,-3.0462,-3.005,-2.9665,-2.9071,-2.8287,-2.7829,-2.7242,-2.6233,-2.6164,-2.5873,-2.5312,-2.5873,-2.6151,-2.6082,-2.6633,-2.6905,-2.6905,-2.7536,-2.8381,-2.9487,-3.0138,-3.0838,-3.9511,-4.0408,-4.0916,-4.0442,-3.8779,-3.6874,-3.5437,-3.2206,-2.9235,-2.8288,-2.7174,-2.6592,-2.7252,-2.8177,-2.9544,-3.1699,-3.2199,-3.357,-3.7127,-3.8286,-3.9658,-4.2176,-4.363,-4.4768,0.0,0.0,-4.6223,0.0,0.0,0.0,-4.4354,-4.3679,-4.3303,-4.3303,-4.2957,-4.2786,-4.2786,-4.2591,-4.249,-4.249,-4.2369,-4.2246,-4.2145,-4.177,-4.1428,-4.1139,-4.04,0.0,0.0,-3.9468,-3.9272,-3.9272,-3.9272,-3.9094,-3.8805,-3.8805,-3.8655,-3.8391,-3.8391,-3.8335,-3.8205,-3.8205,-3.7828,-3.7282,-3.6569,-3.618,-3.5849,-3.5657,-3.5608,-3.5544,-3.535,-3.5103,-3.4787,-3.4481,-3.4481,-3.4563,-3.4563,-3.4831,-3.4964,-3.4765,-3.3853,-3.3081,-3.2767,-3.1623,-3.0762,-3.0702,-3.0642,-3.0568,-3.0568,-3.0568,-3.0462,-3.0111,-2.9803,-2.9352,-2.883,-2.817,-2.7643,-2.7175,-2.6837,-2.6552,-2.6346,-2.6824,-2.704,-2.6701,-2.7242,-2.751,-2.751,-2.8085,-2.9074,-3.0378,-3.0975,-3.1758,-3.8263,-3.9477,-4.0145,-3.9579,-3.7951,-3.6138,-3.4886,-3.1768,-2.9005,-2.8579,-2.7641,-2.7039,-2.7544,-2.8605,-2.9686,-3.054,-3.0759,-3.1988,-3.529,-3.6383,-3.8029,-4.1197,-4.2626,-4.379,0.0,-4.5247,-4.5359,0.0,0.0,0.0,0.0,-4.3873,-4.3511,-4.3408,-4.3087,-4.2882,-4.2882,-4.2747,-4.267,-4.267,-4.2552,-4.245,-4.2369,-4.2127,-4.1881,-4.1648,0.0,0.0,0.0,-3.9609,-3.9379,-3.9342,-3.9325,-3.9164,-3.8969,-3.8969,-3.8821,-3.8672,-3.8672,-3.8616,-3.8504,-3.8504,-3.8448,-3.8278,-3.7449,-3.6937,-3.66,-3.6461,-3.6259,-3.615,-3.6087,-3.5657,-3.5219,-3.4787,-3.4683,-3.4698,-3.475,-3.5016,-3.5148,-3.4898,-3.413,-3.3303,-3.2718,-3.1722,-3.0921,-3.0657,-3.0568,-3.0568,-3.0568,-3.0568,-3.0462,-3.0111,-2.9803,-2.9477,-2.9099,-2.8444,-2.7987,-2.7776,-2.7443,-2.7175,-2.704,-2.751,-2.7643,-2.7242,-2.7776,-2.8052,-2.8052,-2.8933,-2.9862,-3.0922,-3.1833,-3.2654,-3.5795,-3.7292,-3.8609,-3.8609,-3.6648,-3.4698,-3.4618,-3.13,-2.844,-2.9221,-2.8068,-2.7408,-2.9078,-2.9387,-2.9656,-3.0474,-3.1321,-3.2995,-3.6133,-3.7339,-3.9077,-4.2298,-4.2699,-4.2967,-4.3567,-4.4158,0.0,0.0,0.0,0.0,0.0,-4.4229,-4.3968,-4.3712,-4.316,-4.2882,-4.2882,-4.29,-4.29,-4.29,-4.2882,-4.2786,-4.2609,-4.2609,-4.2251,0.0,0.0,0.0,0.0,-3.9729,-3.9501,-3.9484,-3.9325,-3.9272,-3.9272,-3.9272,-3.9272,-3.9272,-3.9272,-3.9094,-3.8805,-3.8805,-3.86,-3.8391,-3.8408,-3.8391,-3.8262,-3.7722,-3.7203,-3.6722,-3.643,-3.6009,-3.5563,-3.5385,-3.5052,-3.4765,-3.4868,-3.5082,-3.5213,-3.5228,-3.4549,-3.3741,-3.314,-3.2182,-3.1293,-3.0669,-3.0568,-3.0568,-3.0568,-3.0568,-3.0462,-3.0111,-2.9803,-2.9477,-2.9099,-2.878,-2.8392,-2.7842,-2.7776,-2.7577,-2.704,-2.751,-2.7776,-2.7776,-2.8327,-2.8587,-2.86,-3.0102,-3.0894,-3.0936,-3.2555,-3.3479,-3.3913,-3.4958,-3.5515,-3.4374,-3.3476,-3.2558,-3.1387,-2.9569,-2.8197,-2.8456,-2.8087,-2.8068,-2.9195,-2.9887,-3.0754,-3.221,-3.2687,-3.3613,-3.5756,-3.7788,-3.9586,-4.1027,-4.2947,-4.4166,0.0,0.0,0.0,0.0,0.0,0.0,0.0,-4.4248,-4.3968,-4.3712,-4.3373,-4.3105,-4.2882,-4.2882,-4.2882,-4.2882,-4.2882,-4.2862,-4.2824,-4.2824,0.0,0.0,0.0,0.0,0.0,-4.0351,-3.9901,-3.9625,-3.9573,-3.9573,-3.9573,-3.9484,-3.9448,-3.9432,-3.9325,-3.9218,-3.9148,-3.9148,-3.9094,-3.9002,-3.9002,-3.8727,-3.8335,-3.8189,-3.8001,-3.7812,-3.7354,-3.71,-3.6737,-3.5961,-3.5737,-3.5638,-3.5198,-3.5294,-3.5359,-3.5213,-3.4743,-3.4025,-3.3059,-3.232,-3.1538,-3.0729,-3.0568,-3.0568,-3.0568,-3.0568,-3.0582,-3.0462,-3.0158,-2.9741,-2.9162,-2.878,-2.8522,-2.8392,-2.8327,-2.8249,-2.8118,-2.8249,-2.8327,-2.8327,-2.9149,-2.9549,-2.9549,-3.0262,-3.1007,-3.1669,-3.3321,-3.4128,-3.1547,-3.2474,-3.2843,-3.1816,-3.1306,-3.0776,-2.973,-2.854,-2.7738,-2.8042,-2.81,-2.8372,-2.9233,-3.0108,-3.1059,-3.214,-3.2567,-3.3472,-3.5482,-3.7696,-3.9708,-4.1287,-4.3254,0.0,0.0,0.0,0.0,0.0,0.0,0.0,0.0,-4.443,-4.421,-4.3949,-4.3526,-4.316,-4.2882,-4.2882,-4.2882,-4.2882,-4.2882,-4.2882,-4.2882,-4.2882,0.0,0.0,0.0,0.0,0.0,-4.0814,-4.0302,-4.0003,-3.9764,-3.9677,-3.9677,-3.9537,-3.9501,-3.9501,-3.9325,-3.9272,-3.9272,-3.9272,-3.9272,-3.9272,-3.9272,-3.9056,-3.8727,-3.8727,-3.8727,-3.8655,-3.8197,-3.7895,-3.7589,-3.6829,-3.643,-3.6085,-3.5703,-3.5539,-3.5439,-3.5359,-3.5016,-3.446,-3.349,-3.2765,-3.2041,-3.1154,-3.0788,-3.0568,-3.0568,-3.0568,-3.0582,-3.0401,-3.0233,-2.9865,-2.9352,-2.9099,-2.8908,-2.878,-2.878,-2.878,-2.878,-2.8651,-2.8825,-2.9288,-2.9776,-3.0197,-3.0578,-3.1143,-3.1923,-3.291,-3.3902,-3.4414,0.0,-2.9854,-3.0516,-3.0457,-2.9874,-2.9308,-2.9249,-2.8021,0.0,-2.7848,-2.8061,-2.8392,-2.9331,-3.0146,-3.078,-3.1018,-3.1697,-3.3067,-3.564,-3.7531,-3.9801,0.0,-4.371,0.0,-4.3719,0.0,0.0,0.0,0.0,0.0,0.0,-4.477,-4.4595,-4.4289,-4.3675,-4.3196,-4.292,-4.292,-4.2882,-4.2882,-4.2882,-4.2882,-4.2882,-4.2882,0.0,0.0,0.0,0.0,0.0,-4.1122,-4.0672,-4.0546,-4.0003,-3.9781,-3.9729,-3.959,-3.9501,-3.9501,-3.9379,-3.9325,-3.9272,-3.9272,-3.9272,-3.9272,-3.9272,-3.9272,-3.9272,-3.9272,-3.9272,-3.9218,-3.8914,-3.8495,-3.8124,-3.7985,-3.7087,-3.6383,-3.6368,-3.5973,-3.5569,-3.5504,-3.5359,-3.5005,-3.4307,-3.3446,-3.2625,-3.1951,-3.111,-3.0628,-3.0628,-3.0628,-3.0462,-3.0172,-3.0111,-2.9988,-2.9679,-2.9602,-2.9415,-2.9162,-2.9099,-2.9099,-2.9099,-2.8844,-2.9247,-3.0459,-3.0299,-3.0699,-3.1646,-3.2601,-3.3537,-3.4356,-3.4385,-3.4414,-2.6409,0.0,-2.7651,-2.699,-2.7179,-2.7348,0.0,-2.6714,-2.6941,-2.7136,-2.768,-2.8566,-3.0108,-3.0554,-3.1564,-3.4179,-3.4761,-3.5791,-3.8384,-4.0751,0.0,-4.4781,-4.5033,-4.4957,-4.477,0.0,0.0,0.0,0.0,0.0,0.0,-4.487,-4.4681,-4.4318,-4.3943,-4.3575,-4.3196,-4.2995,-4.2882,-4.2882,-4.2882,-4.2882,-4.2882,-4.2882,0.0,0.0,0.0,0.0,-4.2157,-4.1931,-4.141,-4.0754,-4.0611,-4.0336,-3.9986,-3.9849,-3.9746,-3.9625,-3.9484,-3.9395,-3.9272,-3.9272,-3.9272,-3.9272,-3.9272,-3.9272,-3.9272,-3.9272,-3.9272,-3.9272,-3.9218,-3.9094,-3.8898,-3.8367,-3.7994,-3.7531,-3.66,-3.6321,-3.6022,-3.5554,-3.5439,-3.515,-3.4322,-3.3621,-3.2921,-3.2105,-3.1276,-3.0762,-3.0762,-3.0642,-3.0582,-3.0522,-3.0462,-3.0462,-3.0387,-2.9651,-2.9289,-2.9477,-2.9226,-2.9226,-2.9477,-2.9415,-2.9743,-3.0459,-3.1693,-3.2539,-3.3042,-3.3743,-3.3955,-3.3703,-3.4182,-3.4414,-2.5601,-2.6514,-2.7349,-2.6864,-2.7097,-2.733,-2.6844,-2.6514,-2.63,-2.63,-2.6961,-2.7951,-2.9272,-3.0166,-3.1564,-3.4225,-3.5294,-3.6975,-4.0364,-4.2313,-4.3957,-4.543,-4.5472,-4.5323,0.0,0.0,0.0,0.0,0.0,0.0,0.0,-4.5033,-4.4876,-4.4662,-4.4289,-4.3818,-4.3303,-4.3032,-4.2882,-4.2882,-4.2882,-4.2882,-4.2882,-4.2882,-4.2882,0.0,0.0,0.0,-4.2498,-4.2297,-4.1906,-4.141,-4.0972,-4.0611,-4.0402,-4.0037,-3.9833,-3.9781,-3.9642,-3.9537,-3.9468,-3.9468,-3.9468,-3.9468,-3.9379,-3.9379,-3.9379,-3.9325,-3.9272,-3.9272,-3.9272,-3.9272,-3.9202,-3.8843,-3.8535,-3.8108,-3.7413,-3.7071,-3.6784,-3.6445,-3.6075,-3.5615,-3.4863,-3.3879,-3.2946,-3.2106,-3.1336,-3.0762,-3.0702,-3.0642,-3.0568,-3.0568,-3.0568,-3.0568,-3.0568,-2.9974,-2.9665,-2.9803,-2.9665,-2.9791,-3.0247,-3.0073,-3.0559,-3.1659,-3.2973,-3.3758,-3.3891,-3.424,-3.424,-3.3906,-3.4254,-3.4414,-2.5757,-2.7116,-2.8392,-2.8003,-2.81,-2.8256,-2.812,-2.6993,-2.599,-2.599,-2.6669,-2.7563,-2.8508,-3.001,-3.17,-3.3584,0.0,0.0,-4.1839,-4.3081,-4.411,-4.5505,-4.5539,0.0,0.0,0.0,0.0,0.0,0.0,0.0,0.0,-4.5192,-4.5125,-4.5103,-4.461,-4.4065,-4.3442,-4.3142,-4.292,-4.2882,-4.2882,-4.2882,-4.2882,-4.2882,-4.2882,0.0,0.0,0.0,-4.2882,-4.2458,-4.2239,-4.2115,-4.1321,-4.0943,-4.0754,-4.0221,-3.9986,-3.9901,-3.9729,-3.9677,-3.9677,-3.9677,-3.9677,-3.9677,-3.9537,-3.9537,-3.9484,-3.9379,-3.9325,-3.9272,-3.9272,-3.9272,-3.9272,-3.9272,-3.8898,-3.8407,-3.8334,-3.7879,-3.7546,-3.7429,-3.6911,-3.6295,-3.5639,-3.4395,-3.3145,-3.2363,-3.1516,-3.0925,-3.0687,-3.0642,-3.0642,-3.0568,-3.0568,-3.0568,-3.0568,-3.0341,-3.0172,-3.0172,-3.0197,-3.0525,-3.1189,-3.1034,-3.1602,-3.303,-3.3946,-3.4414,-3.4414,-3.4414,-3.4414,-3.4414,-3.4414,-3.4414,-2.6495,-2.8456,-2.9777,-2.7621,-2.8146,-2.902,-2.8275,-2.7906,-2.7712,-2.7712,-2.8418,-2.9505,-3.1118,-3.2225,-3.3682,-3.6129,0.0,-4.084,0.0,0.0,-4.4855,-4.5832,0.0,0.0,0.0,0.0,0.0,0.0,0.0,0.0,0.0,-4.5275,-4.5213,-4.5103,-4.4789,-4.443,-4.3968,-4.3511,-4.3124,-4.2882,-4.2882,-4.2882,-4.2882,-4.2882,-4.2882,0.0,0.0,-4.2882,-4.2882,-4.2806,-4.2555,-4.2216,-4.2032,-4.1499,-4.0802,-4.0724,-4.0353,-3.9901,-3.9729,-3.9677,-3.9677,-3.9677,-3.9677,-3.9677,-3.9677,-3.9677,-3.9625,-3.9484,-3.9395,-3.9272,-3.9272,-3.9272,-3.9272,-3.9272,-3.9202,-3.8969,-3.8407,-3.8238,-3.7994,-3.7488,-3.7291,-3.7022,-3.6279,-3.5493,-3.4529,-3.3361,-3.2475,-3.1709,-3.1132,-3.0895,-3.0702,-3.0628,-3.0568,-3.0568,-3.0568,-3.0582,-3.0507,-3.0507,-3.0769,-3.1295,-3.2211,-3.2746,-3.3187,-3.339,-3.4095,-3.4414,-3.4414,-3.4414,-3.4414,-3.4414,-3.4414,-3.4414,-2.6087,-2.7718,-2.9136,-2.8437,-2.9894,-3.1409,-3.1001,-3.0185,-2.9505,-2.9505,-2.9816,-3.0496,-3.1778,-3.3079,-3.508,-3.8596,0.0,-4.2209,-4.3917,-4.4499,-4.5062,0.0,0.0,0.0,0.0,0.0,0.0,0.0,0.0,0.0,0.0,0.0,-4.5275,-4.5213,-4.5019,-4.4764,-4.443,-4.3962,-4.3511,-4.305,-4.305,-4.305,-4.3012,-4.3012,-4.2956,-4.2882,0.0,-4.2882,-4.2882,-4.2882,-4.2515,-4.1962,-4.2119,-4.1682,-4.0876,-4.0834,-4.0611,-4.0353,-4.002,-3.9935,-3.9935,-3.9935,-3.9935,-3.9884,-3.9833,-3.9798,-3.9798,-3.9642,-3.9537,-3.9379,-3.9325,-3.9272,-3.9272,-3.9272,-3.9272,-3.9218,-3.8898,-3.8843,-3.8788,-3.8495,-3.8075,-3.7462,-3.6444,-3.5684,-3.4749,-3.3365,-3.2733,-3.2145,-3.1495,-3.1219,-3.094,-3.0628,-3.0568,-3.0568,-3.0568,-3.0568,-3.0568,-3.0568,-3.104,-3.1628,-3.2498,-3.2803,-3.3282,-3.3964,-3.3935,-3.4066,-3.4414,-3.4414,-3.4414,-3.4414,-3.4414,-3.4414,-2.5854,-2.698,-2.8314,-2.9175,-3.0904,-3.2594,-3.339,-3.2244,-3.1176,-3.1778,-3.172,-3.1856,-3.273,-3.4264,0.0,-4.0305,-4.1801,-4.3044,-4.4579,-4.4967,0.0,0.0,0.0,0.0,0.0,0.0,0.0,0.0,0.0,0.0,0.0,0.0,-4.5297,-4.5297,-4.5192,-4.4995,-4.4624,-4.4318,-4.3886,-4.3339,-4.3232,-4.3178,-4.3123,-4.2941,-4.2795,-4.2685,-4.2449,-4.2376,-4.2376,-4.2339,-4.1977,-4.1451,-4.1725,-4.1475,-4.0935,-4.055,-4.0585,-4.0737,-4.0197,-4.0018,-4.007,-4.007,-4.007,-4.0054,-3.9784,-3.9699,-3.9615,-3.9328,-3.9175,-3.9104,-3.9348,-3.9379,-3.9379,-3.9379,-3.9379,-3.9325,-3.9325,-3.9325,-3.9272,-3.9272,-3.8692,-3.7791,-3.6636,-3.5798,-3.4826,-3.3482,-3.3055,-3.2749,-3.2074,-3.1694,-3.1321,-3.0911,-3.0687,-3.0568,-3.0568,-3.0568,-3.0568,-3.0568,-3.1177,-3.1816,-3.2498,-3.2513,-3.305,-3.4167,-3.3717,-3.379,-3.4414,-3.4414,-3.4414,-3.4414,-3.4481,-3.4481,-2.6592,-2.7446,-2.8314,-2.9175,-2.9544,-3.0515,-3.3682,-3.3118,-3.2574,-3.4944,-3.4789,-3.4497,-3.5371,-3.6945,-3.8732,-4.0597,-4.2306,-4.3724,-4.4676,0.0,0.0,0.0,0.0,0.0,0.0,0.0,0.0,0.0,0.0,0.0,0.0,0.0,0.0,-4.5297,-4.5297,-4.5019,-4.443,-4.4383,-4.4125,-4.366,-4.3356,-4.3214,-4.3178,-4.243,-4.2049,-4.203,-4.1213,-4.0851,-4.0851,-4.0727,-4.0655,-4.06,-4.0619,-4.0775,-4.0851,-3.9687,-3.9877,-4.0698,-3.9898,-3.9853,-4.007,-4.007,-4.007,-3.9952,-3.9276,-3.9073,-3.8871,-3.8098,-3.7864,-3.8118,-3.9326,-3.9677,-3.9677,-3.9677,-3.959,-3.9501,-3.9501,-3.9395,-3.9272,-3.9272,-3.8692,-3.798,-3.7167,-3.6423,-3.5482,-3.4198,-3.3984,-3.3713,-3.2986,-3.2281,-3.1777,-3.1637,-3.1029,-3.0568,-3.0568,-3.0568,-3.0568,-3.0568,-3.1177,-3.1816,-3.2498,-3.2513,-3.2846,-3.3514,-3.3485,-3.379,-3.4414,-3.4414,-3.4414,-3.4414,-3.4563,-3.4698,-2.6009,-2.7077,-2.8314,-2.9175,-2.9816,-3.0962,-3.3837,-3.4439,-3.4944,-3.6984,-3.7139,-3.7023,-3.7353,-3.7955,-3.8946,-4.0635,-4.1917,-4.318,0.0,0.0,0.0,0.0,0.0,0.0,0.0,0.0,0.0,0.0,0.0,0.0,0.0,0.0,0.0,-4.4494,-4.501,-4.5173,-4.4953,-4.4591,-4.4055,-4.3378,-4.3373,-4.3101,-4.2556,-4.2245,-4.1791,-4.1229,-4.0919,-4.0739,-4.0757,-4.0704,-4.0379,-3.9873,-3.9839,-4.0167,-4.0596,-3.9832,-3.9799,-4.012,-3.9714,-3.9375,-3.9204,-3.9866,-3.9462,-3.8768,-3.8937,-3.8684,-3.8261,-3.7925,-3.7793,-3.7997,-3.8807,-3.8673,-3.8572,-3.946,-3.9291,-3.9039,-3.9542,-3.9573,-3.9387,-3.8833,-3.8534,-3.7917,-3.6622,-3.6191,-3.5695,-3.4758,-3.4151,-3.3626,-3.3039,-3.2226,-3.1522,-3.1204,-3.0807,-3.0568,-3.0568,-3.0568,-3.0568,-3.0568,-3.08,-3.1221,-3.1874,-3.1526,-3.199,-3.3507,-3.3079,-3.3449,-3.4563,-3.4481,-3.4481,-3.4735,-3.4683,-3.475,-2.6009,-2.6844,-2.799,-2.9117,-2.9855,-3.1098,-3.4206,-3.5371,-3.6382,-3.8382,-3.8596,-3.8402,-3.8402,-3.8402,0.0,0.0,-4.1626,0.0,0.0,0.0,0.0,0.0,0.0,0.0,0.0,0.0,0.0,0.0,0.0,0.0,0.0,0.0,0.0,0.0,-4.4208,-4.4473,-4.435,-4.3926,-4.3386,-4.2651,-4.2804,-4.25,-4.1837,-4.158,-4.1107,-4.0492,-4.0185,-4.0075,-4.0075,-4.0042,-3.9698,-3.9158,-3.9075,-3.9512,-4.0111,-3.9535,-3.9508,-3.9743,-3.9413,-3.9016,-3.8787,-3.9534,-3.908,-3.8328,-3.8461,-3.8142,-3.7653,-3.7293,-3.7178,-3.7317,-3.7866,-3.7985,-3.822,-3.9261,-3.9244,-3.9076,-3.9344,-3.9394,-3.9125,-3.8304,-3.7903,-3.7386,-3.6273,-3.581,-3.5479,-3.4982,-3.4448,-3.3984,-3.363,-3.2664,-3.1709,-3.0999,-3.0821,-3.0762,-3.0762,-3.0702,-3.0702,-3.0762,-3.0642,-3.0771,-3.1206,-3.08,-3.1293,-3.2832,-3.2707,-3.3179,-3.4376,-3.4514,-3.4668,-3.4935,-3.4883,-3.4883,-2.6883,-2.6903,-2.731,-2.8981,-2.9428,-3.0574,-3.4828,-3.5818,-3.6556,-3.9179,-3.9023,-3.8402,-3.8402,-3.8402,0.0,-4.0616,-4.1626,0.0,0.0,0.0,0.0,0.0,0.0,0.0,0.0,0.0,0.0,0.0,0.0,0.0,0.0,0.0,0.0,0.0,-4.2794,-4.2654,-4.2318,-4.2295,-4.2033,-4.1486,-4.1486,-4.1342,-4.1075,-4.0267,-3.99,-3.9845,-3.8907,-3.851,-3.851,-3.8415,-3.8382,-3.8382,-3.8322,-3.8798,-3.9363,-3.8515,-3.887,-3.9661,-3.8877,-3.8797,-3.9098,-3.9098,-3.9098,-3.8856,-3.7759,-3.7404,-3.7162,-3.5943,-3.5622,-3.5791,-3.6569,-3.7872,-3.8971,-3.8988,-3.9446,-3.9665,-3.8958,-3.8707,-3.8372,-3.7602,-3.6769,-3.6204,-3.6204,-3.5476,-3.4899,-3.4899,-3.4899,-3.4899,-3.4899,-3.3783,-3.2516,-3.1234,-3.1087,-3.1087,-3.1087,-3.0895,-3.0895,-3.1087,-3.0762,-3.0568,-3.0568,-3.0568,-3.0872,-3.1511,-3.2382,-3.3089,-3.3703,-3.4479,-3.4935,-3.4935,-3.5082,-3.5213,-2.6145,-2.7291,-2.8787,-2.9272,-3.1681,-3.4245,-3.5507,-3.6265,-3.745,-4.0014,-3.9897,-3.9315,-3.9315,-3.9315,0.0,0.0,0.0,0.0,0.0,0.0,0.0,0.0,0.0,0.0,0.0,0.0,0.0,0.0,0.0,0.0,0.0,0.0,0.0,0.0,-4.2488,-4.2735,-4.2654,-4.2405,-4.185,-4.0929,-4.0747,-4.0522,-4.0249,-4.001,-3.9588,-3.9038,-3.875,-3.8658,-3.864,-3.8528,-3.8478,-3.8478,-3.8401,-3.85,-3.8634,-3.8365,-3.843,-3.8671,-3.8613,-3.8338,-3.8096,-3.8831,-3.838,-3.7597,-3.779,-3.7469,-3.6917,-3.6268,-3.6088,-3.6053,-3.5983,-3.6705,-3.7567,-3.8108,-3.7942,-3.7807,-3.8111,-3.8147,-3.7862,-3.7009,-3.6578,-3.6164,-3.5504,-3.5143,-3.4899,-3.4899,-3.4594,-3.4134,-3.363,-3.2879,-3.2185,-3.1679,-3.1336,-3.1087,-3.1087,-3.1073,-3.1014,-3.1087,-3.1014,-3.0955,-3.0955,-3.0821,-3.1333,-3.2555,-3.279,-3.3564,-3.4786,-3.4832,-3.5067,-3.5294,-3.5228,-3.5294,-2.7155,-2.8476,-3.0088,-3.0787,-3.3138,-3.5643,-3.7042,-3.7761,-3.8654,-4.0519,-4.0266,-3.98,-4.013,-3.9917,0.0,0.0,0.0,0.0,0.0,0.0,0.0,0.0,0.0,0.0,0.0,0.0,0.0,0.0,0.0,0.0,0.0,0.0,0.0,0.0,-4.1533,-4.182,-4.182,-4.1603,-4.1127,-4.0387,-4.0215,-3.9946,-3.9571,-3.9467,-3.9166,-3.8707,-3.8707,-3.8707,-3.8707,-3.8609,-3.859,-3.8559,-3.8478,-3.8433,-3.8387,-3.8354,-3.8307,-3.828,-3.842,-3.8151,-3.7882,-3.8516,-3.814,-3.7465,-3.7718,-3.7369,-3.6821,-3.6409,-3.6174,-3.5958,-3.565,-3.596,-3.6518,-3.728,-3.7347,-3.7263,-3.7432,-3.7449,-3.7229,-3.6359,-3.6131,-3.5857,-3.5375,-3.5152,-3.5041,-3.4994,-3.4643,-3.4068,-3.3198,-3.2772,-3.2336,-3.1807,-3.1452,-3.1249,-3.1249,-3.119,-3.119,-3.1249,-3.1146,-3.1146,-3.1249,-3.1014,-3.1322,-3.2222,-3.2564,-3.3277,-3.4456,-3.4629,-3.5026,-3.5504,-3.5359,-3.5359,-2.9078,-2.9972,-3.1118,-3.2866,-3.4012,-3.5585,-3.8848,-3.9587,-3.9839,-4.0713,-4.0325,-4.0033,-4.0771,-4.0305,-4.0053,0.0,0.0,0.0,0.0,0.0,0.0,0.0,0.0,0.0,0.0,0.0,0.0,0.0,0.0,0.0,0.0,0.0,0.0,-4.031,-4.031,-4.031,-4.031,-4.031,-4.0176,0.0,-3.9914,-3.9647,-3.9129,-3.8851,-3.8719,-3.8707,-3.8707,-3.8707,-3.8707,-3.8707,-3.8707,-3.8707,-3.8559,-3.851,-3.8491,-3.8415,-3.8368,-3.8307,-3.8307,-3.8274,-3.8225,-3.8225,-3.8225,-3.8122,-3.7667,-3.7246,-3.6878,-3.6409,-3.6002,-3.5667,-3.5622,-3.5622,-3.5791,-3.6502,-3.7195,-3.7516,-3.6823,-3.6671,-3.6468,-3.5757,-3.5566,-3.5492,-3.5492,-3.54,-3.5245,-3.5152,-3.4994,-3.4513,-3.3443,-3.3251,-3.2772,-3.1697,-3.1524,-3.1482,-3.1482,-3.1409,-3.1351,-3.1482,-3.1249,-3.1249,-3.1482,-3.1249,-3.1161,-3.1235,-3.1946,-3.2629,-3.3344,-3.4035,-3.4711,-3.5325,-3.5325,-3.5355,-2.8333,-2.9525,-3.1118,-3.2866,-3.4925,-3.6925,-3.8343,-3.8674,-3.9101,-4.0597,-4.0752,-4.0694,-4.0869,-4.0752,0.0,0.0,0.0,0.0,0.0,0.0,0.0,0.0,0.0,0.0,0.0,0.0,0.0,0.0,0.0,0.0,0.0,0.0,0.0,-4.031,-4.031,-4.031,-4.031,-4.031,-4.0176,0.0,-3.9914,-3.9739,-3.9383,-3.9156,-3.891,-3.8707,-3.8707,-3.8707,-3.8707,-3.8707,-3.8707,-3.8707,-3.8658,-3.859,-3.851,-3.8478,-3.8446,-3.8368,-3.8368,-3.8368,-3.8368,-3.8368,-3.8368,-3.8252,-3.7792,-3.7577,-3.7356,-3.6533,-3.6216,-3.6045,-3.5711,-3.5622,-3.5656,-3.5825,-3.5994,-3.6062,-3.591,-3.5876,-3.5825,-3.5656,-3.5566,-3.5492,-3.5492,-3.54,-3.5291,-3.5245,-3.5152,-3.4771,-3.4086,-3.3563,-3.2933,-3.2287,-3.1796,-3.1482,-3.1482,-3.1467,-3.1467,-3.1482,-3.1424,-3.1424,-3.1482,-3.1351,-3.153,-3.2184,-3.2393,-3.2781,-3.3438,-3.3634,-3.3784,-3.3933,-3.3933,-3.4203,-2.8398,-2.9991,-3.1933,-3.4478,-3.6129,-3.7333,-3.8188,-3.8402,-3.8654,-3.9509,-4.0033,-4.0441,-4.083,-4.0907,0.0,0.0,0.0,0.0,0.0,0.0,0.0,0.0,0.0,0.0,0.0,0.0,0.0,0.0,0.0,0.0,0.0,-4.0392,-4.0345,-4.031,-4.031,-4.031,-4.031,-4.031,-4.0234,-4.0098,-4.0098,-3.9935,-3.967,-3.9272,-3.895,-3.8707,-3.8707,-3.8707,-3.8707,-3.8707,-3.8707,-3.8707,-3.8707,-3.8658,-3.8609,-3.8609,-3.8528,-3.8446,-3.8446,-3.8415,-3.8382,-3.8382,-3.8382,-3.835,-3.8119,-3.7897,-3.7578,-3.686,-3.662,-3.6457,-3.5783,-3.5756,-3.5871,-3.5667,-3.5622,-3.5622,-3.5622,-3.5622,-3.5622,-3.5622,-3.5594,-3.5566,-3.5566,-3.5475,-3.5383,-3.5291,-3.5198,-3.4883,-3.4218,-3.385,-3.3335,-3.2508,-3.2135,-3.1796,-3.1524,-3.1482,-3.1482,-3.1482,-3.1482,-3.1482,-3.1482,-3.1409,-3.1573,-3.2033,-3.2048,-3.2362,-3.3021,-3.3021,-3.3185,-3.3499,-3.3499,-3.3679,-2.8165,-3.0341,-3.2749,-3.5877,-3.6751,-3.7061,-3.778,-3.7955,-3.7994,-3.813,-3.8868,-3.9684,-4.0344,0.0,0.0,0.0,0.0,0.0,0.0,0.0,0.0,0.0,0.0,0.0,0.0,0.0,0.0,0.0,0.0,0.0,-4.0648,-4.0485,-4.0375,-4.0328,-4.031,-4.031,-4.031,-4.031,-4.031,-4.031,-4.0253,-4.0118,-3.9892,-3.9401,-3.9017,-3.878,-3.8738,-3.8707,-3.8707,-3.8707,-3.8707,-3.8707,-3.8707,-3.8707,-3.8707,-3.8707,-3.8609,-3.8541,-3.8541,-3.8496,-3.8465,-3.8465,-3.8465,-3.8415,-3.835,-3.8083,-3.7703,-3.7173,-3.702,-3.6825,-3.6037,-3.6071,-3.6216,-3.5827,-3.5667,-3.5622,-3.5622,-3.5622,-3.5622,-3.5622,-3.5622,-3.5622,-3.5622,-3.5549,-3.5475,-3.5383,-3.5245,-3.4899,-3.4234,-3.4151,-3.3729,-3.2656,-3.2453,-3.2176,-3.1697,-3.1582,-3.1482,-3.1482,-3.1482,-3.1482,-3.1482,-3.1482,-3.1482,-3.1482,-3.1482,-3.1735,-3.2347,-3.2347,-3.2617,-3.3155,-3.3155,-3.3215,-2.6028,-2.9,-3.2458,-3.4361,-3.541,-3.6012,-3.6129,-3.6148,-3.6362,0.0,-3.7974,-3.8615,0.0,0.0,0.0,0.0,0.0,0.0,0.0,0.0,0.0,0.0,0.0,0.0,0.0,0.0,0.0,0.0,0.0,0.0,-4.0776,-4.0549,-4.0389,-4.0392,-4.0327,-4.031,-4.031,-4.031,-4.031,-4.031,-4.0058,-3.9935,-3.9892,-3.9599,-3.9298,-3.9017,-3.881,-3.8707,-3.8707,-3.8707,-3.8707,-3.8707,-3.8707,-3.8707,-3.8707,-3.8707,-3.8707,-3.8658,-3.8658,-3.8658,-3.8658,-3.8658,-3.8658,-3.8578,-3.8099,-3.7946,-3.7808,-3.7323,-3.7097,-3.6981,-3.6865,-3.6539,-3.6301,-3.6216,-3.5915,-3.5622,-3.5622,-3.5622,-3.5622,-3.5622,-3.5622,-3.5622,-3.5622,-3.5577,-3.5577,-3.5577,-3.5412,-3.5024,-3.4448,-3.4218,-3.3815,-3.3145,-3.2695,-3.2398,-3.2287,-3.1796,-3.1482,-3.1482,-3.1482,-3.1482,-3.1482,-3.1482,-3.1482,-3.1482,-3.1482,-3.1511,-3.1601,-3.1601,-3.1704,-3.1794,-3.1794,-3.2093,-2.6359,-2.9097,-3.1797,-3.3954,-3.4789,-3.5197,-3.5702,-3.5799,-3.5915,-3.6284,-3.6673,-3.7236,0.0,0.0,0.0,0.0,0.0,0.0,0.0,0.0,0.0,0.0,0.0,0.0,0.0,0.0,0.0,0.0,0.0,-4.0361,-4.0781,-4.0694,-4.0564,-4.0406,-4.0358,-4.0326,-4.031,-4.031,-4.031,-4.031,-4.0176,-4.0057,-3.9892,-3.9623,-3.935,-3.9101,-3.8979,-3.8851,-3.8707,-3.8707,-3.8707,-3.8707,-3.8707,-3.8707,-3.8707,-3.8707,-3.8707,-3.8707,-3.8707,-3.8707,-3.8707,-3.8707,-3.8707,-3.8676,-3.8415,-3.835,-3.8201,-3.747,-3.7414,-3.7395,-3.6539,-3.635,-3.6284,-3.6002,-3.5739,-3.5622,-3.5622,-3.5622,-3.5622,-3.5622,-3.5622,-3.5622,-3.5622,-3.5622,-3.5577,-3.5566,-3.5475,-3.5291,-3.4961,-3.4835,-3.4529,-3.3919,-3.3665,-3.3355,-3.2986,-3.2422,-3.2064,-3.2023,-3.1697,-3.1482,-3.1482,-3.1482,-3.1482,-3.1482,-3.1482,-3.1482,-3.1482,-3.1482,-3.1482,-3.1482,-3.1482,-3.1631,-2.6353,-2.8418,-3.0069,-3.2846,-3.3701,-3.4148,-3.5216,-3.5469,-3.5527,0.0,-3.5799,0.0,0.0,0.0,0.0,0.0,0.0,0.0,0.0,0.0,0.0,0.0,0.0,0.0,0.0,0.0,0.0,0.0,0.0,-3.9714,-4.0486,-4.0289,-4.0134,-4.0108,-3.9884,-3.984,-3.9966,-4.0196,-4.031,-4.031,-4.0234,-4.0118,-3.9996,-3.9647,-3.9401,-3.9192,-3.9045,-3.8862,-3.8707,-3.8707,-3.8707,-3.8707,-3.8707,-3.8707,-3.8707,-3.8707,-3.8707,-3.8707,-3.8707,-3.8707,-3.8707,-3.8707,-3.8707,-3.8707,-3.8707,-3.8707,-3.8546,-3.7843,-3.7826,-3.7756,-3.662,-3.6392,-3.635,-3.5898,-3.5756,-3.5622,-3.5622,-3.5622,-3.5622,-3.5622,-3.5622,-3.5622,-3.5622,-3.5622,-3.5577,-3.552,-3.5492,-3.5446,-3.5337,-3.5291,-3.5135,-3.4706,-3.448,-3.4219,-3.37,-3.3002,-3.2602,-3.2641,-3.1951,-3.1582,-3.1739,-3.1582,-3.1482,-3.1482,-3.1482,-3.1482,-3.1482,-3.1482,-3.1482,-3.1482,-3.1482,-3.1482,-2.4785,-2.5795,-2.6689,-3.0049,-3.1525,-3.2555,-3.4206,0.0,-3.4808,-3.5624,-3.5799,0.0,0.0,0.0,0.0,0.0,0.0,0.0,0.0,0.0,0.0,0.0,0.0,0.0,0.0,0.0,0.0,0.0,0.0,-3.8848,-3.9713,-3.8849,-3.8663,-3.9334,-3.8488,-3.8348,-3.9069,-3.989,-4.031,-4.031,-4.0038,-4.0057,-4.0253,-3.9758,-3.9483,-3.9433,-3.895,-3.8689,-3.8707,-3.8707,-3.8707,-3.8707,-3.8707,-3.8707,-3.8707,-3.8707,-3.8707,-3.8707,-3.8707,-3.8707,-3.8707,-3.8707,-3.8707,-3.8707,-3.8707,-3.8707,-3.8707,-3.8627,-3.8303,-3.7984,-3.7915,-3.7226,-3.6533,-3.6392,-3.6088,-3.5773,-3.5622,-3.5622,-3.5622,-3.5622,-3.5622,-3.5622,-3.5622,-3.5622,-3.5622,-3.5577,-3.552,-3.5492,-3.5492,-3.54,-3.5291,-3.5245,-3.4754,-3.4382,-3.4333,-3.3251,-3.2788,-3.3339,-3.2216,-3.1754,-3.2342,-3.1796,-3.1482,-3.1482,-3.1482,-3.1482,-3.1482,-3.1482,-3.1482,-3.1482,-3.1482,-3.1482,-2.36,-2.5154,-2.6844,-2.8592,-3.0108,-3.1467,-3.2633,-3.372,-3.4595,-3.4905,-3.541,0.0,0.0,0.0,0.0,0.0,0.0,0.0,0.0,0.0,0.0,0.0,0.0,0.0,0.0,0.0,0.0,0.0,0.0,0.0,-3.881,-3.851,-3.8403,-3.8593,-3.8234,-3.8059,-3.8151,-3.8476,-3.8629,-3.8629,-3.8537,-3.8442,-3.8364,-3.818,-3.7915,-3.7634,-3.7441,-3.7579,-3.7918,-3.7918,-3.7918,-3.7973,-3.8505,-3.8707,-3.8707,-3.8707,-3.8707,-3.8707,-3.8707,-3.8707,-3.8707,-3.8707,-3.8707,-3.8707,-3.8707,-3.8707,-3.8645,-3.8401,-3.8186,-3.8,-3.7632,-3.7097,-3.658,-3.6241,-3.6002,-3.5888,-3.5773,-3.5667,-3.5622,-3.5622,-3.5622,-3.5622,-3.5622,-3.5622,-3.5622,-3.5622,-3.5594,-3.5549,-3.5549,-3.5503,-3.5487,-3.5487,-3.5287,-3.4991,-3.4626,-3.4169,-3.3786,-3.3531,-3.3077,-3.2917,-3.3145,-3.2532,-3.2231,-3.2231,-3.1739,-3.1482,-3.1482,-3.1482,-3.1482,-3.1482,-3.1482,-3.1482,-2.2552,-2.4047,-2.5931,-2.7349,-2.8359,-2.9447,-3.1176,-3.2438,-3.3313,-3.3604,0.0,0.0,0.0,0.0,0.0,0.0,0.0,0.0,0.0,0.0,0.0,0.0,0.0,0.0,0.0,0.0,0.0,0.0,0.0,0.0,-3.7916,-3.7683,-3.7472,-3.7373,-3.7507,-3.7512,-3.7321,-3.7577,-3.7693,-3.7693,-3.7693,-3.7603,-3.7433,-3.7354,-3.7125,-3.6801,-3.6447,-3.6607,-3.7092,-3.7092,-3.7092,-3.7165,-3.7973,-3.8138,-3.7955,-3.8505,-3.8524,-3.834,-3.8615,-3.8707,-3.8707,-3.8707,-3.8707,-3.8707,-3.8707,-3.8707,-3.8627,-3.8368,-3.8201,-3.8016,-3.7667,-3.7117,-3.6626,-3.6308,-3.6131,-3.5975,-3.5905,-3.5756,-3.5667,-3.5622,-3.5622,-3.5622,-3.5622,-3.5622,-3.5622,-3.5622,-3.5622,-3.5622,-3.5622,-3.5622,-3.5622,-3.5622,-3.5622,-3.5441,-3.5024,-3.456,-3.4252,-3.3969,-3.3407,-3.3235,-3.3582,-3.2841,-3.2547,-3.2841,-3.2007,-3.1655,-3.1796,-3.1582,-3.1482,-3.1482,-3.1482,-3.1482,0.0,0.0,0.0,-2.6164,-2.6184,-2.6475,-2.9797,0.0,-3.0884,-3.1778,0.0,0.0,0.0,0.0,0.0,0.0,0.0,0.0,0.0,0.0,0.0,0.0,0.0,0.0,0.0,0.0,0.0,0.0,0.0,-3.6168,-3.7023,-3.6265,-3.5765,-3.5688,-3.6267,-3.6565,-3.6565,-3.7264,-3.7617,-3.7636,-3.7636,-3.7636,-3.7617,-3.7356,-3.7218,-3.716,-3.6117,-3.5895,-3.6258,-3.6277,-3.6248,-3.634,-3.7129,-3.6982,-3.6486,-3.8046,-3.8138,-3.7606,-3.8377,-3.8652,-3.867,-3.8652,-3.8634,-3.8634,-3.8634,-3.8634,-3.8634,-3.867,-3.8364,-3.8047,-3.8065,-3.7415,-3.6711,-3.6706,-3.635,-3.6019,-3.6019,-3.5905,-3.5773,-3.5622,-3.5622,-3.5622,-3.5622,-3.5622,-3.5622,-3.5622,-3.5622,-3.5622,-3.5622,-3.5622,-3.5622,-3.5622,-3.5622,-3.5577,-3.5577,-3.4496,-3.4119,-3.4691,-3.3087,-3.2586,-3.3649,-3.2641,-3.2492,-3.3391,-3.2398,-3.2053,-3.2382,-3.1796,-3.1482,-3.1482,-3.1482,-3.1482,-2.2804,0.0,0.0,0.0,0.0,0.0,0.0,0.0,-2.9253,-3.0749,0.0,0.0,0.0,0.0,0.0,0.0,0.0,0.0,0.0,0.0,0.0,0.0,0.0,0.0,0.0,0.0,0.0,0.0,-3.5799,-3.5915,-3.6148,-3.5935,-3.5765,-3.5688,-3.5858,-3.5868,-3.5739,-3.5925,-3.5978,-3.5897,-3.5897,-3.5897,-3.5897,-3.581,-3.5702,-3.5552,-3.5266,-3.4993,-3.4814,-3.5414,-3.5541,-3.5459,-3.6303,-3.6486,-3.634,-3.6798,-3.7184,-3.7441,-3.7092,-3.7331,-3.7734,-3.7147,-3.6964,-3.6964,-3.6964,-3.6964,-3.7092,-3.7661,-3.7326,-3.6876,-3.7152,-3.7048,-3.6845,-3.6819,-3.6741,-3.6557,-3.6208,-3.614,-3.6036,-3.5773,-3.5667,-3.5622,-3.5622,-3.5622,-3.5622,-3.5622,-3.5622,-3.5622,-3.5622,-3.5622,-3.5622,-3.5622,-3.5622,-3.5424,-3.5068,-3.5068,-3.5021,-3.4802,-3.4673,-3.4721,-3.5005,-3.4301,-3.3836,-3.3684,-3.3287,-3.2949,-3.2547,-3.1853,-3.1482,-3.1482,-3.1482,-3.1482,-2.3231,-2.4008,-2.4902,-2.4241,0.0,0.0,-2.597,-2.6903,0.0,0.0,0.0,0.0,0.0,0.0,0.0,0.0,0.0,0.0,0.0,0.0,0.0,0.0,0.0,0.0,0.0,0.0,0.0,-3.5799,-3.5799,-3.5799,-3.5799,-3.5799,-3.5773,-3.5737,-3.5708,-3.5635,-3.5528,-3.5435,-3.535,-3.5289,-3.5226,-3.5209,-3.5209,-3.5209,-3.5124,-3.5037,-3.5037,-3.4812,-3.4517,-3.4871,-3.4809,-3.4596,-3.544,-3.555,-3.533,-3.6046,-3.6376,-3.6431,-3.634,-3.6597,-3.6909,-3.645,-3.6303,-3.6303,-3.6303,-3.6303,-3.6395,-3.6853,-3.6652,-3.6439,-3.6978,-3.7053,-3.6955,-3.7126,-3.7017,-3.6799,-3.636,-3.6208,-3.614,-3.5861,-3.5728,-3.5667,-3.5622,-3.5622,-3.5622,-3.5622,-3.5622,-3.5622,-3.5622,-3.5622,-3.5622,-3.5622,-3.5622,-3.547,-3.5178,-3.5224,-3.5115,-3.4833,-3.4864,-3.5021,-3.527,-3.4657,-3.4415,-3.4529,-3.3953,-3.3443,-3.2933,-3.2516,-3.216,-3.1853,-3.164,-3.1482,-2.3523,-2.3853,-2.4605,-2.529,-2.4954,0.0,-2.6281,-2.6689,-2.6786,0.0,0.0,0.0,0.0,0.0,0.0,0.0,0.0,0.0,0.0,0.0,0.0,0.0,0.0,0.0,0.0,-3.5799,-3.5799,-3.5799,-3.5721,-3.5702,-3.5799,-3.5721,-3.5702,-3.5799,-3.5737,-3.5718,-3.5707,-3.5528,-3.5441,-3.5407,-3.5289,-3.5226,-3.5226,-3.5209,-3.5209,-3.5209,-3.5209,-3.5089,-3.487,-3.4653,-3.426,-3.3915,-3.4596,-3.4431,-3.3972,-3.5459,-3.5587,-3.5082,-3.5789,-3.6083,-3.6138,-3.6046,-3.6009,-3.6009,-3.6009,-3.6009,-3.6009,-3.6009,-3.6156,-3.645,-3.7165,-3.7155,-3.7073,-3.7417,-3.7246,-3.6821,-3.6409,-3.6233,-3.6122,-3.5905,-3.5817,-3.5773,-3.5667,-3.5622,-3.5622,-3.5622,-3.5622,-3.5622,-3.5622,-3.5622,-3.5622,-3.5622,-3.5622,-3.5622,-3.5622,-3.5178,-3.488,-3.488,-3.4431,-3.4382,-3.488,-3.4431,-3.4545,-3.5383,-3.4431,-3.3802,-3.3649,-3.3495,-3.3093,-3.2492,-3.1951,-3.1682,-2.5329,-2.5213,-2.5213,-2.4682,0.0,0.0,-2.4896,-2.5349,-2.6048,0.0,0.0,0.0,0.0,0.0,0.0,0.0,0.0,0.0,0.0,0.0,0.0,0.0,0.0,0.0,0.0,-3.5799,-3.5799,-3.5799,-3.5158,-3.5061,-3.576,-3.5138,-3.508,-3.5779,-3.5782,-3.5747,-3.5707,-3.5657,-3.5581,-3.5489,-3.5388,-3.535,-3.5369,-3.5258,-3.5209,-3.5209,-3.5209,-3.5089,-3.4908,-3.4851,-3.4545,-3.4117,-3.4052,-3.3935,-3.3844,-3.4174,-3.4596,-3.4917,-3.4449,-3.4706,-3.5165,-3.4504,-3.4284,-3.4284,-3.4284,-3.4284,-3.4284,-3.4284,-3.5257,-3.634,-3.6486,-3.6971,-3.7398,-3.747,-3.7432,-3.719,-3.6451,-3.6301,-3.6233,-3.6122,-3.6036,-3.5932,-3.5756,-3.5773,-3.5711,-3.5622,-3.5622,-3.5622,-3.5622,-3.5622,-3.5622,-3.5622,-3.5622,-3.5622,-3.5622,-3.5515,-3.5424,-3.5424,-3.5333,-3.5316,-3.5424,-3.5316,-3.5178,-3.4944,-3.4675,-3.4723,-3.5071,-3.3969,-3.3287,-3.3039,-3.2933,-3.2879,-2.5834,-2.5601,-2.5601,-2.5601,0.0,0.0,0.0,0.0,-2.5718,-2.6164,0.0,0.0,0.0,0.0,0.0,0.0,0.0,0.0,0.0,0.0,0.0,0.0,0.0,0.0,0.0,-3.4556,-3.4556,-3.4556,-3.4148,-3.4264,-3.5119,-3.4361,-3.4284,-3.5138,-3.4769,-3.4539,-3.4505,-3.4449,-3.4371,-3.4298,-3.4173,-3.4323,-3.4745,-3.4645,-3.4827,-3.5209,-3.5209,-3.5141,-3.5037,-3.4945,-3.4772,-3.4502,-3.413,-3.3921,-3.3807,-3.3807,-3.4064,-3.4357,-3.3935,-3.4064,-3.4339,-3.3935,-3.3807,-3.3807,-3.3807,-3.3807,-3.3807,-3.3807,-3.4412,-3.5147,-3.555,-3.6131,-3.6653,-3.6844,-3.7074,-3.7055,-3.6409,-3.6301,-3.6301,-3.6276,-3.6191,-3.6105,-3.5932,-3.5861,-3.5773,-3.5728,-3.5622,-3.5622,-3.5622,-3.5622,-3.5622,-3.5622,-3.5622,-3.5622,-3.5622,-3.5622,-3.5622,-3.5622,-3.5622,-3.5622,-3.5622,-3.5622,-3.547,-3.5224,-3.5148,-3.5258,-3.5492,-3.4802,-3.4185,-3.37,-3.3355,-3.3182,0.0,0.0,-2.6203,0.0,0.0,-2.6184,0.0,0.0,0.0,0.0,0.0,0.0,0.0,0.0,0.0,0.0,0.0,0.0,0.0,0.0,0.0,0.0,0.0,0.0,0.0,-3.306,-3.3118,-3.3293,-3.2982,-3.3235,-3.4225,-3.3487,-3.3429,-3.4245,-3.3643,-3.3293,-3.3293,-3.3197,-3.3151,-3.3151,-3.2945,-3.3301,-3.412,-3.4059,-3.4442,-3.5209,-3.5209,-3.5209,-3.5193,-3.5037,-3.4926,-3.4851,-3.439,-3.4074,-3.3868,-3.3815,-3.3807,-3.3807,-3.3807,-3.3807,-3.3807,-3.3807,-3.3807,-3.3807,-3.3807,-3.3807,-3.3807,-3.3807,-3.3917,-3.4192,-3.4825,-3.5422,-3.5897,-3.6237,-3.6535,-3.6685,-3.6374,-3.6301,-3.6301,-3.6301,-3.6301,-3.6259,-3.6062,-3.5949,-3.5861,-3.5861,-3.5711,-3.5622,-3.5622,-3.5622,-3.5622,-3.5622,-3.5622,-3.5622,-3.5622,-3.5622,-3.5622,-3.5622,-3.5622,-3.5622,-3.5622,-3.5622,-3.5622,-3.5622,-3.5622,-3.5594,-3.5537,-3.5492,-3.5118,-3.435,-3.3818,-3.3563,0.0,0.0,0.0,0.0,-2.7369,0.0,0.0,0.0,0.0,-2.5757,0.0,0.0,0.0,0.0,0.0,0.0,0.0,0.0,0.0,0.0,0.0,0.0,0.0,0.0,0.0,0.0,-3.2477,-3.3235,-3.1875,-3.17,-3.3351,-3.2613,-3.2536,-3.341,-3.3351,-3.3293,-3.3293,-3.3285,-3.3285,-3.3278,-3.3122,-3.3467,-3.4186,-3.412,-3.45,-3.5209,-3.5209,-3.5209,-3.5209,-3.5176,-3.5054,-3.4851,-3.439,-3.4173,-3.4124,-3.3895,-3.3807,-3.3807,-3.3807,-3.3807,-3.3807,-3.3807,-3.3807,-3.3807,-3.3807,-3.3807,-3.3807,-3.3807,-3.4321,-3.4862,-3.4972,-3.5614,-3.6243,-3.6272,-3.6346,-3.6339,-3.6312,-3.6301,-3.6301,-3.6301,-3.6301,-3.6259,-3.6165,-3.6165,-3.6122,-3.5993,-3.5861,-3.5773,-3.5773,-3.5667,-3.5622,-3.5622,-3.5622,-3.5622,-3.5622,-3.5622,-3.5622,-3.5622,-3.5622,-3.5622,-3.5622,-3.5622,-3.5622,-3.5622,-3.5622,-3.5577,-3.5577,-3.552,-3.5337,-3.4994,-3.493,-3.4835,0.0,0.0,0.0,0.0,0.0,0.0,-2.6514,0.0,-2.6048,0.0,0.0,0.0,0.0,0.0,0.0,0.0,0.0,0.0,0.0,0.0,0.0,0.0,0.0,0.0,0.0,0.0,0.0,0.0,0.0,-3.0496,-3.172,-3.1448,-3.1642,-3.2516,-3.205,-3.1797,-3.1797,-3.1797,-3.1797,-3.1797,-3.1695,-3.2038,-3.2764,-3.2686,-3.3058,-3.3796,-3.4273,-3.4503,-3.4541,-3.5018,-3.5141,-3.5054,-3.4733,-3.4435,-3.4197,-3.4074,-3.3921,-3.3807,-3.3807,-3.3807,-3.3807,-3.3807,-3.3807,-3.3807,-3.3807,-3.3807,-3.3807,-3.3807,-3.4045,-3.4302,-3.4302,-3.4786,-3.5242,-3.5267,-3.5806,-3.6219,-3.5985,-3.6342,-3.6557,-3.6343,-3.6301,-3.6301,-3.6276,-3.6208,-3.6182,-3.6122,-3.5993,-3.5905,-3.5905,-3.5817,-3.5728,-3.5728,-3.5667,-3.5622,-3.5622,-3.5622,-3.5622,-3.5622,-3.5622,-3.5622,-3.5622,-3.5622,-3.5622,-3.5622,-3.5622,-3.5622,-3.5622,-3.5594,-3.5475,-3.5354,-3.5198,-3.5041,-2.8981,0.0,0.0,0.0,0.0,0.0,0.0,0.0,0.0,0.0,0.0,0.0,0.0,0.0,-2.5583,-2.5595,0.0,-2.535,0.0,0.0,0.0,0.0,0.0,0.0,0.0,0.0,0.0,0.0,-2.8476,-2.9195,-3.0282,-3.0341,-3.0749,-3.1623,-3.102,-3.069,-3.069,-3.069,-3.069,-3.069,-3.0645,-3.1003,-3.1703,-3.1653,-3.2031,-3.273,-3.3375,-3.3643,-3.37,-3.4522,-3.4866,-3.4868,-3.4942,-3.4733,-3.4386,-3.4245,-3.4023,-3.3807,-3.3807,-3.3807,-3.3807,-3.3807,-3.3807,-3.3807,-3.3807,-3.3807,-3.3807,-3.3807,-3.3807,-3.3807,-3.3807,-3.4035,-3.434,-3.4467,-3.5328,-3.6096,-3.5911,-3.6509,-3.6939,-3.6516,-3.6451,-3.6409,-3.6343,-3.6276,-3.6208,-3.6208,-3.6122,-3.6062,-3.6062,-3.5949,-3.5861,-3.5817,-3.5711,-3.5622,-3.5622,-3.5622,-3.5622,-3.5622,-3.5622,-3.5622,-3.5622,-3.5622,-3.5622,-3.5622,-3.5622,-3.5622,-3.5622,-3.5622,-3.5594,-3.552,-3.5291,-3.5198,0.0,0.0,0.0,-2.8508,0.0,0.0,0.0,0.0,-2.6611,0.0,0.0,0.0,0.0,-2.5557,-2.5517,-2.5595,-2.5557,0.0,0.0,0.0,0.0,0.0,0.0,0.0,0.0,0.0,0.0,-2.8042,-2.7408,-2.7699,-2.935,-2.9447,-2.9836,-3.071,-3.071,-3.069,-3.069,-3.069,-3.069,-3.069,-3.069,-3.1047,-3.1703,-3.1703,-3.2058,-3.2691,-3.273,-3.273,-3.2806,-3.3681,-3.4044,-3.412,-3.4904,-3.5072,-3.4812,-3.4367,-3.4023,-3.3807,-3.3807,-3.3807,-3.3807,-3.3807,-3.3807,-3.3807,-3.3807,-3.3807,-3.3807,-3.3807,-3.3807,-3.3807,-3.3807,-3.3825,-3.3936,-3.4401,-3.5105,-3.5804,-3.6185,-3.6916,-3.7358,-3.6978,-3.686,-3.6759,-3.6385,-3.6301,-3.6301,-3.6301,-3.6251,-3.6165,-3.6165,-3.6079,-3.5932,-3.5817,-3.5773,-3.5728,-3.5622,-3.5622,-3.5622,-3.5622,-3.5622,-3.5622,-3.5622,-3.5622,-3.5622,-3.5622,-3.5622,-3.5622,-3.5622,-3.5622,-3.5622,-3.5577,-3.552,-3.5354,0.0,0.0,-3.0418,-2.9253,0.0,0.0,0.0,0.0,0.0,0.0,0.0,0.0,0.0,-2.551,-2.5464,-2.5517,-2.551,-2.5089,0.0,0.0,0.0,0.0,0.0,0.0,0.0,0.0,0.0,-2.6436,-2.6728,-2.7388,0.0,-2.9097,-2.9797,-3.0671,-3.069,-3.069,-3.069,-3.069,-3.069,-3.069,-3.069,-3.0801,-3.0965,-3.0886,-3.0933,-3.1142,-3.1666,-3.1885,-3.1962,-3.3394,-3.3987,-3.4082,-3.4885,-3.5072,-3.4851,-3.4526,-3.4274,-3.4049,-3.3921,-3.386,-3.3807,-3.3842,-3.386,-3.3807,-3.3807,-3.3807,-3.3807,-3.3807,-3.3807,-3.3807,-3.3807,-3.3807,-3.3982,-3.4676,-3.5488,-3.62,-3.6594,-3.732,-3.7774,-3.7395,-3.7321,-3.717,-3.6759,-3.6719,-3.6597,-3.6343,-3.6259,-3.6276,-3.6276,-3.6208,-3.6079,-3.5949,-3.5861,-3.5773,-3.5622,-3.5622,-3.5622,-3.5622,-3.5622,-3.5622,-3.5622,-3.5622,-3.5622,-3.5622,-3.5622,-3.5622,-3.5622,-3.5622,-3.5622,-3.5622,-3.5594,-3.5503,-3.0703,-3.0704,0.0,-2.9661,-2.9006,0.0,-2.7159,0.0,0.0,0.0,0.0,0.0,0.0,0.0,-2.5557,-2.5904,-2.5689,-2.5078,0.0,-2.3797,0.0,0.0,0.0,0.0,0.0,0.0,-2.5293,-2.5582,-2.5821,-2.6468,0.0,0.0,-2.935,-3.0205,-3.0535,-3.069,-3.069,-3.069,-3.069,-3.069,-3.069,-3.0661,-3.0595,-3.0462,-3.0359,-3.0323,-3.0833,-3.1006,-3.1083,-3.2516,-3.328,-3.3624,-3.4445,-3.4876,-3.4982,-3.4734,-3.4461,-3.4197,-3.3998,-3.3895,-3.3868,-3.3921,-3.3895,-3.386,-3.386,-3.3815,-3.3807,-3.3807,-3.3807,-3.3807,-3.3807,-3.3807,-3.4009,-3.4807,-3.5679,-3.6446,-3.6984,-3.7754,-3.8186,-3.7809,-3.7721,-3.7578,-3.717,-3.7132,-3.6939,-3.6367,-3.6301,-3.6301,-3.6301,-3.6276,-3.6191,-3.6062,-3.5949,-3.5817,-3.5622,-3.5622,-3.5622,-3.5622,-3.5622,-3.5622,-3.5622,-3.5622,-3.5622,-3.5622,-3.5622,-3.5622,-3.5622,-3.5622,-3.5622,-3.5622,-3.5622,-3.5594]},{"header":{"parameterUnit":"m.s-1","parameterCategory":1,"la1":30.6,"la2":29.2853,"lo1":-89.7004,"lo2":-87.6739,"dy":0.0162,"dx":0.0183,"nx":112,"ny":82,"refTime":"2024-06-06T18:00:00:Z","depth":0,"parameterNumber":3,"parameterNumberName":"V-component_of_WINDS"},"data":[0.0,0.0,0.0,0.0,0.0,0.0,0.0,0.0,0.0,0.0,0.0,0.0,0.0,0.0,0.0,0.0,0.0,0.0,0.0,0.0,0.0,0.0,0.0,0.0,0.0,0.0,0.0,0.0,0.0,0.0,0.0,0.0,0.0,0.0,0.0,0.0,0.0,0.0,0.0,0.0,0.0,0.0,0.0,0.0,0.0,0.0,0.0,0.0,0.0,0.0,0.0,0.0,0.0,0.0,0.0,0.0,0.0,0.0,0.0,0.0,0.0,0.0,0.0,0.0,0.0,0.0,0.0,0.0,0.0,0.0,0.0,0.0,0.0,0.0,0.0,0.0,0.0,0.0,0.0,0.0,0.0,0.0,0.0,0.0,0.0,0.0,0.0,0.0,0.0,0.0,-3.1899,-3.5169,-3.8612,-4.1035,-4.1973,-4.0354,-3.752,-3.3425,0.0,0.0,0.0,0.0,0.0,0.0,0.0,0.0,0.0,0.0,0.0,0.0,0.0,0.0,0.0,0.0,0.0,0.0,0.0,0.0,0.0,0.0,0.0,0.0,0.0,0.0,0.0,0.0,0.0,0.0,0.0,0.0,0.0,0.0,0.0,0.0,0.0,0.0,0.0,0.0,0.0,0.0,0.0,0.0,0.0,0.0,0.0,0.0,0.0,0.0,0.0,0.0,0.0,0.0,0.0,0.0,0.0,0.0,0.0,0.0,0.0,0.0,0.0,0.0,0.0,0.0,0.0,0.0,0.0,0.0,0.0,0.0,0.0,0.0,0.0,0.0,0.0,0.0,0.0,0.0,0.0,0.0,0.0,0.0,0.0,0.0,0.0,0.0,0.0,0.0,0.0,0.0,0.0,0.0,0.0,0.0,0.0,0.0,0.0,0.0,0.0,0.0,0.0,0.0,-3.2802,-3.8945,-4.0164,-4.0881,-4.1763,-3.962,-3.6749,-3.3247,0.0,0.0,0.0,0.0,0.0,0.0,0.0,0.0,0.0,0.0,0.0,0.0,0.0,0.0,0.0,0.0,0.0,0.0,0.0,0.0,0.0,0.0,0.0,0.0,0.0,0.0,0.0,0.0,0.0,0.0,0.0,0.0,0.0,0.0,0.0,0.0,0.0,0.0,0.0,0.0,0.0,0.0,0.0,0.0,0.0,0.0,0.0,0.0,0.0,0.0,0.0,0.0,0.0,0.0,0.0,0.0,0.0,0.0,0.0,0.0,0.0,0.0,0.0,0.0,0.0,0.0,0.0,0.0,0.0,0.0,0.0,0.0,0.0,0.0,0.0,0.0,0.0,0.0,0.0,0.0,0.0,0.0,0.0,0.0,0.0,0.0,0.0,0.0,0.0,0.0,0.0,0.0,0.0,0.0,0.0,0.0,0.0,0.0,0.0,0.0,0.0,0.0,0.0,-3.1851,-3.4564,-3.9927,-4.0489,-4.0688,-4.1166,-3.9276,-3.6619,-3.3267,-3.075,0.0,0.0,0.0,0.0,0.0,0.0,0.0,0.0,0.0,0.0,0.0,0.0,0.0,0.0,0.0,0.0,0.0,0.0,0.0,0.0,0.0,0.0,0.0,0.0,0.0,0.0,0.0,0.0,0.0,0.0,0.0,0.0,0.0,0.0,0.0,0.0,0.0,0.0,0.0,0.0,0.0,0.0,0.0,0.0,0.0,0.0,0.0,0.0,0.0,0.0,0.0,0.0,0.0,0.0,0.0,0.0,0.0,0.0,0.0,0.0,0.0,0.0,0.0,0.0,0.0,0.0,0.0,0.0,0.0,0.0,0.0,0.0,0.0,0.0,0.0,0.0,0.0,0.0,0.0,0.0,0.0,0.0,0.0,0.0,0.0,0.0,0.0,0.0,0.0,0.0,0.0,0.0,0.0,0.0,0.0,0.0,0.0,0.0,0.0,0.0,0.0,0.0,-3.477,-3.6175,-4.0002,-4.0457,-4.0534,-4.0642,-3.8711,-3.6219,-3.3237,-2.9511,0.0,0.0,0.0,0.0,0.0,0.0,0.0,0.0,0.0,0.0,0.0,0.0,0.0,0.0,0.0,0.0,0.0,0.0,0.0,0.0,0.0,0.0,0.0,0.0,0.0,0.0,0.0,0.0,0.0,0.0,0.0,0.0,0.0,0.0,0.0,0.0,0.0,0.0,0.0,0.0,0.0,0.0,0.0,0.0,0.0,0.0,0.0,0.0,0.0,0.0,0.0,0.0,0.0,0.0,0.0,0.0,0.0,0.0,0.0,0.0,0.0,0.0,0.0,0.0,0.0,0.0,0.0,0.0,0.0,0.0,0.0,0.0,0.0,0.0,0.0,0.0,0.0,0.0,0.0,0.0,0.0,0.0,0.0,0.0,0.0,0.0,0.0,0.0,0.0,0.0,0.0,0.0,0.0,0.0,0.0,0.0,0.0,0.0,0.0,0.0,0.0,0.0,-3.4582,-3.7033,-3.9834,-4.0342,-4.0495,-4.0504,-3.7541,-3.4885,-3.3019,-2.8258,0.0,0.0,0.0,0.0,0.0,0.0,0.0,0.0,0.0,0.0,0.0,0.0,0.0,0.0,0.0,0.0,0.0,0.0,0.0,0.0,0.0,0.0,0.0,0.0,0.0,0.0,0.0,0.0,0.0,0.0,0.0,0.0,0.0,0.0,0.0,0.0,0.0,0.0,0.0,0.0,0.0,0.0,0.0,0.0,0.0,0.0,0.0,0.0,0.0,0.0,0.0,0.0,0.0,0.0,0.0,0.0,0.0,0.0,0.0,0.0,0.0,0.0,0.0,0.0,0.0,0.0,0.0,0.0,0.0,0.0,0.0,0.0,0.0,0.0,0.0,0.0,0.0,0.0,0.0,0.0,0.0,0.0,0.0,0.0,0.0,0.0,0.0,0.0,0.0,0.0,0.0,0.0,0.0,0.0,0.0,0.0,0.0,0.0,0.0,0.0,0.0,0.0,-3.3677,-3.6234,0.0,-3.989,-4.004,-3.973,-3.7559,-3.5062,-3.227,0.0,0.0,0.0,0.0,0.0,0.0,0.0,0.0,0.0,0.0,0.0,0.0,0.0,0.0,0.0,0.0,0.0,0.0,0.0,0.0,0.0,0.0,0.0,0.0,0.0,0.0,0.0,0.0,0.0,0.0,0.0,0.0,0.0,0.0,0.0,0.0,0.0,0.0,0.0,0.0,0.0,0.0,0.0,0.0,0.0,0.0,0.0,0.0,0.0,0.0,0.0,0.0,0.0,0.0,0.0,0.0,0.0,0.0,0.0,0.0,0.0,0.0,0.0,0.0,0.0,0.0,0.0,0.0,0.0,0.0,0.0,0.0,0.0,0.0,0.0,0.0,0.0,0.0,0.0,0.0,0.0,0.0,0.0,0.0,0.0,0.0,0.0,0.0,0.0,0.0,0.0,0.0,0.0,0.0,0.0,0.0,0.0,0.0,0.0,0.0,0.0,0.0,-3.034,-3.3315,-3.5987,0.0,-3.9181,-3.9375,-3.9045,-3.683,-3.4347,-3.1751,0.0,0.0,0.0,0.0,0.0,0.0,0.0,0.0,0.0,0.0,0.0,0.0,0.0,0.0,0.0,0.0,0.0,0.0,0.0,0.0,0.0,0.0,0.0,0.0,0.0,0.0,0.0,0.0,0.0,0.0,0.0,0.0,0.0,0.0,0.0,0.0,0.0,0.0,0.0,0.0,0.0,0.0,0.0,0.0,0.0,0.0,0.0,0.0,0.0,0.0,0.0,0.0,0.0,0.0,0.0,0.0,0.0,0.0,0.0,0.0,0.0,0.0,0.0,0.0,0.0,0.0,0.0,0.0,0.0,0.0,0.0,0.0,0.0,0.0,0.0,0.0,0.0,0.0,0.0,0.0,0.0,0.0,0.0,0.0,0.0,0.0,0.0,0.0,0.0,0.0,0.0,0.0,0.0,0.0,0.0,0.0,0.0,0.0,0.0,0.0,0.0,0.0,-2.9752,-3.3721,-3.6657,-3.7571,-3.8155,-3.8509,-3.8552,-3.5026,-3.2469,0.0,0.0,0.0,0.0,0.0,0.0,0.0,0.0,0.0,0.0,0.0,0.0,0.0,0.0,0.0,0.0,0.0,0.0,0.0,0.0,0.0,0.0,0.0,0.0,0.0,0.0,0.0,0.0,0.0,0.0,0.0,0.0,0.0,0.0,0.0,0.0,0.0,0.0,0.0,0.0,0.0,0.0,0.0,0.0,0.0,0.0,0.0,0.0,0.0,0.0,0.0,0.0,0.0,0.0,0.0,0.0,0.0,0.0,0.0,0.0,0.0,0.0,0.0,0.0,0.0,0.0,0.0,0.0,0.0,0.0,0.0,0.0,0.0,0.0,0.0,0.0,0.0,0.0,0.0,0.0,0.0,0.0,0.0,0.0,0.0,0.0,0.0,0.0,0.0,0.0,0.0,0.0,0.0,0.0,0.0,0.0,0.0,0.0,0.0,0.0,0.0,0.0,0.0,-2.8725,-3.2593,-3.5365,-3.6003,-3.7147,-3.7486,-3.6569,-3.4528,-3.2457,-3.0456,0.0,0.0,0.0,0.0,0.0,0.0,0.0,0.0,0.0,0.0,0.0,0.0,0.0,0.0,0.0,0.0,0.0,0.0,0.0,0.0,0.0,0.0,0.0,0.0,0.0,0.0,0.0,0.0,0.0,0.0,0.0,0.0,0.0,0.0,0.0,0.0,0.0,0.0,0.0,0.0,0.0,0.0,0.0,0.0,0.0,0.0,0.0,0.0,0.0,0.0,0.0,0.0,0.0,0.0,0.0,0.0,0.0,0.0,0.0,0.0,0.0,0.0,0.0,0.0,0.0,0.0,0.0,0.0,0.0,0.0,0.0,0.0,0.0,0.0,0.0,0.0,0.0,0.0,0.0,0.0,0.0,0.0,0.0,0.0,0.0,0.0,0.0,0.0,0.0,0.0,0.0,0.0,0.0,0.0,0.0,0.0,0.0,0.0,0.0,0.0,0.0,0.0,-2.808,-3.1715,-3.4298,-3.4899,-3.5892,-3.6196,-3.5392,-3.3867,-3.2015,-2.9864,0.0,0.0,0.0,0.0,0.0,0.0,0.0,0.0,0.0,0.0,0.0,0.0,0.0,0.0,0.0,0.0,0.0,0.0,0.0,0.0,0.0,0.0,0.0,0.0,0.0,0.0,0.0,0.0,0.0,0.0,0.0,0.0,0.0,0.0,0.0,0.0,0.0,0.0,0.0,0.0,0.0,0.0,0.0,0.0,0.0,0.0,0.0,0.0,0.0,0.0,0.0,0.0,0.0,0.0,0.0,0.0,0.0,0.0,0.0,0.0,0.0,0.0,0.0,0.0,0.0,0.0,0.0,0.0,0.0,0.0,0.0,0.0,0.0,0.0,0.0,0.0,0.0,0.0,0.0,0.0,0.0,0.0,0.0,0.0,0.0,0.0,0.0,0.0,0.0,0.0,0.0,0.0,0.0,0.0,0.0,0.0,0.0,0.0,0.0,0.0,0.0,0.0,-2.7733,-3.1029,-3.3391,-3.4092,-3.4552,-3.4824,-3.4779,-3.3166,-3.1446,-2.9795,0.0,0.0,0.0,0.0,0.0,0.0,0.0,0.0,0.0,0.0,0.0,0.0,0.0,0.0,0.0,0.0,0.0,0.0,0.0,0.0,0.0,0.0,0.0,0.0,0.0,0.0,0.0,0.0,0.0,0.0,0.0,0.0,0.0,0.0,0.0,0.0,0.0,0.0,0.0,0.0,0.0,0.0,0.0,0.0,0.0,0.0,0.0,0.0,0.0,0.0,0.0,0.0,0.0,0.0,0.0,0.0,0.0,0.0,0.0,0.0,-1.4704,0.0,0.0,0.0,0.0,0.0,0.0,0.0,0.0,0.0,0.0,0.0,0.0,0.0,0.0,0.0,0.0,0.0,0.0,0.0,0.0,0.0,0.0,0.0,0.0,0.0,0.0,0.0,0.0,0.0,0.0,0.0,0.0,0.0,0.0,0.0,0.0,0.0,0.0,0.0,0.0,0.0,-2.7255,-3.0533,-3.2758,-3.2998,-3.3781,-3.4127,-3.3811,-3.2989,-3.1876,-3.0416,-2.7998,0.0,0.0,0.0,0.0,0.0,0.0,0.0,0.0,0.0,0.0,0.0,0.0,0.0,0.0,0.0,0.0,0.0,0.0,0.0,0.0,0.0,0.0,0.0,0.0,0.0,0.0,0.0,0.0,0.0,0.0,0.0,0.0,0.0,0.0,0.0,0.0,0.0,0.0,0.0,0.0,0.0,0.0,0.0,0.0,0.0,0.0,0.0,0.0,0.0,0.0,0.0,0.0,0.0,0.0,0.0,0.0,0.0,0.0,0.0,0.0,-1.5793,0.0,0.0,0.0,0.0,0.0,0.0,0.0,0.0,0.0,0.0,0.0,0.0,0.0,0.0,0.0,0.0,0.0,0.0,0.0,0.0,0.0,0.0,0.0,0.0,0.0,0.0,0.0,0.0,0.0,0.0,0.0,0.0,0.0,0.0,0.0,0.0,0.0,0.0,0.0,0.0,-2.7157,-3.0024,-3.2033,-3.2468,-3.3011,-3.3265,-3.3046,-3.2502,-3.1573,-3.0204,-2.8363,0.0,0.0,0.0,0.0,0.0,0.0,0.0,0.0,0.0,0.0,0.0,0.0,0.0,0.0,0.0,0.0,0.0,0.0,0.0,0.0,0.0,0.0,0.0,0.0,0.0,0.0,0.0,0.0,0.0,0.0,0.0,0.0,0.0,0.0,0.0,0.0,0.0,0.0,0.0,0.0,0.0,0.0,0.0,0.0,0.0,0.0,0.0,0.0,0.0,0.0,0.0,0.0,0.0,-2.2311,-2.2017,-2.0862,-2.1413,-2.14,-2.0825,-1.9224,-1.8569,-1.8516,0.0,0.0,0.0,0.0,0.0,0.0,0.0,0.0,0.0,0.0,0.0,0.0,0.0,0.0,0.0,0.0,0.0,0.0,0.0,0.0,0.0,0.0,0.0,0.0,0.0,-2.8605,-2.841,0.0,0.0,0.0,0.0,0.0,0.0,0.0,0.0,0.0,0.0,0.0,0.0,-2.7276,-2.9706,-3.1515,-3.2144,-3.2335,-3.2456,-3.2523,-3.2125,-3.1368,-3.0207,-2.8755,-2.6823,0.0,0.0,0.0,0.0,0.0,0.0,0.0,0.0,0.0,0.0,0.0,0.0,0.0,0.0,0.0,0.0,0.0,0.0,0.0,0.0,0.0,0.0,0.0,0.0,0.0,0.0,0.0,0.0,0.0,0.0,0.0,0.0,-1.8446,-1.8855,0.0,0.0,0.0,0.0,0.0,0.0,0.0,0.0,0.0,0.0,0.0,0.0,0.0,-2.3825,-2.4069,-2.5754,-2.5972,-2.4822,-2.6477,-2.6313,-2.4608,-2.5134,-2.4898,-2.4085,-2.3665,0.0,-1.9599,-1.8985,0.0,0.0,0.0,0.0,0.0,0.0,0.0,0.0,0.0,0.0,0.0,0.0,0.0,0.0,0.0,0.0,0.0,0.0,0.0,0.0,0.0,0.0,-3.0756,-3.0697,-3.0762,-3.0729,0.0,-2.747,-2.4713,-2.3926,-2.3279,0.0,0.0,0.0,0.0,0.0,0.0,0.0,-2.7641,-3.0,-3.1645,-3.1913,-3.2055,-3.2301,-3.2636,-3.2595,-3.2371,-3.19,-3.0323,-2.9039,-2.8178,-2.5226,0.0,0.0,0.0,0.0,0.0,0.0,0.0,0.0,0.0,0.0,0.0,0.0,0.0,0.0,0.0,0.0,0.0,0.0,0.0,0.0,0.0,0.0,0.0,0.0,0.0,0.0,0.0,0.0,0.0,-1.7748,-1.9455,-1.9929,-1.9754,-1.9234,0.0,0.0,0.0,0.0,0.0,0.0,0.0,0.0,0.0,-2.4892,-2.598,-2.6635,-2.6844,-2.7725,-2.7736,-2.6959,-2.7913,-2.7631,-2.6188,-2.6554,-2.6205,-2.5424,-2.5188,-2.4333,-2.2967,-2.128,-2.0059,-1.9197,0.0,0.0,0.0,0.0,-2.0974,-2.1504,-2.2808,-2.3276,0.0,0.0,0.0,0.0,0.0,0.0,0.0,0.0,0.0,0.0,0.0,0.0,0.0,-3.2566,-3.2603,-3.2557,-3.2557,-3.0438,-2.8112,0.0,-2.6151,-2.5225,-2.3003,0.0,0.0,0.0,0.0,-2.7197,-2.826,-3.019,-3.1449,-3.1562,-3.1654,-3.1819,-3.2002,-3.2197,-3.1956,-3.1142,-3.0553,-2.9636,-2.8213,-2.6636,-2.4797,0.0,0.0,0.0,0.0,0.0,0.0,0.0,0.0,0.0,0.0,0.0,0.0,0.0,0.0,0.0,0.0,0.0,0.0,0.0,0.0,0.0,0.0,0.0,0.0,0.0,0.0,0.0,0.0,-1.8793,-2.0331,-2.0727,-2.1038,-2.071,0.0,0.0,0.0,0.0,0.0,0.0,-2.4322,-2.5071,-2.6068,-2.743,-2.8319,-2.8851,-2.9095,-2.9262,-2.9113,-2.8511,-2.8699,-2.8218,-2.7191,-2.7262,-2.6991,-2.6329,-2.6173,-2.6026,-2.5739,-2.358,-2.2373,-2.1899,-2.1546,-2.1435,-2.1568,-2.271,-2.3218,-2.3535,-2.5057,-2.5595,-2.5673,-2.6059,0.0,-2.6035,-2.5289,0.0,0.0,0.0,0.0,-2.8672,-3.0356,-3.1662,-3.2796,-3.3672,-3.3789,-3.3742,-3.3742,-3.2618,-3.1075,0.0,-2.8812,-2.7876,-2.5487,0.0,0.0,0.0,0.0,-2.8129,-2.8921,-3.0323,-3.1218,-3.1218,-3.1329,-3.1462,-3.1593,-3.1802,-3.1568,-3.0614,-3.0588,-2.989,-2.8179,-2.7598,-2.6297,-2.4139,0.0,0.0,0.0,0.0,0.0,0.0,0.0,0.0,0.0,0.0,0.0,0.0,0.0,0.0,0.0,0.0,0.0,0.0,0.0,0.0,0.0,0.0,0.0,0.0,0.0,0.0,0.0,0.0,0.0,-2.124,-2.2559,0.0,0.0,0.0,0.0,-2.2849,-2.2867,-2.343,-2.4731,-2.5827,-2.6939,-2.8019,-2.9437,-3.0256,-3.0538,-3.0963,-3.0644,-2.9628,-2.9434,-2.89,-2.8096,-2.7903,-2.773,-2.7441,-2.7221,-2.6875,-2.6426,-2.591,-2.4909,-2.371,-2.4247,-2.3829,-2.3027,-2.4032,-2.4628,-2.5082,-2.6284,-2.6728,-2.6955,-2.845,-2.8599,-2.8271,-2.8482,-2.8139,0.0,0.0,-2.9884,-3.0812,-3.2498,-3.2983,-3.3259,-3.394,-3.4102,-3.4086,-3.4086,-3.3485,-3.2625,0.0,-3.0419,-2.9473,-2.8227,0.0,-2.7689,-2.7214,-2.7798,-2.8561,-2.9426,-3.0409,-3.1015,-3.1015,-3.1151,-3.1385,-3.1763,-3.18,-3.1725,-3.1519,-3.0836,-3.0136,-2.9512,-2.7781,-2.6419,-2.5532,-2.3684,0.0,0.0,0.0,0.0,0.0,0.0,0.0,0.0,0.0,0.0,0.0,0.0,0.0,0.0,0.0,0.0,0.0,0.0,0.0,0.0,0.0,0.0,0.0,0.0,0.0,0.0,0.0,0.0,-2.327,-2.4134,0.0,-2.4012,-2.4403,-2.4734,-2.4946,-2.5573,-2.6408,-2.7585,-2.8257,-2.8988,-2.9861,-3.0718,-3.0956,-3.0686,-3.0807,-3.0444,-2.9484,-2.9419,-2.8949,-2.8179,-2.8099,-2.7857,-2.7522,-2.7441,-2.7186,-2.7002,-2.7254,-2.6412,-2.5055,-2.5669,-2.5647,-2.5413,-2.614,-2.6479,-2.6712,-2.7373,-2.7632,-2.7755,-2.8615,-2.9002,-2.9146,-2.9301,-2.9639,-3.0195,-3.1101,-3.1774,-3.2482,-3.3583,-3.3893,-3.3941,-3.4284,-3.43,-3.425,-3.425,-3.3956,-3.3533,-3.2918,-3.2075,-3.1006,-2.9665,-2.9419,-2.919,-2.8549,-2.8672,-2.914,-3.0005,-3.0443,-3.0733,-3.0814,-3.0952,-3.1072,-3.1213,-3.0967,-3.059,-3.004,-2.9699,-2.9242,-2.8528,-2.7558,-2.668,-2.5868,-2.4313,-2.201,0.0,0.0,0.0,0.0,0.0,0.0,0.0,0.0,0.0,0.0,0.0,0.0,0.0,0.0,0.0,0.0,0.0,0.0,0.0,0.0,0.0,0.0,0.0,0.0,0.0,0.0,-2.3327,-2.4315,-2.5397,-2.5908,-2.5451,-2.6257,-2.671,-2.6672,-2.7307,-2.8038,-2.8835,-2.9012,-2.9492,-3.0254,-3.057,-3.0659,-3.0609,-3.047,-3.0075,-2.9419,-2.9263,-2.8882,-2.8259,-2.8179,-2.7938,-2.7615,-2.7452,-2.7301,-2.7231,-2.7708,-2.7219,-2.632,-2.7138,-2.7478,-2.7566,-2.7967,-2.8061,-2.8053,-2.8329,-2.8651,-2.8953,-2.9387,-2.9856,-3.0303,-3.0646,-3.1248,-3.1927,-3.259,-3.3022,-3.3435,-3.4087,-3.425,-3.425,-3.4349,-3.425,-3.4101,-3.4101,-3.3949,-3.3797,-3.3607,-3.3158,-3.2461,-3.1196,-3.1108,-3.0969,-3.0277,-3.0162,-3.0287,-3.0662,-3.0721,-3.0724,-3.0559,-3.0651,-3.079,-3.0935,-3.0467,-2.9945,-2.9351,-2.912,-2.87,-2.795,-2.7335,-2.6577,-2.5691,-2.4049,-2.2106,-1.9887,0.0,0.0,0.0,0.0,0.0,0.0,0.0,0.0,0.0,0.0,0.0,0.0,0.0,0.0,0.0,0.0,0.0,0.0,0.0,0.0,0.0,0.0,0.0,-1.9373,-2.2226,-2.4253,-2.4304,-2.6352,-2.7431,-2.6559,-2.7075,-2.7629,-2.7989,-2.8025,-2.8023,-2.8143,-2.803,-2.8271,-2.9052,-2.8882,-2.9263,-3.0368,-3.0011,-2.9611,-2.9419,-2.9028,-2.8724,-2.851,-2.8122,-2.7893,-2.7893,-2.7394,-2.7231,-2.7231,-2.7231,-2.7231,-2.7336,-2.8657,-2.9189,-2.9301,-2.9287,-2.9174,-2.8986,-2.909,-2.9645,-3.0444,-3.085,-3.1322,-3.1913,-3.2671,-3.2889,-3.3036,-3.3587,-3.371,-3.3745,-3.405,-3.4101,-3.4101,-3.4101,-3.3899,-3.3694,-3.3694,-3.3503,-3.3309,-3.3309,-3.3694,-3.3824,-3.2981,-3.2983,-3.2886,-3.2373,-3.2229,0.0,-3.1373,-3.1319,-3.1041,-3.0303,-3.0366,-3.0584,-3.0942,-3.0335,-2.9873,-2.9676,-2.912,-2.8581,-2.8003,-2.7106,-2.61,-2.5023,-2.2962,-2.1529,-2.0782,0.0,0.0,0.0,0.0,0.0,0.0,0.0,0.0,0.0,0.0,0.0,0.0,0.0,0.0,0.0,0.0,0.0,0.0,0.0,0.0,0.0,0.0,-2.0691,-2.191,-2.3585,-2.5185,-2.6371,-2.7385,-2.7907,-2.7928,-2.813,-2.8138,-2.7965,-2.7909,-2.7968,-2.795,-2.7846,-2.8235,-2.9052,-2.8438,-2.8755,-3.0152,-2.9443,-2.9131,-2.9197,-2.9052,-2.8736,-2.8259,-2.8179,-2.803,-2.7881,-2.7534,-2.7441,-2.7452,-2.7219,-2.7464,-2.7959,-2.835,-2.8499,-2.8624,-2.9379,-2.9954,-3.035,-3.04,-3.0741,-3.1225,-3.134,-3.1946,-3.2674,-3.2916,-3.3291,-3.3725,-3.4051,-3.3937,-3.3745,-3.405,-3.4101,-3.4101,-3.4101,-3.405,-3.3949,-3.3745,-3.3658,-3.345,-3.3112,-3.3309,-3.3439,-3.3196,-3.2736,-3.239,-3.2233,-3.1755,0.0,-3.1578,-3.1562,-3.1443,-3.1057,-3.1035,-3.0892,-3.0476,-2.9254,-2.8638,-2.8831,-2.7913,-2.7469,-2.7617,-2.7067,-2.6302,-2.5302,-2.4477,-2.3595,0.0,0.0,0.0,0.0,0.0,0.0,0.0,0.0,0.0,0.0,0.0,0.0,0.0,0.0,0.0,0.0,0.0,0.0,0.0,0.0,0.0,0.0,-1.8946,-2.1729,-2.3521,-2.4755,-2.5949,-2.7103,-2.7717,-2.8004,-2.8247,-2.8099,-2.7857,-2.7615,-2.7452,-2.729,-2.7208,-2.7174,-2.7406,-2.7995,-2.7557,-2.7867,-2.9275,-2.87,-2.8554,-2.8816,-2.8736,-2.8578,-2.8167,-2.8018,-2.7938,0.0,-2.7545,-2.7371,-2.7371,-2.7219,-2.7626,0.0,0.0,0.0,0.0,0.0,-3.0786,-3.124,-3.1207,-3.1271,-3.1551,-3.1786,-3.2277,-3.2771,-3.3099,-3.3607,-3.4188,-3.4453,-3.4349,-3.4194,-3.4503,-3.4327,-3.4101,-3.4101,-3.3949,-3.3694,-3.3555,-3.333,-3.3049,-3.2757,0.0,0.0,-3.2904,-3.2804,-3.2641,-3.2641,-3.2278,-3.1985,-3.1914,-3.1916,-3.1807,-3.1445,-3.1196,-3.0929,-3.0593,-2.9263,0.0,0.0,0.0,-2.7572,-2.723,-2.6843,0.0,0.0,0.0,0.0,0.0,0.0,0.0,0.0,-2.3154,-2.3563,0.0,0.0,0.0,0.0,0.0,0.0,0.0,0.0,0.0,0.0,0.0,0.0,0.0,0.0,0.0,0.0,-1.9772,-2.2032,-2.4211,-2.543,-2.6337,-2.6904,-2.7358,-2.7719,-2.7719,-2.736,-2.7103,-2.701,-2.661,-2.6302,-2.619,0.0,0.0,0.0,0.0,-2.6764,-2.7891,-2.7637,-2.781,-2.8419,-2.8167,-2.8087,-2.8179,-2.7684,-2.7615,-2.78,-2.7394,-2.7231,-2.7231,-2.7231,-2.7626,-2.8247,-2.9015,-2.9626,-3.0355,-3.1101,-3.1623,0.0,0.0,0.0,0.0,-3.2313,-3.2558,-3.2751,-3.3321,-3.3955,-3.4472,-3.4732,-3.4707,-3.4759,-3.5004,-3.4586,-3.405,-3.405,-3.3658,-3.3309,-3.3256,-3.285,-3.2453,-3.2398,-3.2398,-3.2398,-3.2398,-3.285,-3.3187,-3.3187,-3.3187,-3.2966,-3.2352,-3.2273,-3.2108,-3.1773,0.0,0.0,-3.1079,-2.994,-2.9272,-2.941,-2.9218,-2.8475,-2.7146,-2.6877,-2.6617,-2.6349,-2.6277,-2.6974,-2.845,-2.8412,-2.8445,-2.856,-2.5982,-2.5866,0.0,0.0,0.0,0.0,0.0,0.0,0.0,0.0,0.0,0.0,0.0,0.0,0.0,0.0,0.0,-1.6475,-1.9771,-2.2473,-2.3276,-2.4367,-2.5352,-2.6041,-2.6224,-2.6362,-2.6528,-2.6445,-2.6279,-2.5863,-2.5779,-2.5869,-2.6174,-2.5573,0.0,-2.6749,-2.5392,-2.5348,-2.6812,-2.6047,-2.6295,-2.773,0.0,0.0,-2.7962,-2.7615,-2.7522,-2.7522,-2.7301,-2.7301,-2.7441,-2.7301,-2.7626,-2.8327,-2.9781,-3.0921,-3.1736,-3.2208,-3.268,-3.2975,-3.2933,-3.296,-3.296,-3.3099,-3.3496,-3.4037,-3.417,-3.4322,0.0,-3.4705,-3.4376,-3.3954,-3.426,-3.4062,-3.3797,-3.3797,-3.3555,-3.3256,-3.3005,-3.2897,-3.2718,-3.2453,-3.2398,-3.2398,-3.2398,-3.2508,-3.2563,-3.2563,-3.2563,-3.2641,-3.2763,-3.2748,-3.2678,-3.241,-3.2318,-3.1871,-3.1024,-3.0194,-2.973,-2.9649,-2.9621,-2.9402,-2.8836,-2.887,-2.8733,-2.8435,-2.8142,-2.8235,-2.8649,-2.8395,-2.8616,-2.9343,-2.8231,-2.8005,0.0,0.0,0.0,0.0,0.0,0.0,0.0,0.0,0.0,0.0,0.0,-0.7861,0.0,0.0,-1.5499,-1.6773,-1.9321,-2.1504,-2.2476,-2.2776,-2.3501,-2.5168,-2.5432,-2.5611,-2.5695,-2.5516,-2.5263,-2.502,-2.4765,-2.4888,-2.5357,-2.4908,-2.4954,-2.5424,-2.4625,-2.4563,-2.5495,-2.4882,-2.5389,-2.6999,-2.6764,-2.7021,-2.7708,-2.7452,-2.7371,-2.7522,-2.7301,-2.7219,-2.7371,-2.7615,-2.7938,-2.8327,-2.9999,-3.1057,-3.1723,-3.2187,-3.2789,-3.3326,-3.3326,-3.3326,-3.3326,-3.3396,-3.3675,-3.4005,-3.4157,-3.4398,-3.4618,-3.444,-3.4079,-3.3795,-3.383,-3.3498,-3.3208,-3.3435,-3.3309,-3.3058,-3.2897,-3.2773,-3.2594,-3.2453,-3.2342,-3.2342,-3.2398,-3.2342,-3.2342,-3.2398,-3.2398,-3.2453,-3.2648,-3.2648,-3.2687,-3.2767,-3.2388,-3.1908,-3.1118,-3.0248,-2.9811,-3.0004,-2.9917,-2.9664,-2.9332,-2.9206,-2.9092,-2.8993,-2.8831,-2.8973,-2.944,-2.9353,-2.9749,-3.0526,-3.0203,-3.0159,0.0,0.0,0.0,0.0,0.0,0.0,0.0,-0.1746,-0.2805,-0.6002,-0.6981,-0.8045,-1.0737,-1.3347,-1.5591,-1.728,-1.8742,-2.0164,-2.1587,-2.1248,-2.1658,-2.377,-2.4488,-2.4765,-2.4861,-2.4594,-2.4337,-2.4327,-2.3917,-2.3857,-2.4306,-2.4326,-2.4277,-2.4077,-2.3998,-2.4048,-2.4201,-2.3927,-2.4563,-2.6268,-2.6019,-2.6517,-2.7522,-2.7301,-2.7301,-2.7441,-2.7301,-2.7231,-2.7231,-2.7777,-2.8018,-2.8167,-2.9691,-3.0519,-3.1031,-3.1882,-3.2646,-3.3171,-3.3241,-3.3326,-3.3326,-3.3466,-3.3536,-3.3605,-3.3827,-3.423,-3.4581,-3.4036,-3.3814,-3.3678,-3.3589,-3.3027,-3.2602,-3.3134,-3.2989,-3.2773,-3.2773,-3.2594,-3.2342,-3.2342,-3.2247,-3.2206,-3.2287,-3.2247,-3.2191,-3.2398,-3.2398,-3.2398,-3.2398,-3.2398,-3.2523,-3.2843,-3.2382,-3.18,-3.1236,-3.0193,-2.9766,-3.0208,-3.013,-2.9884,-2.9502,-2.9221,-2.9127,-2.916,-2.916,-2.9587,-3.0359,-3.0488,-3.0909,-3.1677,-3.1704,-3.1878,0.3579,0.2477,0.2211,0.2399,0.1386,-0.0206,0.0,-0.3571,-0.4924,-0.7357,-0.8717,-0.9798,-1.1201,-1.3381,-1.547,-1.7116,-1.8032,-1.8999,-2.0331,-2.0602,-2.0773,-2.1033,-2.2394,-2.3396,-2.3667,-2.3841,-2.3831,-2.3667,-2.3319,-2.3418,-2.3859,-2.3689,-2.3683,-2.4069,-2.3712,-2.339,-2.3152,-2.279,-2.3541,-2.5326,-2.5084,-2.5841,-2.7522,-2.7301,-2.7231,-2.7231,-2.7231,-2.7231,-2.7231,-2.7313,-2.7301,-2.7464,-2.8779,-2.9549,-3.0075,-3.1955,-3.2704,-3.2846,-3.3171,-3.3326,-3.3326,-3.3326,-3.3466,-3.3605,-3.3605,-3.3792,-3.3942,-3.3868,-3.3362,-3.3026,-3.3424,-3.2859,-3.2256,-3.2827,-3.2703,-3.2453,-3.2453,-3.2342,-3.2247,-3.2247,-3.2094,-3.2053,-3.2038,-3.2038,-3.2094,-3.2342,-3.2398,-3.2398,-3.2398,-3.2398,-3.2523,-3.2843,-3.2834,-3.2347,-3.1284,-3.0408,-2.9984,-3.0011,-3.0477,-3.0567,-3.0194,-3.0136,-3.0041,-2.9789,-2.9805,-3.0189,-3.0994,-3.1022,-3.1426,-3.2204,-3.2233,-3.2446,0.3799,0.2654,0.2016,0.1953,0.1297,-0.0075,-0.263,-0.3649,-0.4849,-0.7785,-0.9205,-1.0157,-1.1242,-1.3373,-1.5223,0.0,-1.6642,-1.7569,-1.8772,-1.8488,-1.8756,-2.024,-2.0503,-2.1221,-2.2696,-2.2969,-2.2969,-2.2882,-2.2794,-2.2888,-2.3409,-2.3248,-2.3338,-2.3663,-2.3183,-2.2966,-2.2875,-2.2292,-2.2765,-2.4221,-2.3963,-2.4723,-2.6505,-2.6434,-2.6704,-2.7231,-2.7231,-2.7231,-2.7231,-2.7231,-2.7231,-2.7301,-2.8247,-2.8712,-2.9094,-3.122,-3.2345,-3.2704,-3.286,-3.3086,-3.3326,-3.3326,-3.3396,-3.3466,-3.3466,-3.3462,-3.3436,-3.3064,-3.2501,-3.2072,-3.2106,-3.159,-3.1175,-3.1667,-3.1667,-3.1595,-3.1595,-3.1422,-3.1233,-3.1233,-3.1248,-3.1204,-3.0881,-3.1073,-3.1379,-3.1564,-3.1951,-3.2206,-3.2287,-3.2287,-3.2358,-3.2594,-3.2238,-3.1762,-3.1036,-3.0402,-2.9977,-2.971,-3.0087,-3.0215,-3.0087,-3.006,-3.0017,-2.9918,-3.0279,-3.0635,-3.0972,-3.1486,-3.2085,-3.2816,-3.2987,-3.3373,0.3697,0.2695,0.1996,0.1828,0.0999,-0.0322,-0.2459,-0.3441,-0.4716,-0.7688,-0.8999,-1.0035,-1.1298,-1.3122,-1.4551,-1.5012,-1.5468,-1.6089,-1.7382,-1.6915,-1.7188,-1.9039,-1.8856,-1.9306,-2.115,-2.1704,-2.2157,-2.2353,-2.2353,-2.2485,-2.2796,-2.2819,-2.2924,-2.3029,-2.275,-2.2602,-2.2602,-2.2023,-2.2255,-2.3367,-2.3183,-2.3953,-2.5495,-2.5663,-2.6351,-2.7231,-2.7231,-2.7231,-2.7231,-2.7231,-2.7231,-2.7231,-2.7938,-2.8179,-2.8407,-3.033,-3.1529,-3.2318,-3.2704,-3.3086,-3.3326,-3.3326,-3.3326,-3.3326,-3.3326,-3.3326,-3.3227,-3.2778,-3.2216,-3.173,-3.1503,-3.0984,-3.065,-3.0955,-3.1029,-3.1029,-3.1029,-3.0703,-3.045,-3.045,-3.045,-3.0329,-2.995,-3.0208,-3.045,-3.0555,-3.1175,-3.1739,-3.2094,-3.2191,-3.2247,-3.2398,-3.1782,-3.1288,-3.1016,-3.0631,-3.0259,-3.0002,-3.0306,-3.0502,-3.0502,-3.0502,-3.0502,-3.0502,-3.0975,-3.1316,-3.1526,-3.2138,-3.2803,-3.3453,-3.3663,-3.4037,0.2844,0.239,0.1973,0.2171,0.0398,-0.1517,-0.1808,-0.334,-0.5201,-0.7115,-0.8249,-0.95,-1.1359,-1.2346,-1.3444,-1.5074,-1.4766,-1.486,-1.6351,-1.6539,-1.6539,-1.6633,-1.7475,-1.8126,0.0,-2.0042,-2.1418,-2.2344,-2.2185,-2.2106,-2.2115,-2.2207,-2.2327,-2.2346,-2.2337,-2.2327,-2.2327,-2.1933,-2.2167,-2.3096,-2.3096,-2.3617,-2.4584,-2.5411,-2.6351,-2.7231,-2.7231,-2.7231,-2.7231,-2.7231,-2.7231,-2.7231,-2.7938,-2.8179,-2.8327,-2.9184,-3.0228,-3.1402,-3.2789,-3.3326,-3.3326,-3.3326,-3.3326,-3.3326,-3.3326,-3.3326,-3.3326,-3.3297,-3.2848,-3.2365,-3.219,-3.166,-3.1137,-3.1057,-3.1029,-3.1029,-3.1029,-3.0644,-3.0329,-3.0329,-2.9889,-2.9504,-2.9504,-2.9504,-2.9566,-2.9566,-3.0133,-3.0881,-3.1868,-3.215,-3.2247,-3.2398,-3.1782,-3.1382,-3.1404,-3.1268,-3.1176,-3.116,-3.1646,-3.1947,-3.1947,-3.1947,-3.1947,-3.1947,-3.1963,-3.2319,-3.3016,-3.3048,-3.3404,-3.4068,-3.4068,-3.4184,0.2208,0.1828,0.1237,0.1126,0.0335,-0.0778,-0.1764,-0.2671,-0.3926,-0.6186,-0.7214,-0.8278,-0.9789,-1.114,-1.2307,-1.3356,-1.3491,-1.3897,-1.4924,-1.486,-1.514,-1.6163,-1.5988,0.0,0.0,0.0,0.0,-2.0709,-2.1284,-2.166,-2.166,-2.1689,-2.1798,-2.2052,-2.1808,-2.1708,-2.1868,-2.1581,-2.1553,-2.1695,-2.2482,-2.3347,-2.4307,-2.5316,-2.6351,-2.7231,-2.7231,-2.7231,-2.7231,-2.7231,-2.7231,-2.7231,-2.7464,-2.7545,-2.7615,-2.8597,-2.9434,-3.0367,-3.1663,-3.2646,-3.3326,-3.3326,-3.3326,-3.3326,-3.3326,-3.3326,-3.3326,-3.3326,-3.289,-3.2326,-3.1839,-3.1253,-3.0602,-3.0178,-2.9884,-2.9761,-2.9761,-2.9261,-2.8817,-2.8817,-2.8853,-2.8712,-2.8274,-2.8519,-2.8967,-2.9442,-3.0208,-3.0955,-3.1769,-3.2038,-3.2247,-3.2247,-3.2143,-3.1874,-3.1428,-3.1654,-3.1647,-3.1239,-3.171,-3.2012,-3.2012,-3.2012,-3.2012,-3.2012,-3.2481,-3.2838,-3.308,-3.3534,-3.3874,-3.4101,-3.4201,-3.4511,0.1616,0.1397,0.1056,0.0507,0.0087,-0.0529,-0.1519,-0.2048,-0.291,-0.4769,-0.5775,-0.6892,-0.8255,-0.9737,-1.0953,-1.1773,-1.2488,-1.3134,-1.3674,-1.3732,-1.4112,-1.5134,-1.4771,-1.4962,0.0,0.0,0.0,-1.9712,-2.0736,-2.1293,-2.1293,-2.1428,-2.1626,-2.1877,-2.1643,-2.1534,-2.16,-2.14,-2.1195,-2.0988,-2.1774,-2.2736,-2.3867,-2.4628,-2.5663,-2.6962,-2.6962,-2.7056,-2.7231,-2.7231,-2.7231,-2.7231,-2.7231,-2.7231,-2.7301,-2.8039,-2.89,-2.9845,-3.097,-3.2114,-3.3086,-3.3086,-3.3171,-3.3326,-3.3326,-3.3326,-3.3326,-3.3326,-3.3031,-3.2595,-3.1977,-3.1499,-3.0914,-2.9945,-2.9545,-2.9297,-2.9013,-2.8471,-2.8146,-2.8345,-2.8425,-2.8345,-2.7904,-2.7987,-2.8352,-2.9016,-2.9594,-3.0404,-3.167,-3.194,-3.2094,-3.2191,-3.2302,-3.2173,-3.1782,-3.23,-3.244,-3.1997,-3.2449,-3.2757,-3.2757,-3.2757,-3.2757,-3.2757,-3.321,-3.3453,-3.3453,-3.389,-3.4101,-3.4101,-3.446,-3.4834,0.101,0.114,0.1355,0.026,-0.0354,-0.0807,-0.1075,-0.1587,-0.2256,-0.3019,-0.4159,-0.5433,-0.6948,-0.8376,-0.9576,-1.0573,-1.1695,-1.2494,-1.2791,-1.3152,-1.3448,0.0,-1.3756,-1.4045,0.0,0.0,0.0,-1.912,0.0,-2.0916,-2.0934,-2.1304,-2.16,-2.16,-2.16,-2.1591,-2.1573,-2.1183,-2.0997,-2.0997,-2.0997,-2.1872,-2.3347,-2.3434,-2.4542,-2.6528,-2.6528,-2.6787,-2.7231,-2.7231,-2.7231,-2.7231,-2.7231,-2.7231,-2.7231,-2.7452,-2.8371,-2.9781,-3.0732,-3.1783,-3.2704,-3.2704,-3.2931,-3.3241,-3.3326,-3.3326,-3.3326,-3.3326,-3.3326,-3.3185,-3.2567,-3.2398,-3.1954,-3.0394,-3.0024,-2.9714,-2.8869,-2.8408,-2.8292,-2.8852,-2.8686,-2.8412,-2.8386,-2.7941,-2.7749,-2.8417,-2.8481,-2.9282,-3.1467,-3.1727,-3.1826,-3.215,-3.2191,-3.2247,-3.2398,-3.2958,-3.3309,-3.3309,-3.3797,-3.4101,-3.4101,-3.4101,-3.4101,-3.4101,-3.4101,-3.4101,-3.4101,-3.4101,-3.4066,-3.4115,-3.481,-3.5009,0.13,0.1013,0.052,0.0089,-0.0357,-0.0714,-0.0968,-0.1309,-0.1884,-0.3091,-0.3897,-0.4859,-0.6659,-0.8173,-0.9533,-1.0697,-1.1589,-1.2401,-1.2984,-1.3152,-1.3316,-1.3495,-1.3715,-1.3987,-1.4165,-1.527,0.0,0.0,-1.8511,-1.9553,-2.0011,-2.0881,-2.1322,-2.1322,-2.1322,-2.109,-2.062,-2.0516,-2.0464,-2.0464,-2.0645,-2.1615,-2.3183,-2.3347,-2.4542,-2.6528,-2.6528,-2.6787,-2.7231,-2.7231,-2.7231,-2.7231,-2.7231,-2.7231,-2.7231,-2.7219,-2.7857,-2.8712,-2.9381,-3.0745,-3.2273,-3.2632,-3.2775,-3.2931,-3.3241,-3.3326,-3.3326,-3.3326,-3.3326,-3.3185,-3.2567,-3.2179,-3.1764,-3.0853,-2.9915,-2.9268,-2.9441,-2.8889,-2.8484,-2.9061,-2.9123,-2.8908,-2.8464,-2.8255,-2.8277,-2.8484,-2.8481,-2.903,-3.0644,-3.097,-3.1278,-3.1826,-3.2094,-3.2191,-3.2247,-3.2703,-3.3005,-3.3005,-3.3503,-3.3797,-3.3797,-3.4,-3.4101,-3.4101,-3.4101,-3.4,-3.3797,-3.3797,-3.3982,-3.4228,-3.4457,-3.5147,0.0758,0.0434,-0.0088,-0.0447,-0.0624,-0.0968,-0.1292,-0.152,-0.18,-0.2691,-0.3231,-0.3914,-0.5464,-0.7056,-0.8512,-0.9693,-1.1009,-1.2064,-1.2347,-1.2791,-1.304,-1.3281,-1.3607,-1.3807,-1.4055,-1.4784,-1.5184,0.0,-1.7724,-1.9249,-1.9343,-2.0575,-2.1077,-2.0916,-2.0916,-2.0746,-2.0292,-2.0292,-2.0292,-2.0292,-2.0473,-2.1177,-2.2403,-2.2746,-2.3856,-2.5495,0.0,-2.6207,-2.6644,-2.6644,-2.6727,-2.688,-2.688,-2.7056,-2.7231,-2.7231,-2.7626,-2.8259,-2.8554,-2.9781,-3.1307,-3.1982,-3.2345,-3.2489,-3.2717,-3.2803,-3.2803,-3.2803,-3.2803,-3.272,-3.2387,-3.2066,-3.176,-3.0963,-3.021,-2.9648,-2.9601,-2.9153,-2.8948,-2.9536,-2.9653,-2.947,-2.8869,-2.8556,-2.8313,-2.8132,-2.8039,-2.8417,-2.947,-3.0208,-3.0837,-3.1278,-3.1796,-3.215,-3.2191,-3.2609,-3.2897,-3.2897,-3.3309,-3.3503,-3.3503,-3.3658,-3.3761,-3.3761,-3.3761,-3.3642,-3.3503,-3.3503,-3.3816,-3.4297,-3.4652,-3.5363,-0.0261,-0.0443,-0.0538,-0.0987,-0.106,-0.1124,-0.1768,-0.1859,-0.1849,-0.2186,-0.2538,-0.309,-0.4082,-0.5661,-0.7269,-0.8422,-1.0309,-1.1658,-1.1716,-1.2341,-1.285,-1.3077,-1.3336,-1.3556,-1.381,-1.3968,-1.4082,-1.427,-1.7441,-1.9109,-1.8678,-1.9992,-2.0688,-2.049,-2.0432,-2.0387,-2.0209,-2.0292,-2.0292,-2.0292,-2.0292,-2.0645,-2.1445,-2.205,-2.2999,-2.4135,0.0,0.0,-2.5895,-2.5895,-2.6135,-2.6445,-2.6445,-2.6704,-2.7138,-2.7138,-2.7545,-2.8099,-2.8179,-2.8882,-2.9947,-3.1097,-3.169,-3.2055,-3.2055,-3.2128,-3.2128,-3.2128,-3.2128,-3.2128,-3.2128,-3.2055,-3.1861,-3.0989,-3.0743,-3.044,-2.966,-2.951,-2.9653,-3.015,-3.0116,-2.9868,-2.9366,-2.8778,-2.819,-2.7548,-2.7456,-2.7723,-2.8287,-2.947,-3.0329,-3.0584,-3.1321,-3.1853,-3.2007,-3.2484,-3.2788,-3.2843,-3.3096,-3.3256,-3.3256,-3.3309,-3.3309,-3.3309,-3.3309,-3.3309,-3.3256,-3.3256,-3.3597,-3.4258,-3.487,-3.5446,-0.0621,-0.0626,-0.0718,-0.0987,-0.106,-0.112,-0.1733,-0.1735,-0.1868,-0.2423,-0.2861,-0.345,-0.4207,-0.5631,-0.7241,-0.8861,-1.0184,-1.1352,-1.2486,-1.2737,-1.285,-1.3077,-1.3388,-1.361,-1.3843,-1.4256,0.0,0.0,0.0,-1.7029,-1.7399,-1.8252,-1.8985,-1.9621,-1.9706,-1.977,-1.9737,-2.0102,-2.0292,-2.0292,-2.0292,-2.0645,-2.1445,-2.205,-2.2999,-2.4135,-2.484,0.0,-2.5895,-2.5895,-2.5895,-2.5979,-2.5979,-2.6218,-2.661,-2.661,-2.6962,-2.7464,-2.8018,-2.8339,-2.8791,-3.0304,-3.1158,-3.1776,-3.1982,-3.2128,-3.2128,-3.2128,-3.2128,-3.2128,-3.2128,-3.1909,-3.1676,-3.1496,-3.0831,-3.0302,-3.0607,-3.0686,-3.0712,-3.0817,-3.029,-2.971,-2.9139,-2.8568,-2.7997,-2.7426,-2.7403,-2.7523,-2.7656,-2.8352,-2.9093,-2.9628,-3.0254,-3.0748,-3.116,-3.1652,-3.2064,-3.2453,-3.2773,-3.2951,-3.2951,-3.3203,-3.3309,-3.3309,-3.3309,-3.3203,-3.2951,-3.2951,-3.3243,-3.3788,-3.3954,-3.479,-0.107,-0.1076,-0.1076,-0.1256,-0.1227,-0.1353,-0.1936,-0.1981,-0.2065,-0.2682,-0.2983,-0.3297,-0.3797,-0.4951,-0.6242,-0.7302,-0.8797,-1.0259,-1.1323,-1.1926,-1.2431,-1.3034,-1.3211,-1.3427,-1.3787,-1.4028,-1.4199,-1.4199,0.0,-1.5481,-1.6826,-1.7869,-1.8567,-1.8964,-1.9095,-1.9188,-1.9188,-1.9646,-1.992,-1.992,-2.0201,-2.0473,-2.0826,-2.1961,-2.2746,-2.327,-2.4337,0.0,-2.5137,-2.5137,-2.5306,-2.5549,-2.5549,-2.5957,-2.6528,-2.6528,-2.6798,-2.7231,-2.7545,-2.7938,-2.8327,-2.9081,-3.0012,-3.0797,-3.0934,-3.1246,-3.1556,-3.1556,-3.1556,-3.1556,-3.1556,-3.1421,-3.1272,-3.1272,-3.0926,-3.066,-3.0934,-3.0911,-3.0836,-3.0986,-3.0355,-2.9624,-2.921,-2.8638,-2.8053,-2.7481,-2.7469,-2.7523,-2.7523,-2.7776,-2.8287,-2.9184,-2.9903,-3.045,-3.0866,-3.1364,-3.1796,-3.2007,-3.2413,-3.2648,-3.2648,-3.2523,-3.2563,-3.285,-3.2578,-3.2413,-3.2262,-3.2599,-3.2968,-3.3332,-3.3675,-3.4424,-0.1419,-0.143,-0.1436,-0.1436,-0.1386,-0.1489,-0.2139,-0.2205,-0.2228,-0.2878,-0.2984,-0.2985,-0.328,-0.4156,-0.5064,-0.57,-0.7352,-0.8995,-1.0121,-1.101,-1.1902,-1.2931,-1.3077,-1.3254,-1.3631,-1.3712,0.0,-1.3744,0.0,0.0,-1.6049,-1.74,-1.8095,-1.8095,-1.8411,-1.8643,-1.8643,-1.9188,-1.9463,-1.9455,-1.9837,-2.0019,-2.0192,-2.1427,-2.2138,-2.2482,-2.3744,0.0,0.0,-2.454,-2.47,-2.5031,-2.5031,-2.5527,-2.6196,-2.6196,-2.6539,-2.6891,-2.6891,-2.729,-2.7846,-2.7846,-2.87,-2.9806,-2.9806,-3.0203,-3.0583,-3.0748,-3.0823,-3.0823,-3.0986,-3.0986,-3.0986,-3.0986,-3.0986,-3.0986,-3.0986,-3.0849,-3.0773,-3.0911,-3.019,-2.9494,-2.921,-2.8604,-2.7978,-2.7535,-2.7469,-2.7523,-2.7523,-2.7523,-2.7855,-2.878,-2.9498,-3.0086,-3.0539,-3.1087,-3.1495,-3.1682,-3.2064,-3.2287,-3.2398,-3.1951,-3.1894,-3.2231,-3.1781,-3.1552,-3.1552,-3.2182,-3.2601,-3.2849,-3.3431,-3.4061,-0.1393,-0.1414,-0.1436,-0.1436,-0.137,-0.146,-0.2131,-0.2072,-0.2123,-0.2853,-0.2828,-0.2817,-0.3024,-0.364,-0.4481,-0.5716,-0.6659,-0.8037,-1.0274,-1.0773,-1.1361,-1.2635,-1.298,-1.312,-1.3163,-1.3378,-1.3513,-1.3513,0.0,0.0,-1.4122,-1.5593,-1.6421,-1.6421,-1.7527,-1.8179,-1.8179,-1.8643,-1.8827,-1.8827,-1.892,-1.9188,-1.9729,-2.0447,-2.1338,-2.2394,-2.3222,0.0,0.0,-2.454,-2.454,-2.454,-2.454,-2.4871,-2.5285,-2.5285,-2.5633,-2.599,-2.599,-2.6302,-2.6693,-2.6693,-2.7799,-2.916,-2.916,-2.9238,-2.9394,-2.996,-3.0114,-3.019,-3.0823,-3.0986,-3.0986,-3.0986,-3.0986,-3.0986,-3.0986,-3.0849,-3.0698,-3.0698,-2.9658,-2.8826,-2.8774,-2.8001,-2.74,-2.7348,-2.7403,-2.7523,-2.7523,-2.7523,-2.7669,-2.8145,-2.8522,-2.9071,-2.9808,-3.0237,-3.0792,-3.1682,-3.1739,-3.1951,-3.2398,-3.1951,-3.1724,-3.1781,-3.1321,-3.1087,-3.1087,-3.1677,-3.2079,-3.232,-3.2889,-3.336,-0.2157,-0.2206,-0.2234,-0.1943,-0.1948,-0.2094,-0.2245,-0.2252,-0.2429,-0.2911,-0.2856,-0.2795,-0.2864,-0.321,-0.3628,-0.4173,-0.4956,-0.5995,-0.7469,-0.8225,-0.9338,-1.1104,-1.1487,-1.1996,0.0,0.0,-1.3254,0.0,0.0,0.0,-1.3244,-1.5146,-1.619,-1.619,-1.7138,-1.7613,-1.7613,-1.8079,-1.8365,-1.8365,-1.8643,-1.892,-1.9096,-1.9812,-2.043,-2.0962,-2.2394,0.0,0.0,-2.4186,-2.454,-2.454,-2.454,-2.4786,-2.52,-2.52,-2.5464,-2.5895,-2.5895,-2.5979,-2.6135,-2.6135,-2.661,-2.7336,-2.8315,-2.8779,-2.916,-2.9394,-2.9484,-2.9561,-2.9793,-3.0114,-3.0508,-3.0911,-3.0911,-3.0849,-3.0849,-3.0546,-3.0394,-3.0622,-2.9558,-2.863,-2.899,-2.8101,-2.7335,-2.7403,-2.7469,-2.7523,-2.7523,-2.7523,-2.7669,-2.8079,-2.8406,-2.8844,-2.9338,-2.9946,-3.0433,-3.0851,-3.1146,-3.1364,-3.1537,-3.1131,-3.097,-3.1263,-3.0792,-3.0553,-3.0553,-3.1192,-3.1452,-3.1457,-3.2075,-3.2458,-0.2424,-0.2415,-0.2367,-0.1988,-0.2072,-0.2289,-0.2287,-0.2361,-0.2601,-0.2941,-0.2905,-0.2842,-0.2895,-0.307,-0.3251,-0.3345,-0.3981,-0.4781,-0.5906,-0.6579,-0.7737,-0.9701,-0.9939,-1.0614,0.0,-1.2761,-1.3007,0.0,0.0,0.0,0.0,-1.4573,-1.5622,-1.5906,-1.6756,-1.7326,-1.7326,-1.7707,-1.7893,-1.7893,-1.8172,-1.8458,-1.8643,-1.9088,-1.953,-1.9977,0.0,0.0,0.0,-2.3917,-2.4368,-2.4464,-2.4454,-2.4711,-2.4946,-2.4946,-2.5211,-2.5475,-2.5475,-2.5559,-2.5728,-2.5728,-2.5812,-2.6063,-2.7208,-2.7834,-2.8211,-2.8359,-2.8585,-2.8755,-2.8834,-2.9394,-2.9947,-3.0508,-3.0685,-3.0698,-3.0609,-3.0305,-3.0152,-3.047,-2.9538,-2.8822,-2.9074,-2.8313,-2.7598,-2.7482,-2.7523,-2.7523,-2.7523,-2.7523,-2.7669,-2.8079,-2.8406,-2.8716,-2.9099,-2.9713,-3.0144,-3.0312,-3.0613,-3.0851,-3.097,-3.0553,-3.0433,-3.0792,-3.0312,-3.0083,-3.0083,-3.0757,-3.1059,-3.0922,-3.1557,-3.1949,-0.1798,-0.1547,-0.1348,-0.1348,-0.152,-0.1818,-0.2193,-0.2326,-0.2551,-0.3007,-0.295,-0.2881,-0.3056,-0.3283,-0.351,-0.3742,-0.4054,-0.4784,-0.6534,-0.6668,-0.7154,-0.8702,-0.8687,-0.9035,-1.0459,-1.1935,0.0,0.0,0.0,0.0,0.0,-1.3522,-1.4286,-1.5051,-1.6567,-1.7326,-1.7326,-1.7333,-1.7333,-1.7333,-1.7326,-1.7613,-1.8087,-1.8087,-1.8812,0.0,0.0,0.0,0.0,-2.3754,-2.4206,-2.4196,-2.4454,-2.454,-2.454,-2.454,-2.454,-2.454,-2.454,-2.4786,-2.52,-2.52,-2.5549,-2.5895,-2.5906,-2.5895,-2.6052,-2.6659,-2.7279,-2.7924,-2.8335,-2.89,-2.9447,-2.9691,-3.0203,-3.0622,-3.0444,-3.0228,-3.0075,-3.0088,-2.9769,-2.933,-2.8682,-2.8472,-2.8177,-2.7615,-2.7523,-2.7523,-2.7523,-2.7523,-2.7669,-2.8079,-2.8406,-2.8716,-2.9099,-2.9415,-2.9789,-3.0251,-3.0312,-3.0493,-3.097,-3.0553,-3.0312,-3.0312,-2.9851,-2.9602,-2.9617,-3.0498,-3.0894,-3.0936,-3.1714,-3.1909,-0.2967,-0.2905,-0.2795,-0.2328,-0.2561,-0.2777,-0.247,-0.2652,-0.2839,-0.2991,-0.2952,-0.295,-0.3068,-0.3207,-0.3368,-0.3528,-0.3652,-0.3978,-0.4628,-0.5059,-0.574,-0.7234,-0.9129,-1.0807,0.0,0.0,0.0,0.0,0.0,0.0,0.0,-1.3528,-1.4286,-1.5051,-1.6001,-1.6763,-1.7326,-1.7326,-1.7326,-1.7326,-1.7326,-1.7426,-1.752,-1.752,0.0,0.0,0.0,0.0,0.0,-2.2482,-2.3387,-2.3927,-2.4013,-2.4013,-2.4013,-2.4196,-2.4292,-2.4282,-2.4454,-2.4625,-2.47,-2.47,-2.4786,-2.4967,-2.4967,-2.5391,-2.5979,-2.6124,-2.6362,-2.6599,-2.7139,-2.7452,-2.7936,-2.8991,-2.9328,-2.9509,-3.0062,-3.0011,-2.9934,-3.0075,-2.9543,-2.906,-2.8864,-2.8344,-2.7902,-2.7548,-2.7523,-2.7523,-2.7523,-2.7523,-2.7536,-2.7669,-2.8,-2.8471,-2.9035,-2.9415,-2.9665,-2.9789,-2.9851,-2.9898,-3.0021,-2.9898,-2.9851,-2.9851,-2.9792,-2.9808,-2.9808,-2.9868,-2.9944,-3.0185,-3.0937,-3.1272,-0.3107,-0.3055,-0.2873,-0.2504,-0.2739,-0.2963,-0.2601,-0.2748,-0.2915,-0.3009,-0.3015,-0.3045,-0.3073,-0.3164,-0.3264,-0.3449,-0.3495,-0.3666,-0.3964,-0.4378,-0.514,-0.6632,-0.8898,0.0,0.0,0.0,0.0,0.0,0.0,0.0,0.0,-1.2845,-1.3516,-1.428,-1.552,-1.6567,-1.7326,-1.7326,-1.7326,-1.7326,-1.7326,-1.7326,-1.7326,-1.7326,0.0,0.0,0.0,0.0,0.0,-2.1587,-2.257,-2.3212,-2.3657,-2.3841,-2.3841,-2.411,-2.4206,-2.4206,-2.4454,-2.454,-2.454,-2.454,-2.454,-2.454,-2.454,-2.4882,-2.5391,-2.5391,-2.5391,-2.5464,-2.6008,-2.6412,-2.6812,-2.7879,-2.8462,-2.8961,-2.9431,-2.9689,-2.9869,-2.9934,-2.9643,-2.9302,-2.9113,-2.8607,-2.8099,-2.7806,-2.76,-2.7523,-2.7523,-2.7523,-2.7536,-2.7736,-2.7947,-2.8341,-2.8844,-2.9099,-2.9289,-2.9415,-2.9415,-2.9415,-2.9415,-2.954,-2.9589,-2.9545,-2.9776,-2.9934,-3.0049,-2.9943,-3.003,-3.0289,-3.0795,-3.0986,0.0,-0.2284,-0.2067,-0.2063,-0.2286,-0.25,-0.2495,-0.2636,0.0,-0.2988,-0.3011,-0.3047,-0.3083,-0.3169,-0.3303,-0.3466,-0.3541,-0.3768,-0.4297,-0.4608,-0.5328,0.0,-0.82,0.0,-1.0496,0.0,0.0,0.0,0.0,0.0,0.0,-1.1683,-1.2262,-1.3119,-1.5038,-1.6473,-1.7232,-1.7232,-1.7326,-1.7326,-1.7326,-1.7326,-1.7326,-1.7326,0.0,0.0,0.0,0.0,0.0,-2.0953,-2.1854,-2.2129,-2.3212,-2.3667,-2.3754,-2.4024,-2.4206,-2.4206,-2.4368,-2.4454,-2.454,-2.454,-2.454,-2.454,-2.454,-2.454,-2.454,-2.454,-2.454,-2.4625,-2.5031,-2.56,-2.608,-2.6351,-2.7568,-2.8554,-2.8542,-2.9131,-2.9714,-2.9792,-2.9934,-2.9897,-2.9301,-2.9074,-2.8737,-2.8143,-2.7767,-2.7456,-2.7456,-2.7456,-2.7669,-2.8013,-2.8079,-2.821,-2.8536,-2.8587,-2.878,-2.9035,-2.9099,-2.9099,-2.9099,-2.9352,-2.9503,-2.9414,-2.9775,-3.0037,-3.0294,-3.0535,-3.0731,-3.0934,-3.096,-3.0986,-0.2659,0.0,-0.2602,-0.2539,-0.2617,-0.2694,0.0,-0.2749,-0.2832,-0.2852,-0.2909,-0.3065,-0.3164,-0.3211,-0.3318,-0.3668,-0.373,-0.3841,-0.4204,-0.4823,0.0,-0.7293,-0.8245,-0.9249,-1.0028,0.0,0.0,0.0,0.0,0.0,0.0,-1.1292,-1.1868,-1.3022,-1.4172,-1.5324,-1.6473,-1.7044,-1.7326,-1.7326,-1.7326,-1.7326,-1.7326,-1.7326,0.0,0.0,0.0,0.0,-1.888,-1.933,-2.0421,-2.1784,-2.205,-2.2589,-2.3319,-2.359,-2.3764,-2.3927,-2.4196,-2.4378,-2.454,-2.454,-2.454,-2.454,-2.454,-2.454,-2.454,-2.454,-2.454,-2.454,-2.4625,-2.4786,-2.502,-2.5757,-2.6235,-2.6894,-2.8211,-2.8633,-2.904,-2.9702,-2.9869,-2.9757,-2.9314,-2.8842,-2.8367,-2.7908,-2.755,-2.7335,-2.7335,-2.7469,-2.7536,-2.7603,-2.7669,-2.7669,-2.7723,-2.8509,-2.8908,-2.8716,-2.8972,-2.8972,-2.8716,-2.878,-2.8975,-2.9414,-3.0075,-3.0344,-3.0145,-3.065,-3.0708,-3.0346,-3.0777,-3.0986,-0.2691,-0.2787,-0.2875,-0.2823,-0.2848,-0.2872,-0.2821,-0.2787,-0.2764,-0.2764,-0.2834,-0.2938,-0.3077,-0.3171,-0.3318,-0.3597,-0.371,-0.3968,-0.4421,-0.4915,-0.5787,-0.7195,-0.812,-0.9015,0.0,0.0,0.0,0.0,0.0,0.0,0.0,-1.0708,-1.1189,-1.1863,-1.3119,-1.4555,-1.619,-1.6951,-1.7326,-1.7326,-1.7326,-1.7326,-1.7326,-1.7326,-1.7326,0.0,0.0,0.0,-1.8149,-1.8611,-1.943,-2.0421,-2.1329,-2.205,-2.2511,-2.3232,-2.358,-2.3667,-2.3937,-2.411,-2.4186,-2.4186,-2.4186,-2.4186,-2.4368,-2.4368,-2.4368,-2.4454,-2.454,-2.454,-2.454,-2.454,-2.4615,-2.5105,-2.5505,-2.6069,-2.7058,-2.7557,-2.7971,-2.8474,-2.844,-2.8329,-2.8484,-2.7928,-2.7523,-2.7787,-2.7481,-2.7335,-2.7403,-2.7469,-2.7523,-2.7523,-2.7523,-2.7523,-2.7523,-2.8197,-2.8522,-2.8406,-2.8522,-2.8644,-2.8704,-2.8915,-2.9254,-2.9912,-3.048,-3.0664,-3.0516,-3.083,-3.083,-3.0529,-3.0843,-3.0986,-0.2707,-0.285,-0.3047,-0.3005,-0.3015,-0.3032,-0.3018,-0.2897,-0.2732,-0.2732,-0.2803,-0.2897,-0.3059,-0.3154,-0.3332,-0.353,0.0,0.0,-0.4767,-0.4908,-0.5514,-0.6699,-0.7621,0.0,0.0,0.0,0.0,0.0,0.0,0.0,0.0,-1.0019,-1.0314,-1.0413,-1.2058,-1.3788,-1.5812,-1.6669,-1.7232,-1.7326,-1.7326,-1.7326,-1.7326,-1.7326,-1.7326,0.0,0.0,0.0,-1.7326,-1.8241,-1.8696,-1.8972,-2.0602,-2.1427,-2.1784,-2.2872,-2.3319,-2.3503,-2.3754,-2.3841,-2.3841,-2.3841,-2.3841,-2.3841,-2.411,-2.411,-2.4196,-2.4368,-2.4454,-2.454,-2.454,-2.454,-2.454,-2.454,-2.502,-2.5663,-2.5735,-2.64,-2.6905,-2.7069,-2.6818,-2.6734,-2.7347,-2.6752,-2.6602,-2.7397,-2.7276,-2.7121,-2.739,-2.7469,-2.7469,-2.7523,-2.7523,-2.7523,-2.7523,-2.7802,-2.8013,-2.8013,-2.8159,-2.8465,-2.8957,-2.9322,-2.9858,-3.0533,-3.0834,-3.0986,-3.0986,-3.0986,-3.0986,-3.0986,-3.0986,-3.0986,-0.2785,-0.2991,-0.313,-0.2903,-0.2958,-0.305,-0.3034,-0.2995,-0.2974,-0.2974,-0.2987,-0.3101,-0.3271,-0.3387,-0.354,-0.3797,0.0,-0.4383,0.0,0.0,-0.521,-0.5425,0.0,0.0,0.0,0.0,0.0,0.0,0.0,0.0,0.0,-0.9727,-0.992,-1.0413,-1.1375,-1.2635,-1.4286,-1.5622,-1.6662,-1.7326,-1.7326,-1.7326,-1.7326,-1.7326,-1.7326,0.0,0.0,-1.7326,-1.7326,-1.7512,-1.8064,-1.8796,-1.9155,-2.024,-2.1695,-2.1882,-2.2599,-2.3503,-2.3754,-2.3841,-2.3841,-2.3841,-2.3841,-2.3841,-2.3841,-2.3841,-2.3927,-2.4196,-2.4378,-2.454,-2.454,-2.454,-2.454,-2.454,-2.4615,-2.4946,-2.5663,-2.5913,-2.6235,-2.6987,-2.7093,-2.6898,-2.6723,-2.6144,-2.5901,-2.6299,-2.6064,-2.6139,-2.6943,-2.7214,-2.7403,-2.7456,-2.7523,-2.7523,-2.7523,-2.7536,-2.759,-2.759,-2.8318,-2.8929,-2.9258,-2.9744,-3.0013,-3.0197,-3.0699,-3.0986,-3.0986,-3.0986,-3.0986,-3.0986,-3.0986,-3.0986,-0.2742,-0.2913,-0.3062,-0.2989,-0.3142,-0.3301,-0.3258,-0.3173,-0.3101,-0.3101,-0.3134,-0.3205,-0.334,-0.3477,-0.3687,-0.4057,0.0,-0.4436,-0.481,-0.4873,-0.4935,0.0,0.0,0.0,0.0,0.0,0.0,0.0,0.0,0.0,0.0,0.0,-0.9727,-0.992,-1.06,-1.1473,-1.2635,-1.4178,-1.5622,-1.6958,-1.6958,-1.6958,-1.716,-1.716,-1.7246,-1.7326,0.0,-1.7326,-1.7326,-1.7326,-1.7502,-1.7812,-1.8533,-1.9216,-2.0047,-2.1257,-2.205,-2.2599,-2.3222,-2.3406,-2.3406,-2.3406,-2.3406,-2.3493,-2.358,-2.3677,-2.3677,-2.3937,-2.411,-2.4368,-2.4454,-2.454,-2.454,-2.454,-2.454,-2.4625,-2.502,-2.5105,-2.5189,-2.56,-2.5561,-2.5387,-2.5282,-2.487,-2.4672,-2.5142,-2.523,-2.5569,-2.6427,-2.6782,-2.7134,-2.7456,-2.7523,-2.7523,-2.7523,-2.7523,-2.7523,-2.7523,-2.8195,-2.8855,-2.9261,-2.9536,-2.9967,-3.0581,-3.0555,-3.0673,-3.0986,-3.0986,-3.0986,-3.0986,-3.0986,-3.0986,-0.2717,-0.2836,-0.3038,-0.3066,-0.3248,-0.3426,-0.3509,-0.3389,-0.3277,-0.334,-0.3334,-0.3348,-0.344,-0.3601,0.0,-0.4236,-0.4393,-0.4524,-0.4685,-0.4726,0.0,0.0,0.0,0.0,0.0,0.0,0.0,0.0,0.0,0.0,0.0,0.0,-0.9628,-0.9628,-1.0019,-1.0699,-1.1853,-1.3022,-1.4472,-1.6204,-1.6487,-1.6683,-1.6878,-1.6807,-1.6858,-1.703,-1.7043,-1.7014,-1.7014,-1.7106,-1.696,-1.6853,-1.7819,-1.8249,-1.8548,-2.0439,-2.1353,-2.1774,-2.2397,-2.2872,-2.3135,-2.3135,-2.3135,-2.3125,-2.3201,-2.3268,-2.3335,-2.3398,-2.3539,-2.3846,-2.4231,-2.4368,-2.4368,-2.4368,-2.4368,-2.4454,-2.4454,-2.4454,-2.454,-2.454,-2.4178,-2.396,-2.402,-2.3694,-2.3601,-2.3993,-2.4348,-2.4791,-2.5627,-2.6126,-2.6633,-2.7108,-2.739,-2.7523,-2.7523,-2.7523,-2.7523,-2.7523,-2.8072,-2.8647,-2.9261,-2.9274,-2.9758,-3.0764,-3.0359,-3.0424,-3.0986,-3.0986,-3.0986,-3.0986,-3.0911,-3.0911,-0.2795,-0.2885,-0.3038,-0.3066,-0.3105,-0.3207,-0.354,-0.3481,-0.3424,-0.3673,-0.3656,-0.3626,-0.3718,-0.3883,-0.4071,-0.4267,-0.4447,-0.4596,-0.4696,0.0,0.0,0.0,0.0,0.0,0.0,0.0,0.0,0.0,0.0,0.0,0.0,0.0,0.0,-0.9628,-0.9628,-1.06,-1.2635,-1.2727,-1.3596,-1.514,-1.6103,-1.6588,-1.6574,-1.6288,-1.6246,-1.6239,-1.6131,-1.6092,-1.6092,-1.6351,-1.6426,-1.6404,-1.6514,-1.7308,-1.8402,-1.9143,-2.0428,-2.164,-2.1438,-2.2091,-2.3135,-2.3135,-2.3135,-2.3066,-2.2676,-2.2559,-2.2556,-2.233,-2.2304,-2.2566,-2.3629,-2.3841,-2.3841,-2.3841,-2.4024,-2.4206,-2.4206,-2.4378,-2.454,-2.454,-2.4178,-2.3732,-2.3338,-2.287,-2.2713,-2.3067,-2.3139,-2.3497,-2.4409,-2.5334,-2.5963,-2.6195,-2.6973,-2.7523,-2.7523,-2.7523,-2.7523,-2.7523,-2.8072,-2.8647,-2.9261,-2.9274,-2.9575,-3.0176,-3.015,-3.0424,-3.0986,-3.0986,-3.0986,-3.0986,-3.0849,-3.0698,-0.2734,-0.2846,-0.3038,-0.3066,-0.3134,-0.3254,-0.3556,-0.362,-0.3673,-0.3887,-0.3903,-0.3891,-0.3926,-0.3989,-0.4093,-0.4271,-0.4406,-0.4538,0.0,0.0,0.0,0.0,0.0,0.0,0.0,0.0,0.0,0.0,0.0,0.0,0.0,0.0,0.0,-0.9458,-0.9567,-1.0015,-1.0792,-1.2052,-1.2945,-1.3366,-1.5253,-1.6115,-1.6123,-1.6005,-1.5937,-1.593,-1.581,-1.5842,-1.585,-1.5931,-1.5906,-1.5908,-1.5995,-1.6535,-1.7232,-1.8048,-1.8771,-1.9459,-2.0784,-2.1379,-2.1731,-2.2785,-2.2783,-2.2383,-2.248,-2.2334,-2.209,-2.2007,-2.204,-2.2271,-2.3203,-2.3237,-2.3177,-2.371,-2.3725,-2.3689,-2.3877,-2.4013,-2.4018,-2.3914,-2.3729,-2.3464,-2.2884,-2.2615,-2.2413,-2.225,-2.2927,-2.3655,-2.4337,-2.5405,-2.6333,-2.6769,-2.7255,-2.7523,-2.7523,-2.7523,-2.7523,-2.7523,-2.7732,-2.8111,-2.8699,-2.8386,-2.8804,-3.0038,-2.9784,-2.9986,-3.0849,-3.0911,-3.0911,-3.0596,-3.0685,-3.0609,-0.2734,-0.2821,-0.2942,-0.306,-0.3138,-0.3269,-0.3595,-0.3718,-0.3824,-0.4034,-0.4057,-0.4036,-0.4036,-0.4036,0.0,0.0,-0.4375,0.0,0.0,0.0,0.0,0.0,0.0,0.0,0.0,0.0,0.0,0.0,0.0,0.0,0.0,0.0,0.0,0.0,-0.9397,-0.9555,-0.9934,-1.136,-1.2236,-1.2735,-1.4322,-1.5259,-1.5538,-1.5443,-1.5369,-1.5341,-1.5325,-1.5283,-1.5283,-1.5371,-1.5338,-1.5326,-1.5589,-1.5864,-1.6206,-1.6782,-1.7384,-1.8008,-1.9436,-2.0095,-2.0407,-2.1577,-2.1551,-2.1136,-2.1539,-2.147,-2.1303,-2.1423,-2.1465,-2.1654,-2.2416,-2.2599,-2.2739,-2.3242,-2.3348,-2.3363,-2.3523,-2.3553,-2.3509,-2.3243,-2.3113,-2.291,-2.2446,-2.2377,-2.217,-2.1859,-2.2478,-2.3139,-2.3548,-2.4838,-2.6139,-2.7066,-2.7268,-2.7335,-2.7335,-2.7403,-2.7403,-2.7335,-2.7469,-2.7706,-2.8098,-2.7732,-2.8177,-2.9562,-2.9321,-2.9613,-3.0413,-3.067,-3.0672,-3.0368,-3.0457,-3.0457,-0.2826,-0.2828,-0.287,-0.3046,-0.3093,-0.3213,-0.3661,-0.3765,-0.3842,-0.4118,-0.4102,-0.4036,-0.4036,-0.4036,0.0,-0.4269,-0.4375,0.0,0.0,0.0,0.0,0.0,0.0,0.0,0.0,0.0,0.0,0.0,0.0,0.0,0.0,0.0,0.0,0.0,-0.9096,-0.9554,-1.0551,-1.0643,-1.1558,-1.358,-1.358,-1.4134,-1.495,-1.4656,-1.4522,-1.4502,-1.445,-1.4398,-1.4398,-1.465,-1.4734,-1.4734,-1.4999,-1.5283,-1.5605,-1.5464,-1.6399,-1.7762,-1.7411,-1.8194,-1.9281,-1.9281,-1.9281,-1.9373,-1.9761,-1.9888,-1.9968,-2.0439,-2.0566,-2.0664,-2.1113,-2.1865,-2.25,-2.251,-2.3004,-2.3365,-2.2948,-2.3028,-2.3056,-2.2705,-2.2422,-2.2186,-2.2186,-2.1953,-2.1807,-2.1807,-2.1807,-2.1807,-2.1807,-2.3327,-2.5063,-2.6794,-2.7024,-2.7024,-2.7024,-2.7214,-2.7214,-2.7024,-2.7335,-2.7523,-2.7523,-2.7523,-2.7798,-2.8373,-2.8776,-2.9274,-2.9818,-3.0237,-3.0368,-3.0368,-3.0228,-3.0075,-0.2748,-0.2868,-0.3026,-0.3077,-0.333,-0.3599,-0.3732,-0.3812,-0.3936,-0.4206,-0.4193,-0.4132,-0.4132,-0.4132,0.0,0.0,0.0,0.0,0.0,0.0,0.0,0.0,0.0,0.0,0.0,0.0,0.0,0.0,0.0,0.0,0.0,0.0,0.0,0.0,-0.9031,-0.9279,-0.9554,-1.0278,-1.1116,-1.2221,-1.2945,-1.3755,-1.4649,-1.4563,-1.4409,-1.4208,-1.42,-1.4166,-1.4159,-1.4405,-1.4482,-1.4482,-1.4741,-1.4972,-1.5218,-1.5209,-1.5624,-1.6216,-1.7091,-1.7371,-1.7664,-1.8939,-1.8927,-1.8439,-1.8841,-1.8784,-1.8709,-1.9487,-1.9696,-1.9882,-2.0566,-2.1191,-2.1689,-2.2002,-2.2016,-2.1938,-2.2114,-2.2247,-2.2192,-2.1909,-2.187,-2.1837,-2.1757,-2.1747,-2.1807,-2.1807,-2.2252,-2.2916,-2.3548,-2.4552,-2.5487,-2.6114,-2.6645,-2.7024,-2.7024,-2.7011,-2.7079,-2.7024,-2.7079,-2.7146,-2.7146,-2.7268,-2.7721,-2.855,-2.8756,-2.9177,-2.9973,-3.0279,-3.0216,-3.0011,-3.0088,-3.0011,-0.2854,-0.2993,-0.3162,-0.3236,-0.3483,-0.3746,-0.3893,-0.3969,-0.4063,-0.4259,-0.4232,-0.4183,-0.4218,-0.4195,0.0,0.0,0.0,0.0,0.0,0.0,0.0,0.0,0.0,0.0,0.0,0.0,0.0,0.0,0.0,0.0,0.0,0.0,0.0,0.0,-0.8828,-0.8889,-0.8889,-0.9509,-1.0159,-1.0916,-1.1532,-1.2499,-1.3819,-1.417,-1.4255,-1.4088,-1.4088,-1.4088,-1.4088,-1.4243,-1.4237,-1.4321,-1.4482,-1.4657,-1.4831,-1.4915,-1.509,-1.5369,-1.6209,-1.6391,-1.6374,-1.7451,-1.7381,-1.7074,-1.7689,-1.7924,-1.8158,-1.9054,-1.9539,-1.9932,-2.0479,-2.0762,-2.1084,-2.1523,-2.1562,-2.1514,-2.1611,-2.1621,-2.1494,-2.1204,-2.1283,-2.1439,-2.1255,-2.1436,-2.1578,-2.1655,-2.2176,-2.2979,-2.412,-2.4696,-2.5264,-2.5988,-2.6508,-2.6807,-2.6807,-2.6875,-2.6875,-2.6807,-2.6956,-2.6956,-2.6807,-2.7079,-2.7468,-2.8011,-2.8183,-2.8673,-2.9428,-2.9707,-2.9783,-2.9792,-2.9934,-2.9934,-0.3056,-0.315,-0.3271,-0.3454,-0.3575,-0.374,-0.4083,-0.4161,-0.4187,-0.4279,-0.4238,-0.4208,-0.4285,-0.4236,-0.421,0.0,0.0,0.0,0.0,0.0,0.0,0.0,0.0,0.0,0.0,0.0,0.0,0.0,0.0,0.0,0.0,0.0,0.0,-0.8568,-0.8568,-0.8568,-0.8568,-0.8568,-0.8999,0.0,-0.9859,-1.0809,-1.2619,-1.3568,-1.3997,-1.4088,-1.4088,-1.4088,-1.4088,-1.4088,-1.4088,-1.4088,-1.4321,-1.4398,-1.4391,-1.465,-1.4824,-1.509,-1.509,-1.5173,-1.5347,-1.5347,-1.5347,-1.5499,-1.6378,-1.7269,-1.8086,-1.9054,-1.9854,-2.0489,-2.0566,-2.0566,-2.0664,-2.1074,-2.1475,-2.166,-2.126,-2.1172,-2.1055,-2.0644,-2.0741,-2.0906,-2.0906,-2.1061,-2.1282,-2.1436,-2.1655,-2.2306,-2.3745,-2.4047,-2.4696,-2.6245,-2.6452,-2.6533,-2.6533,-2.6589,-2.6658,-2.6533,-2.6807,-2.6807,-2.6533,-2.6807,-2.6969,-2.7033,-2.7405,-2.7868,-2.8353,-2.8686,-2.9126,-2.9641,-2.9641,-2.9666,-0.304,-0.3103,-0.3271,-0.3454,-0.3671,-0.3881,-0.403,-0.4065,-0.411,-0.4267,-0.4283,-0.4277,-0.4295,-0.4283,0.0,0.0,0.0,0.0,0.0,0.0,0.0,0.0,0.0,0.0,0.0,0.0,0.0,0.0,0.0,0.0,0.0,0.0,0.0,-0.8568,-0.8568,-0.8568,-0.8568,-0.8568,-0.8999,0.0,-0.9859,-1.0463,-1.1666,-1.2534,-1.3398,-1.4088,-1.4088,-1.4088,-1.4088,-1.4088,-1.4088,-1.4088,-1.4166,-1.4237,-1.4398,-1.4482,-1.4566,-1.4824,-1.4824,-1.4824,-1.4824,-1.4824,-1.4824,-1.5068,-1.6139,-1.6632,-1.7123,-1.8816,-1.946,-1.9775,-2.0411,-2.0566,-2.0586,-2.0684,-2.0781,-2.082,-2.0732,-2.0713,-2.0684,-2.0586,-2.0741,-2.0906,-2.0906,-2.1061,-2.1205,-2.1282,-2.1436,-2.1939,-2.2883,-2.361,-2.448,-2.5453,-2.6094,-2.6533,-2.6533,-2.6521,-2.6521,-2.6533,-2.6602,-2.6602,-2.6533,-2.6658,-2.6929,-2.7246,-2.7301,-2.7629,-2.8182,-2.8222,-2.8348,-2.8473,-2.8473,-2.8699,-0.2985,-0.3152,-0.3356,-0.3624,-0.3797,-0.3924,-0.4014,-0.4036,-0.4063,-0.4153,-0.4208,-0.4251,-0.4291,-0.43,0.0,0.0,0.0,0.0,0.0,0.0,0.0,0.0,0.0,0.0,0.0,0.0,0.0,0.0,0.0,0.0,0.0,-0.7669,-0.8208,-0.8568,-0.8568,-0.8568,-0.8568,-0.8568,-0.8828,-0.9257,-0.9257,-0.9772,-1.0722,-1.21,-1.3222,-1.4088,-1.4088,-1.4088,-1.4088,-1.4088,-1.4088,-1.4088,-1.4088,-1.4166,-1.4243,-1.4243,-1.4405,-1.4566,-1.4566,-1.465,-1.4734,-1.4734,-1.4734,-1.4817,-1.5401,-1.5891,-1.6535,-1.8078,-1.8559,-1.8877,-2.0245,-2.0333,-2.0089,-2.0489,-2.0566,-2.0566,-2.0566,-2.0566,-2.0566,-2.0566,-2.0654,-2.0741,-2.0741,-2.0896,-2.1051,-2.1205,-2.1359,-2.1797,-2.2756,-2.3265,-2.3998,-2.517,-2.5676,-2.6094,-2.6452,-2.6533,-2.6533,-2.6533,-2.6533,-2.6533,-2.6533,-2.6589,-2.6728,-2.6879,-2.6892,-2.7155,-2.7708,-2.7708,-2.7846,-2.8109,-2.8109,-2.826,-0.296,-0.3189,-0.3442,-0.3771,-0.3863,-0.3895,-0.3971,-0.3989,-0.3993,-0.4008,-0.4085,-0.4171,-0.424,0.0,0.0,0.0,0.0,0.0,0.0,0.0,0.0,0.0,0.0,0.0,0.0,0.0,0.0,0.0,0.0,0.0,-0.6166,-0.7048,-0.7757,-0.8388,-0.8568,-0.8568,-0.8568,-0.8568,-0.8568,-0.8568,-0.874,-0.917,-0.9946,-1.1671,-1.296,-1.3828,-1.4004,-1.4088,-1.4088,-1.4088,-1.4088,-1.4088,-1.4088,-1.4088,-1.4088,-1.4088,-1.4243,-1.4314,-1.4314,-1.4489,-1.4573,-1.4573,-1.4573,-1.465,-1.4817,-1.5387,-1.6198,-1.7334,-1.7658,-1.806,-1.9668,-1.9687,-1.946,-2.0167,-2.0489,-2.0566,-2.0566,-2.0566,-2.0566,-2.0566,-2.0566,-2.0566,-2.0566,-2.0731,-2.0896,-2.1051,-2.1282,-2.1807,-2.2767,-2.2927,-2.3508,-2.4945,-2.5241,-2.5594,-2.6245,-2.6383,-2.6533,-2.6533,-2.6533,-2.6533,-2.6533,-2.6533,-2.6533,-2.6533,-2.6533,-2.6747,-2.7143,-2.7143,-2.7369,-2.7821,-2.7821,-2.7871,-0.2736,-0.3048,-0.3411,-0.3612,-0.3722,-0.3785,-0.3797,-0.3799,-0.3822,0.0,-0.3991,-0.4059,0.0,0.0,0.0,0.0,0.0,0.0,0.0,0.0,0.0,0.0,0.0,0.0,0.0,0.0,0.0,0.0,0.0,0.0,-0.5549,-0.6786,-0.7577,-0.7669,-0.8296,-0.8568,-0.8568,-0.8568,-0.8568,-0.8568,-0.934,-0.9772,-0.9946,-1.0982,-1.2015,-1.296,-1.3743,-1.4088,-1.4088,-1.4088,-1.4088,-1.4088,-1.4088,-1.4088,-1.4088,-1.4088,-1.4088,-1.4166,-1.4166,-1.4166,-1.4166,-1.4166,-1.4166,-1.4328,-1.5296,-1.5621,-1.5951,-1.7009,-1.7496,-1.7738,-1.798,-1.8718,-1.9301,-1.946,-2.001,-2.0566,-2.0566,-2.0566,-2.0566,-2.0566,-2.0566,-2.0566,-2.0566,-2.0644,-2.0644,-2.0644,-2.0964,-2.1568,-2.2371,-2.2756,-2.335,-2.4192,-2.4862,-2.5312,-2.5453,-2.6094,-2.6533,-2.6533,-2.6533,-2.6533,-2.6533,-2.6533,-2.6533,-2.6533,-2.6533,-2.6559,-2.6634,-2.6634,-2.6603,-2.6678,-2.6678,-2.6929,-0.277,-0.3058,-0.3342,-0.3569,-0.3656,-0.3699,-0.3752,-0.3763,-0.3775,-0.3814,-0.3854,-0.3914,0.0,0.0,0.0,0.0,0.0,0.0,0.0,0.0,0.0,0.0,0.0,0.0,0.0,0.0,0.0,0.0,0.0,-0.4956,-0.5369,-0.5991,-0.6697,-0.7489,-0.7845,-0.8204,-0.8568,-0.8568,-0.8568,-0.8568,-0.8999,-0.9432,-0.9946,-1.0895,-1.1843,-1.2705,-1.3137,-1.3568,-1.4088,-1.4088,-1.4088,-1.4088,-1.4088,-1.4088,-1.4088,-1.4088,-1.4088,-1.4088,-1.4088,-1.4088,-1.4088,-1.4088,-1.4088,-1.4173,-1.465,-1.4817,-1.5144,-1.6683,-1.6854,-1.6944,-1.8718,-1.9125,-1.9292,-1.9854,-2.0323,-2.0566,-2.0566,-2.0566,-2.0566,-2.0566,-2.0566,-2.0566,-2.0566,-2.0566,-2.0644,-2.0741,-2.0896,-2.1205,-2.1634,-2.1873,-2.2317,-2.3095,-2.3463,-2.3902,-2.4409,-2.5217,-2.5734,-2.5816,-2.6245,-2.6533,-2.6533,-2.6533,-2.6533,-2.6533,-2.6533,-2.6533,-2.6533,-2.6533,-2.6533,-2.6533,-2.6533,-2.6659,-0.2828,-0.2987,-0.316,-0.3452,-0.3542,-0.3589,-0.3701,-0.3728,-0.3734,0.0,-0.3763,0.0,0.0,0.0,0.0,0.0,0.0,0.0,0.0,0.0,0.0,0.0,0.0,0.0,0.0,0.0,0.0,0.0,0.0,-0.4437,-0.5061,-0.5215,-0.5909,-0.7162,-0.7302,-0.7744,-0.8495,-0.8544,-0.8568,-0.8568,-0.8828,-0.917,-0.9602,-1.0809,-1.1671,-1.2357,-1.2875,-1.3476,-1.4088,-1.4088,-1.4088,-1.4088,-1.4088,-1.4088,-1.4088,-1.4088,-1.4088,-1.4088,-1.4088,-1.4088,-1.4088,-1.4088,-1.4088,-1.4088,-1.4088,-1.4088,-1.4412,-1.5869,-1.5959,-1.6221,-1.8559,-1.9045,-1.9125,-2.0001,-2.0333,-2.0566,-2.0566,-2.0566,-2.0566,-2.0566,-2.0566,-2.0566,-2.0566,-2.0566,-2.0644,-2.0819,-2.0906,-2.0984,-2.1128,-2.1205,-2.1425,-2.2004,-2.2285,-2.2649,-2.3379,-2.442,-2.5016,-2.4933,-2.5873,-2.6383,-2.6164,-2.6383,-2.6533,-2.6533,-2.6533,-2.6533,-2.6533,-2.6533,-2.6533,-2.6533,-2.6533,-2.6533,-0.2605,-0.2711,-0.2805,-0.3158,-0.3313,-0.3422,-0.3595,0.0,-0.3658,-0.3744,-0.3763,0.0,0.0,0.0,0.0,0.0,0.0,0.0,0.0,0.0,0.0,0.0,0.0,0.0,0.0,0.0,0.0,0.0,0.0,-0.4083,-0.4262,-0.477,-0.5434,-0.623,-0.6787,-0.7541,-0.8304,-0.8479,-0.8568,-0.8568,-0.9428,-0.9432,-0.874,-1.0467,-1.1322,-1.1494,-1.3222,-1.4082,-1.4088,-1.4088,-1.4088,-1.4088,-1.4088,-1.4088,-1.4088,-1.4088,-1.4088,-1.4088,-1.4088,-1.4088,-1.4088,-1.4088,-1.4088,-1.4088,-1.4088,-1.4088,-1.4088,-1.425,-1.4992,-1.5733,-1.5899,-1.7359,-1.8816,-1.9045,-1.9696,-2.0342,-2.0566,-2.0566,-2.0566,-2.0566,-2.0566,-2.0566,-2.0566,-2.0566,-2.0566,-2.0644,-2.0819,-2.0906,-2.0906,-2.1061,-2.1205,-2.1282,-2.1928,-2.2435,-2.251,-2.4047,-2.4707,-2.3891,-2.5511,-2.6176,-2.5382,-2.6094,-2.6533,-2.6533,-2.6533,-2.6533,-2.6533,-2.6533,-2.6533,-2.6533,-2.6533,-2.6533,-0.2481,-0.2644,-0.2821,-0.3005,-0.3164,-0.3307,-0.343,-0.3544,-0.3636,-0.3669,-0.3722,0.0,0.0,0.0,0.0,0.0,0.0,0.0,0.0,0.0,0.0,0.0,0.0,0.0,0.0,0.0,0.0,0.0,0.0,0.0,-0.4079,-0.4303,-0.4715,-0.551,-0.6056,-0.6968,-0.8109,-0.8178,-0.8211,-0.8211,-0.8543,-0.8875,-0.9122,-0.9785,-1.0693,-1.1776,-1.2437,-1.3123,-1.3801,-1.3801,-1.3801,-1.3821,-1.4015,-1.4088,-1.4088,-1.4088,-1.4088,-1.4088,-1.4088,-1.4088,-1.4088,-1.4088,-1.4088,-1.4088,-1.4088,-1.4088,-1.4257,-1.4741,-1.5235,-1.5643,-1.6363,-1.7496,-1.8638,-1.9371,-1.9854,-2.0098,-2.0342,-2.0489,-2.0566,-2.0566,-2.0566,-2.0566,-2.0566,-2.0566,-2.0566,-2.0566,-2.0654,-2.0731,-2.0731,-2.0809,-2.0799,-2.0799,-2.1098,-2.1548,-2.2166,-2.2723,-2.322,-2.3588,-2.4253,-2.4469,-2.4192,-2.5075,-2.5523,-2.5523,-2.6164,-2.6533,-2.6533,-2.6533,-2.6533,-2.6533,-2.6533,-2.6533,-0.237,-0.2527,-0.2725,-0.2875,-0.2981,-0.3095,-0.3277,-0.3409,-0.3501,-0.3532,0.0,0.0,0.0,0.0,0.0,0.0,0.0,0.0,0.0,0.0,0.0,0.0,0.0,0.0,0.0,0.0,0.0,0.0,0.0,0.0,-0.3985,-0.3961,-0.4269,-0.492,-0.5773,-0.6699,-0.7593,-0.7902,-0.8012,-0.8012,-0.8012,-0.8336,-0.8901,-0.9227,-1.0034,-1.1163,-1.1317,-1.216,-1.35,-1.35,-1.35,-1.3527,-1.3821,-1.3881,-1.3814,-1.4015,-1.4021,-1.3955,-1.4055,-1.4088,-1.4088,-1.4088,-1.4088,-1.4088,-1.4088,-1.4088,-1.425,-1.4824,-1.5144,-1.5553,-1.6281,-1.7407,-1.8461,-1.9204,-1.9618,-1.9942,-2.0108,-2.0333,-2.0489,-2.0566,-2.0566,-2.0566,-2.0566,-2.0566,-2.0566,-2.0566,-2.0566,-2.0566,-2.0566,-2.0566,-2.0566,-2.0566,-2.0566,-2.0876,-2.1568,-2.2124,-2.2563,-2.3021,-2.3829,-2.4036,-2.3514,-2.4636,-2.5087,-2.4636,-2.5804,-2.6327,-2.6094,-2.6383,-2.6533,-2.6533,-2.6533,-2.6533,0.0,0.0,0.0,-0.275,-0.2752,-0.2783,-0.3132,0.0,-0.3246,-0.334,0.0,0.0,0.0,0.0,0.0,0.0,0.0,0.0,0.0,0.0,0.0,0.0,0.0,0.0,0.0,0.0,0.0,0.0,0.0,-0.3801,-0.3891,-0.3812,-0.4075,-0.4698,-0.5988,-0.6777,-0.6777,-0.7581,-0.7996,-0.8,-0.8,-0.8,-0.7996,-0.8968,-0.9366,-0.9437,-1.0016,-1.1318,-1.3107,-1.3114,-1.3193,-1.3227,-1.3514,-1.346,-1.328,-1.3848,-1.3881,-1.3687,-1.3968,-1.4068,-1.4075,-1.4068,-1.4062,-1.4062,-1.4062,-1.4062,-1.4062,-1.4075,-1.4727,-1.5372,-1.5379,-1.6756,-1.8204,-1.8301,-1.9125,-1.9863,-1.9863,-2.0108,-2.0342,-2.0566,-2.0566,-2.0566,-2.0566,-2.0566,-2.0566,-2.0566,-2.0566,-2.0566,-2.0566,-2.0566,-2.0566,-2.0566,-2.0566,-2.0644,-2.0644,-2.2188,-2.2798,-2.2101,-2.4371,-2.5004,-2.3452,-2.4933,-2.5158,-2.3818,-2.5312,-2.584,-2.53,-2.6094,-2.6533,-2.6533,-2.6533,-2.6533,-0.2397,0.0,0.0,0.0,0.0,0.0,0.0,0.0,-0.3075,-0.3232,0.0,0.0,0.0,0.0,0.0,0.0,0.0,0.0,0.0,0.0,0.0,0.0,0.0,0.0,0.0,0.0,0.0,0.0,-0.3763,-0.3775,-0.3799,-0.3777,-0.4075,-0.4698,-0.504,-0.5761,-0.6624,-0.6902,-0.7238,-0.763,-0.763,-0.763,-0.763,-0.7939,-0.8325,-0.8864,-0.9038,-1.0117,-1.1733,-1.1849,-1.2324,-1.2906,-1.3213,-1.328,-1.3227,-1.3394,-1.3534,-1.3627,-1.35,-1.3587,-1.3734,-1.352,-1.3454,-1.3454,-1.3454,-1.3454,-1.35,-1.3707,-1.377,-1.3971,-1.4822,-1.544,-1.6212,-1.776,-1.8318,-1.8727,-1.9557,-1.9724,-1.9872,-2.0342,-2.0489,-2.0566,-2.0566,-2.0566,-2.0566,-2.0566,-2.0566,-2.0566,-2.0566,-2.0566,-2.0566,-2.0566,-2.0566,-2.0867,-2.1385,-2.1385,-2.1461,-2.1852,-2.1983,-2.1907,-2.1451,-2.2489,-2.3147,-2.3368,-2.3963,-2.4492,-2.5087,-2.6025,-2.6533,-2.6533,-2.6533,-2.6533,-0.2442,-0.2523,-0.2617,-0.2548,0.0,0.0,-0.273,-0.2828,0.0,0.0,0.0,0.0,0.0,0.0,0.0,0.0,0.0,0.0,0.0,0.0,0.0,0.0,0.0,0.0,0.0,0.0,0.0,-0.3763,-0.3763,-0.3763,-0.3763,-0.3763,-0.3997,-0.4309,-0.4543,-0.5087,-0.5786,-0.6328,-0.6791,-0.7099,-0.7407,-0.7484,-0.7484,-0.7484,-0.7787,-0.8169,-0.8169,-0.8922,-1.0143,-1.0661,-1.1563,-1.2592,-1.2899,-1.2939,-1.2859,-1.312,-1.324,-1.326,-1.3227,-1.332,-1.3434,-1.3267,-1.3213,-1.3213,-1.3213,-1.3213,-1.3247,-1.3414,-1.334,-1.3353,-1.4195,-1.4596,-1.5307,-1.7017,-1.7755,-1.8247,-1.9231,-1.9557,-1.9724,-2.0186,-2.042,-2.0489,-2.0566,-2.0566,-2.0566,-2.0566,-2.0566,-2.0566,-2.0566,-2.0566,-2.0566,-2.0566,-2.0566,-2.0789,-2.1242,-2.1165,-2.1308,-2.1766,-2.168,-2.1461,-2.1088,-2.1973,-2.2349,-2.2209,-2.301,-2.3745,-2.448,-2.5063,-2.5581,-2.6025,-2.6314,-2.6533,-0.2472,-0.2507,-0.264,-0.2658,-0.2678,0.0,-0.2762,-0.2805,-0.2815,0.0,0.0,0.0,0.0,0.0,0.0,0.0,0.0,0.0,0.0,0.0,0.0,0.0,0.0,0.0,0.0,-0.3763,-0.3763,-0.3763,-0.3754,-0.3752,-0.3763,-0.3754,-0.3752,-0.3763,-0.4309,-0.4623,-0.4701,-0.5786,-0.6409,-0.6483,-0.7099,-0.7407,-0.7407,-0.7484,-0.7484,-0.7484,-0.7484,-0.794,-0.8775,-0.9448,-1.072,-1.2177,-1.2592,-1.2532,-1.2365,-1.2906,-1.2953,-1.2856,-1.3026,-1.3133,-1.3153,-1.312,-1.3106,-1.3106,-1.3106,-1.3106,-1.3106,-1.3106,-1.316,-1.3267,-1.3527,-1.417,-1.5072,-1.6366,-1.7269,-1.8158,-1.9054,-1.9469,-1.9715,-2.0108,-2.0264,-2.0342,-2.0489,-2.0566,-2.0566,-2.0566,-2.0566,-2.0566,-2.0566,-2.0566,-2.0566,-2.0566,-2.0566,-2.0566,-2.0566,-2.1242,-2.169,-2.169,-2.236,-2.2435,-2.169,-2.236,-2.222,-2.1051,-2.236,-2.3231,-2.3452,-2.3672,-2.4264,-2.5158,-2.5873,-2.6233,-0.2662,-0.265,-0.265,-0.2649,0.0,0.0,-0.2672,-0.2664,-0.2738,0.0,0.0,0.0,0.0,0.0,0.0,0.0,0.0,0.0,0.0,0.0,0.0,0.0,0.0,0.0,0.0,-0.3763,-0.3763,-0.3763,-0.3695,-0.3685,-0.3759,-0.3693,-0.3687,-0.3761,-0.3919,-0.4231,-0.4701,-0.4932,-0.5318,-0.578,-0.6479,-0.6791,-0.6795,-0.7253,-0.7484,-0.7484,-0.7484,-0.794,-0.8703,-0.8851,-0.9906,-1.1416,-1.2142,-1.2351,-1.2318,-1.2438,-1.2592,-1.2795,-1.2538,-1.2632,-1.2799,-1.2559,-1.2478,-1.2478,-1.2478,-1.2478,-1.2478,-1.2478,-1.2832,-1.3227,-1.328,-1.3548,-1.4356,-1.6293,-1.6862,-1.7342,-1.8975,-1.9301,-1.9469,-1.9715,-1.9872,-2.002,-2.0333,-2.0342,-2.0411,-2.0566,-2.0566,-2.0566,-2.0566,-2.0566,-2.0566,-2.0566,-2.0566,-2.0566,-2.0566,-2.0712,-2.0867,-2.0867,-2.1021,-2.1011,-2.0867,-2.1011,-2.1242,-2.1624,-2.209,-2.2014,-2.1492,-2.3021,-2.3963,-2.4337,-2.448,-2.4552,-0.2715,-0.2691,-0.2691,-0.2691,0.0,0.0,0.0,0.0,-0.2703,-0.275,0.0,0.0,0.0,0.0,0.0,0.0,0.0,0.0,0.0,0.0,0.0,0.0,0.0,0.0,0.0,-0.3632,-0.3632,-0.3632,-0.3589,-0.3601,-0.3691,-0.3612,-0.3603,-0.3693,-0.3654,-0.3783,-0.4084,-0.4382,-0.4678,-0.5049,-0.5949,-0.6439,-0.6518,-0.7127,-0.7403,-0.7484,-0.7484,-0.771,-0.8169,-0.8551,-0.9155,-1.0056,-1.1254,-1.1929,-1.2305,-1.2305,-1.2398,-1.2505,-1.2351,-1.2398,-1.2498,-1.2351,-1.2305,-1.2305,-1.2305,-1.2305,-1.2305,-1.2305,-1.2525,-1.2792,-1.2939,-1.3509,-1.4438,-1.6116,-1.6895,-1.7674,-1.9054,-1.9301,-1.9301,-1.939,-1.9548,-1.9706,-2.002,-2.0186,-2.0342,-2.042,-2.0566,-2.0566,-2.0566,-2.0566,-2.0566,-2.0566,-2.0566,-2.0566,-2.0566,-2.0566,-2.0566,-2.0566,-2.0566,-2.0566,-2.0566,-2.0566,-2.0789,-2.1165,-2.1328,-2.1185,-2.0906,-2.1852,-2.2734,-2.3379,-2.3902,-2.4108,0.0,0.0,-0.2754,0.0,0.0,-0.2752,0.0,0.0,0.0,0.0,0.0,0.0,0.0,0.0,0.0,0.0,0.0,0.0,0.0,0.0,0.0,0.0,0.0,0.0,0.0,-0.3475,-0.3481,-0.3499,-0.3467,-0.3493,-0.3597,-0.352,-0.3514,-0.3599,-0.3536,-0.3499,-0.3499,-0.4003,-0.4217,-0.4217,-0.5365,-0.5947,-0.6247,-0.6775,-0.7242,-0.7484,-0.7484,-0.7484,-0.7561,-0.8169,-0.8546,-0.8851,-1.0432,-1.1484,-1.2077,-1.2224,-1.2305,-1.2305,-1.2305,-1.2305,-1.2305,-1.2305,-1.2305,-1.2305,-1.2305,-1.2305,-1.2305,-1.2305,-1.2345,-1.2445,-1.2761,-1.3509,-1.4594,-1.5945,-1.7037,-1.7992,-1.9036,-1.9301,-1.9301,-1.9301,-1.9301,-1.9381,-1.9784,-2.0029,-2.0186,-2.0186,-2.0411,-2.0566,-2.0566,-2.0566,-2.0566,-2.0566,-2.0566,-2.0566,-2.0566,-2.0566,-2.0566,-2.0566,-2.0566,-2.0566,-2.0566,-2.0566,-2.0566,-2.0566,-2.0566,-2.0654,-2.0829,-2.0906,-2.1415,-2.2521,-2.3243,-2.361,0.0,0.0,0.0,0.0,-0.2877,0.0,0.0,0.0,0.0,-0.2707,0.0,0.0,0.0,0.0,0.0,0.0,0.0,0.0,0.0,0.0,0.0,0.0,0.0,0.0,0.0,0.0,-0.3413,-0.3493,-0.335,-0.3332,-0.3505,-0.3428,-0.342,-0.3511,-0.3505,-0.3499,-0.3499,-0.3572,-0.3572,-0.3644,-0.4287,-0.4927,-0.5644,-0.6247,-0.6862,-0.7484,-0.7484,-0.7484,-0.7484,-0.7638,-0.8093,-0.8851,-1.0432,-1.1186,-1.1335,-1.2003,-1.2305,-1.2305,-1.2305,-1.2305,-1.2305,-1.2305,-1.2305,-1.2305,-1.2305,-1.2305,-1.2305,-1.2305,-1.2492,-1.2775,-1.2815,-1.305,-1.3822,-1.5866,-1.6373,-1.7042,-1.8903,-1.9301,-1.9301,-1.9301,-1.9301,-1.9381,-1.9636,-1.9636,-1.9715,-1.9951,-2.0186,-2.0342,-2.0342,-2.0489,-2.0566,-2.0566,-2.0566,-2.0566,-2.0566,-2.0566,-2.0566,-2.0566,-2.0566,-2.0566,-2.0566,-2.0566,-2.0566,-2.0566,-2.0566,-2.0644,-2.0644,-2.0819,-2.1128,-2.1655,-2.1721,-2.1873,0.0,0.0,0.0,0.0,0.0,0.0,-0.2787,0.0,-0.2738,0.0,0.0,0.0,0.0,0.0,0.0,0.0,0.0,0.0,0.0,0.0,0.0,0.0,0.0,0.0,0.0,0.0,0.0,0.0,0.0,-0.3205,-0.3334,-0.3305,-0.3326,-0.3418,-0.3369,-0.3342,-0.3342,-0.3342,-0.3342,-0.3342,-0.3892,-0.4574,-0.5263,-0.5837,-0.6501,-0.7183,-0.7285,-0.7334,-0.7342,-0.7443,-0.771,-0.8093,-0.9226,-1.0282,-1.1111,-1.1484,-1.1929,-1.2305,-1.2305,-1.2305,-1.2305,-1.2305,-1.2305,-1.2305,-1.2305,-1.2305,-1.2305,-1.2305,-1.2392,-1.2485,-1.2485,-1.3092,-1.3971,-1.4789,-1.5662,-1.6697,-1.804,-1.8417,-1.8727,-1.9222,-1.9301,-1.9301,-1.939,-1.9557,-1.9645,-1.9715,-1.9951,-2.0108,-2.0108,-2.0264,-2.042,-2.042,-2.0489,-2.0566,-2.0566,-2.0566,-2.0566,-2.0566,-2.0566,-2.0566,-2.0566,-2.0566,-2.0566,-2.0566,-2.0566,-2.0566,-2.0566,-2.0654,-2.0896,-2.1138,-2.1359,-2.1578,-0.3046,0.0,0.0,0.0,0.0,0.0,0.0,0.0,0.0,0.0,0.0,0.0,0.0,0.0,-0.2858,-0.2747,0.0,-0.2832,0.0,0.0,0.0,0.0,0.0,0.0,0.0,0.0,0.0,0.0,-0.2993,-0.3068,-0.3183,-0.3189,-0.3232,-0.3324,-0.326,-0.3226,-0.3226,-0.3226,-0.3226,-0.3226,-0.3627,-0.4219,-0.5092,-0.551,-0.6154,-0.7032,-0.7094,-0.7151,-0.7163,-0.7338,-0.7411,-0.7491,-0.8147,-0.9226,-1.0513,-1.0962,-1.1632,-1.2305,-1.2305,-1.2305,-1.2305,-1.2305,-1.2305,-1.2305,-1.2305,-1.2305,-1.2305,-1.2305,-1.2305,-1.2305,-1.2305,-1.298,-1.37,-1.4013,-1.4996,-1.6071,-1.7033,-1.7414,-1.7917,-1.8807,-1.8975,-1.9054,-1.9222,-1.939,-1.9557,-1.9557,-1.9715,-1.9784,-1.9784,-2.0029,-2.0186,-2.0264,-2.0411,-2.0566,-2.0566,-2.0566,-2.0566,-2.0566,-2.0566,-2.0566,-2.0566,-2.0566,-2.0566,-2.0566,-2.0566,-2.0566,-2.0566,-2.0566,-2.0654,-2.0819,-2.1205,-2.1359,0.0,0.0,0.0,-0.3059,0.0,0.0,0.0,0.0,-0.2797,0.0,0.0,0.0,0.0,-0.3081,-0.3246,-0.2747,-0.3081,0.0,0.0,0.0,0.0,0.0,0.0,0.0,0.0,0.0,0.0,-0.3009,-0.2881,-0.2911,-0.3085,-0.3095,-0.3136,-0.3228,-0.3228,-0.3226,-0.3226,-0.3226,-0.3226,-0.3226,-0.3226,-0.3881,-0.5092,-0.5092,-0.5797,-0.7023,-0.7032,-0.7032,-0.7048,-0.7159,-0.7236,-0.7253,-0.7419,-0.8016,-0.9003,-1.0507,-1.1632,-1.2305,-1.2305,-1.2305,-1.2305,-1.2305,-1.2305,-1.2305,-1.2305,-1.2305,-1.2305,-1.2305,-1.2305,-1.2305,-1.2305,-1.2311,-1.2688,-1.3812,-1.4362,-1.4922,-1.6111,-1.6533,-1.7025,-1.7836,-1.8078,-1.8327,-1.9143,-1.9301,-1.9301,-1.9301,-1.9478,-1.9636,-1.9636,-1.9794,-2.002,-2.0264,-2.0342,-2.042,-2.0566,-2.0566,-2.0566,-2.0566,-2.0566,-2.0566,-2.0566,-2.0566,-2.0566,-2.0566,-2.0566,-2.0566,-2.0566,-2.0566,-2.0566,-2.0644,-2.0819,-2.1138,0.0,0.0,-0.3197,-0.3075,0.0,0.0,0.0,0.0,0.0,0.0,0.0,0.0,0.0,-0.3302,-0.3635,-0.3246,-0.3302,-0.3359,0.0,0.0,0.0,0.0,0.0,0.0,0.0,0.0,0.0,-0.2779,-0.2809,-0.2879,0.0,-0.3058,-0.3132,-0.3224,-0.3226,-0.3226,-0.3226,-0.3226,-0.3226,-0.3226,-0.3226,-0.3645,-0.4352,-0.4754,-0.5315,-0.6124,-0.6587,-0.6777,-0.6794,-0.7098,-0.7224,-0.7244,-0.7415,-0.8016,-0.8851,-0.99,-1.0807,-1.1558,-1.1929,-1.2157,-1.2305,-1.215,-1.2157,-1.2305,-1.2305,-1.2305,-1.2305,-1.2305,-1.2305,-1.2305,-1.2305,-1.2305,-1.2452,-1.3051,-1.3445,-1.3987,-1.5158,-1.565,-1.6131,-1.6944,-1.7107,-1.7432,-1.8327,-1.8407,-1.8647,-1.9222,-1.9381,-1.939,-1.939,-1.9557,-1.9794,-2.0029,-2.0186,-2.0342,-2.0566,-2.0566,-2.0566,-2.0566,-2.0566,-2.0566,-2.0566,-2.0566,-2.0566,-2.0566,-2.0566,-2.0566,-2.0566,-2.0566,-2.0566,-2.0566,-2.0654,-2.0809,-0.2686,-0.2889,0.0,-0.2921,-0.2793,0.0,-0.2615,0.0,0.0,0.0,0.0,0.0,0.0,0.0,-0.3535,-0.3295,-0.3439,-0.358,0.0,-0.3291,0.0,0.0,0.0,0.0,0.0,0.0,-0.2435,-0.2689,-0.2657,-0.2665,0.0,0.0,-0.3085,-0.3175,-0.3209,-0.3226,-0.3226,-0.3226,-0.3226,-0.3226,-0.3226,-0.3493,-0.4028,-0.4553,-0.508,-0.562,-0.6273,-0.6591,-0.6607,-0.6911,-0.7074,-0.7147,-0.7322,-0.7732,-0.8399,-0.9145,-1.0126,-1.1111,-1.1706,-1.2003,-1.2077,-1.1929,-1.2003,-1.2157,-1.2157,-1.2224,-1.2305,-1.2305,-1.2305,-1.2305,-1.2305,-1.2305,-1.2378,-1.2755,-1.2986,-1.3446,-1.4289,-1.4682,-1.5235,-1.6049,-1.6206,-1.6535,-1.7432,-1.7513,-1.7917,-1.9134,-1.9301,-1.9301,-1.9301,-1.939,-1.9548,-1.9784,-2.0029,-2.0264,-2.0566,-2.0566,-2.0566,-2.0566,-2.0566,-2.0566,-2.0566,-2.0566,-2.0566,-2.0566,-2.0566,-2.0566,-2.0566,-2.0566,-2.0566,-2.0566,-2.0566,-2.0654]}]]